[[{"header":{"parameterUnit":"m.s-1","parameterCategory":1,"la1":30.6,"la2":28.766,"lo1":-90.7593,"lo2":-88.6598,"dx":0.0162,"dy":0.0183,"nx":116,"ny":114,"refTime":"2022-12-25T18:00:00:Z","depth":0,"parameterNumber":2,"parameterNumberName":"U-component_of_WINDS"},"data":[0.0,0.0,0.0,0.0,0.0,0.0,0.0,0.0,0.0,0.0,0.0,0.0,0.0,0.0,0.0,0.0,0.0,0.0,0.0,0.0,0.0,0.0,0.0,0.0,0.0,0.0,0.0,0.0,0.0,0.0,0.0,0.0,0.0,0.0,0.0,0.0,0.0,0.0,0.0,0.0,0.0,0.0,0.0,0.0,0.0,0.0,0.0,0.0,0.0,0.0,0.0,0.0,0.0,0.0,0.0,0.0,0.0,0.0,0.0,0.0,0.0,0.0,0.0,0.0,0.0,0.0,0.0,0.0,0.0,0.0,0.0,0.0,0.0,0.0,0.0,0.0,0.0,0.0,0.0,0.0,0.0,0.0,0.0,0.0,0.0,0.0,0.0,0.0,0.0,0.0,0.0,0.0,0.0,0.0,0.0,0.0,0.0,0.0,0.0,0.0,0.0,0.0,0.0,0.0,0.0,0.0,0.0,0.0,0.0,0.0,0.0,0.0,0.0,0.0,0.0,0.0,0.0,0.0,0.0,0.0,0.0,0.0,0.0,0.0,0.0,0.0,0.0,0.0,0.0,0.0,0.0,0.0,0.0,0.0,0.0,0.0,0.0,0.0,0.0,0.0,0.0,0.0,0.0,0.0,0.0,0.0,0.0,0.0,0.0,0.0,0.0,0.0,0.0,0.0,0.0,0.0,0.0,0.0,0.0,0.0,0.0,0.0,0.0,0.0,0.0,0.0,0.0,0.0,0.0,0.0,0.0,0.0,0.0,0.0,0.0,0.0,0.0,0.0,0.0,0.0,0.0,0.0,0.0,0.0,0.0,0.0,0.0,0.0,0.0,0.0,0.0,0.0,0.0,0.0,0.0,0.0,0.0,0.0,0.0,0.0,0.0,0.0,0.0,0.0,0.0,0.0,0.0,0.0,0.0,0.0,0.0,0.0,0.0,0.0,0.0,0.0,0.0,0.0,0.0,0.0,0.0,0.0,0.0,0.0,0.0,0.0,0.0,0.0,0.0,0.0,0.0,0.0,0.0,0.0,0.0,0.0,0.0,0.0,0.0,0.0,0.0,0.0,0.0,0.0,0.0,0.0,0.0,0.0,0.0,0.0,0.0,0.0,0.0,0.0,0.0,0.0,0.0,0.0,0.0,0.0,0.0,0.0,0.0,0.0,0.0,0.0,0.0,0.0,0.0,0.0,0.0,0.0,0.0,0.0,0.0,0.0,0.0,0.0,0.0,0.0,0.0,0.0,0.0,0.0,0.0,0.0,0.0,0.0,0.0,0.0,0.0,0.0,0.0,0.0,0.0,0.0,0.0,0.0,0.0,0.0,0.0,0.0,0.0,0.0,0.0,0.0,0.0,0.0,0.0,0.0,0.0,0.0,0.0,0.0,0.0,0.0,0.0,0.0,0.0,0.0,0.0,0.0,0.0,0.0,0.0,0.0,0.0,0.0,0.0,0.0,0.0,0.0,0.0,0.0,0.0,0.0,0.0,0.0,0.0,0.0,0.0,0.0,0.0,0.0,0.0,0.0,0.0,0.0,0.0,0.0,0.0,0.0,0.0,0.0,0.0,0.0,0.0,0.0,0.0,0.0,0.0,0.0,0.0,0.0,0.0,0.0,0.0,0.0,0.0,0.0,0.0,0.0,0.0,0.0,0.0,0.0,0.0,0.0,0.0,0.0,0.0,0.0,0.0,0.0,0.0,0.0,0.0,0.0,0.0,0.0,0.0,0.0,0.0,0.0,0.0,0.0,0.0,0.0,0.0,0.0,0.0,0.0,0.0,0.0,0.0,0.0,0.0,0.0,0.0,0.0,0.0,0.0,0.0,0.0,0.0,0.0,0.0,0.0,0.0,0.0,0.0,0.0,0.0,0.0,0.0,0.0,0.0,0.0,0.0,0.0,0.0,0.0,0.0,0.0,0.0,0.0,0.0,0.0,0.0,0.0,0.0,0.0,0.0,0.0,0.0,0.0,0.0,0.0,0.0,0.0,0.0,0.0,0.0,0.0,0.0,0.0,0.0,0.0,0.0,0.0,0.0,0.0,0.0,0.0,0.0,0.0,0.0,0.0,0.0,0.0,0.0,0.0,0.0,0.0,0.0,0.0,0.0,0.0,0.0,0.0,0.0,0.0,0.0,0.0,0.0,0.0,0.0,0.0,0.0,0.0,0.0,0.0,0.0,0.0,0.0,0.0,0.0,0.0,0.0,0.0,0.0,0.0,0.0,0.0,0.0,0.0,0.0,0.0,0.0,0.0,0.0,0.0,0.0,0.0,0.0,0.0,0.0,0.0,0.0,0.0,0.0,0.0,0.0,0.0,0.0,0.0,0.0,0.0,0.0,0.0,0.0,0.0,0.0,0.0,0.0,0.0,0.0,0.0,0.0,0.0,0.0,0.0,0.0,0.0,0.0,0.0,0.0,0.0,0.0,0.0,0.0,0.0,0.0,0.0,0.0,0.0,0.0,0.0,0.0,0.0,0.0,0.0,0.0,0.0,0.0,0.0,0.0,0.0,0.0,0.0,0.0,0.0,0.0,0.0,0.0,0.0,0.0,0.0,0.0,0.0,0.0,0.0,0.0,0.0,0.0,0.0,0.0,0.0,0.0,0.0,0.0,0.0,0.0,0.0,0.0,0.0,0.0,0.0,0.0,0.0,0.0,0.0,0.0,0.0,0.0,0.0,0.0,0.0,0.0,0.0,0.0,0.0,0.0,0.0,0.0,0.0,0.0,0.0,0.0,0.0,0.0,0.0,0.0,0.0,0.0,0.0,0.0,0.0,0.0,0.0,0.0,0.0,0.0,0.0,0.0,0.0,0.0,0.0,0.0,0.0,0.0,0.0,0.0,0.0,0.0,0.0,0.0,0.0,0.0,0.0,0.0,0.0,0.0,0.0,0.0,0.0,0.0,0.0,0.0,0.0,0.0,0.0,0.0,0.0,0.0,0.0,0.0,0.0,0.0,0.0,0.0,0.0,0.0,0.0,0.0,0.0,0.0,0.0,0.0,0.0,0.0,0.0,0.0,0.0,0.0,0.0,0.0,0.0,0.0,0.0,0.0,0.0,0.0,0.0,0.0,0.0,0.0,0.0,0.0,0.0,0.0,0.0,0.0,0.0,0.0,0.0,0.0,0.0,0.0,0.0,0.0,0.0,0.0,0.0,0.0,0.0,0.0,0.0,0.0,0.0,0.0,0.0,0.0,0.0,0.0,0.0,0.0,0.0,0.0,0.0,0.0,0.0,0.0,0.0,0.0,0.0,0.0,0.0,0.0,0.0,0.0,0.0,0.0,0.0,0.0,0.0,0.0,0.0,0.0,0.0,0.0,0.0,0.0,0.0,0.0,0.0,0.0,0.0,0.0,0.0,0.0,0.0,0.0,0.0,0.0,0.0,0.0,0.0,0.0,0.0,0.0,0.0,0.0,0.0,0.0,0.0,0.0,0.0,0.0,0.0,0.0,0.0,0.0,0.0,0.0,0.0,0.0,0.0,0.0,0.0,0.0,0.0,0.0,0.0,0.0,0.0,0.0,0.0,0.0,0.0,0.0,0.0,0.0,0.0,0.0,0.0,0.0,0.0,0.0,0.0,0.0,0.0,0.0,0.0,0.0,0.0,0.0,0.0,0.0,0.0,0.0,0.0,0.0,0.0,0.0,0.0,0.0,0.0,0.0,0.0,0.0,0.0,0.0,0.0,0.0,0.0,0.0,0.0,0.0,0.0,0.0,0.0,0.0,0.0,0.0,0.0,0.0,0.0,0.0,0.0,0.0,0.0,0.0,0.0,0.0,0.0,0.0,0.0,0.0,0.0,0.0,0.0,0.0,0.0,0.0,0.0,0.0,0.0,0.0,0.0,0.0,0.0,0.0,0.0,0.0,0.0,0.0,0.0,0.0,0.0,0.0,0.0,0.0,0.0,0.0,0.0,0.0,0.0,0.0,0.0,0.0,0.0,0.0,0.0,0.0,0.0,0.0,0.0,0.0,0.0,0.0,0.0,0.0,0.0,0.0,0.0,0.0,0.0,0.0,0.0,0.0,0.0,0.0,0.0,0.0,0.0,0.0,0.0,0.0,0.0,0.0,0.0,0.0,0.0,0.0,0.0,0.0,0.0,0.0,0.0,0.0,0.0,0.0,0.0,0.0,0.0,0.0,0.0,0.0,0.0,0.0,0.0,0.0,0.0,0.0,0.0,0.0,0.0,0.0,0.0,0.0,0.0,0.0,0.0,0.0,0.0,0.0,0.0,0.0,0.0,0.0,0.0,0.0,0.0,0.0,0.0,0.0,0.0,0.0,0.0,0.0,0.0,0.0,0.0,0.0,0.0,0.0,0.0,0.0,0.0,0.0,0.0,0.0,0.0,0.0,0.0,0.0,0.0,0.0,0.0,0.0,0.0,0.0,0.0,0.0,0.0,0.0,0.0,0.0,0.0,0.0,0.0,0.0,0.0,0.0,0.0,0.0,0.0,0.0,0.0,0.0,0.0,0.0,0.0,0.0,0.0,0.0,0.0,0.0,0.0,0.0,0.0,0.0,0.0,0.0,0.0,0.0,0.0,0.0,0.0,0.0,0.0,0.0,0.0,0.0,0.0,0.0,0.0,0.0,0.0,0.0,0.0,0.0,0.0,0.0,0.0,0.0,0.0,0.0,0.0,0.0,0.0,0.0,0.0,0.0,0.0,0.0,0.0,0.0,0.0,0.0,0.0,0.0,0.0,0.0,0.0,0.0,0.0,0.0,0.0,0.0,0.0,0.0,0.0,0.0,0.0,0.0,0.0,0.0,0.0,0.0,0.0,0.0,0.0,0.0,0.0,0.0,0.0,0.0,0.0,0.0,0.0,0.0,0.0,0.0,0.0,0.0,0.0,0.0,0.0,0.0,0.0,0.0,0.0,0.0,0.0,0.0,0.0,0.0,0.0,0.0,0.0,0.0,0.0,0.0,0.0,0.0,0.0,0.0,0.0,0.0,0.0,0.0,0.0,0.0,0.0,0.0,0.0,0.0,0.0,0.0,0.0,0.0,0.0,0.0,0.0,0.0,0.0,0.0,0.0,0.0,0.0,0.0,0.0,0.0,0.0,0.0,0.0,0.0,0.0,0.0,0.0,0.0,0.0,0.0,0.0,0.0,0.0,0.0,0.0,0.0,0.0,0.0,0.0,0.0,0.0,0.0,0.0,0.0,0.0,0.0,0.0,0.0,0.0,0.0,0.0,0.0,0.0,0.0,0.0,0.0,0.0,0.0,0.0,0.0,0.0,0.0,0.0,0.0,0.0,0.0,0.0,0.0,0.0,0.0,0.0,0.0,0.0,0.0,0.0,0.0,0.0,0.0,0.0,0.0,0.0,0.0,0.0,0.0,0.0,0.0,0.0,0.0,0.0,0.0,0.0,0.0,0.0,0.0,0.0,0.0,0.0,0.0,0.0,0.0,0.0,0.0,0.0,0.0,0.0,0.0,0.0,0.0,0.0,0.0,0.0,0.0,0.0,0.0,0.0,0.0,0.0,0.0,0.0,0.0,0.0,0.0,0.0,0.0,0.0,0.0,0.0,0.0,0.0,0.0,0.0,0.0,0.0,0.0,0.0,0.0,0.0,0.0,0.0,0.0,0.0,0.0,0.0,0.0,0.0,0.0,0.0,0.0,0.0,0.0,0.0,0.0,0.0,0.0,0.0,0.0,0.0,0.0,0.0,0.0,0.0,0.0,0.0,0.0,0.0,0.0,0.0,0.0,0.0,0.0,0.0,0.0,0.0,0.0,0.0,0.0,0.0,0.0,0.0,0.0,0.0,0.0,0.0,0.0,0.0,0.0,0.0,0.0,0.0,0.0,0.0,0.0,0.0,0.0,0.0,0.0,0.0,0.0,0.0,0.0,0.0,0.0,0.0,0.0,0.0,0.0,0.0,0.0,0.0,0.0,0.0,0.0,0.0,0.0,0.0,0.0,0.0,0.0,0.0,0.0,0.0,0.0,0.0,0.0,0.0,0.0,0.0,0.0,0.0,0.0,0.0,0.0,0.0,0.0,0.0,0.0,0.0,0.0,0.0,0.0,0.0,0.0,0.0,0.0,0.0,0.0,0.0,0.0,0.0,0.0,0.0,0.0,0.0,0.0,0.0,-1.8429,0.0,0.0,0.0,0.0,0.0,0.0,0.0,0.0,0.0,0.0,0.0,0.0,0.0,0.0,0.0,0.0,0.0,0.0,0.0,0.0,0.0,0.0,0.0,0.0,-0.9367,-0.9565,-0.9927,-0.9424,0.0,0.0,0.0,0.0,0.0,0.0,0.0,0.0,0.0,0.0,0.0,0.0,0.0,-1.0626,-1.0439,-0.7501,0.0,0.0,0.0,0.0,0.0,0.0,0.0,0.0,0.0,0.0,0.0,0.0,0.0,0.0,0.0,0.0,0.0,0.0,0.0,0.0,0.0,0.0,0.0,0.0,0.0,0.0,0.0,0.0,0.0,0.0,0.0,0.0,0.0,0.0,0.0,0.0,0.0,0.0,0.0,0.0,0.0,0.0,0.0,0.0,0.0,0.0,0.0,0.0,0.0,0.0,0.0,0.0,0.0,0.0,0.0,0.0,0.0,0.0,0.0,0.0,0.0,0.0,0.0,0.0,0.0,0.0,0.0,0.0,0.0,0.0,0.0,0.0,-1.9815,0.0,0.0,0.0,0.0,0.0,0.0,0.0,0.0,0.0,0.0,0.0,0.0,0.0,0.0,0.0,0.0,0.0,0.0,0.0,0.0,0.0,-0.9077,-1.0025,-1.0254,-1.0393,-1.0527,-0.9504,-0.9012,-0.9397,-0.8365,0.0,0.0,0.0,0.0,0.0,0.0,0.0,0.0,0.0,0.0,0.0,-1.9158,0.0,0.0,0.0,0.0,0.0,0.0,0.0,0.0,0.0,0.0,0.0,0.0,0.0,0.0,0.0,0.0,0.0,0.0,0.0,0.0,0.0,0.0,0.0,0.0,0.0,0.0,0.0,0.0,0.0,0.0,0.0,0.0,0.0,0.0,0.0,0.0,0.0,0.0,0.0,0.0,0.0,0.0,0.0,0.0,0.0,0.0,0.0,0.0,0.0,0.0,0.0,0.0,0.0,0.0,0.0,0.0,0.0,0.0,0.0,0.0,0.0,0.0,0.0,0.0,0.0,0.0,-2.4474,-2.4648,-2.4589,-2.4589,-2.5726,-2.7544,-2.4716,-2.4681,-2.6222,0.0,0.0,0.0,0.0,0.0,0.0,0.0,0.0,0.0,0.0,0.0,0.0,0.0,0.0,0.0,0.0,0.0,0.0,0.0,0.0,-0.9931,-1.0917,-1.1143,-1.1746,-1.3002,-1.1875,-1.1084,-1.1083,-0.9865,0.0,0.0,0.0,0.0,-0.9375,-1.1099,-1.2826,0.0,0.0,0.0,-1.7549,0.0,0.0,0.0,0.0,0.0,0.0,0.0,0.0,0.0,0.0,0.0,0.0,0.0,0.0,0.0,0.0,0.0,0.0,0.0,0.0,0.0,0.0,0.0,0.0,0.0,0.0,0.0,0.0,0.0,0.0,0.0,0.0,0.0,0.0,0.0,0.0,0.0,0.0,0.0,0.0,0.0,0.0,0.0,0.0,0.0,0.0,0.0,-1.6228,-1.6361,0.0,0.0,0.0,0.0,0.0,0.0,0.0,0.0,0.0,0.0,0.0,0.0,0.0,-2.3564,-2.403,-2.6916,-2.8404,-2.8475,-3.0704,-3.1747,-3.1738,-3.1738,-3.1864,-3.2045,-3.1583,0.0,-2.6566,-2.501,0.0,0.0,0.0,0.0,0.0,0.0,0.0,0.0,0.0,0.0,0.0,0.0,0.0,0.0,0.0,0.0,0.0,0.0,0.0,0.0,0.0,-1.3168,-1.4099,-1.5554,-1.4605,-1.3514,-1.2589,-1.1059,0.0,0.0,0.0,-0.9281,-1.0104,-1.3129,-1.6453,0.0,0.0,0.0,0.0,0.0,0.0,0.0,0.0,0.0,0.0,0.0,0.0,0.0,0.0,0.0,0.0,0.0,0.0,0.0,0.0,0.0,0.0,0.0,0.0,0.0,0.0,0.0,0.0,0.0,0.0,0.0,0.0,0.0,0.0,0.0,0.0,0.0,0.0,0.0,0.0,0.0,0.0,0.0,0.0,0.0,0.0,0.0,0.0,0.0,0.0,-1.4789,-1.5448,-1.5843,-1.4896,-1.4236,0.0,0.0,0.0,0.0,0.0,0.0,0.0,0.0,0.0,-2.4949,-2.584,-2.7,-2.845,-3.0337,-3.1332,-3.1457,-3.2493,-3.3055,-3.3145,-3.3045,-3.3001,-3.3012,-3.294,-3.1877,-3.0015,-2.7745,-2.5099,-2.2273,0.0,0.0,0.0,0.0,-1.901,-1.9498,0.0,0.0,0.0,0.0,0.0,0.0,0.0,0.0,0.0,0.0,0.0,0.0,-1.443,-1.6078,-1.7619,-1.9065,-1.807,-1.68,-1.5485,-1.2961,-1.1097,0.0,-0.9465,-0.9718,-1.1031,-1.5248,-1.9278,0.0,0.0,0.0,0.0,0.0,0.0,0.0,0.0,0.0,0.0,0.0,0.0,0.0,0.0,0.0,0.0,0.0,0.0,0.0,0.0,0.0,0.0,0.0,0.0,0.0,0.0,0.0,0.0,0.0,0.0,0.0,0.0,0.0,0.0,0.0,0.0,0.0,0.0,0.0,0.0,0.0,0.0,0.0,0.0,0.0,0.0,0.0,0.0,0.0,0.0,-1.53,-1.5455,-1.5891,-1.5294,-1.4849,0.0,0.0,0.0,0.0,0.0,0.0,-2.2626,-2.297,-2.4587,-2.784,-2.855,-2.9931,-3.2106,-3.2875,-3.331,-3.3422,-3.3555,-3.3693,-3.3848,-3.3712,-3.3693,-3.3723,-3.3627,-3.3448,-3.3,-3.0095,-2.8063,-2.6501,-2.3592,-2.2029,-2.1462,-2.2114,-2.241,-2.288,0.0,0.0,0.0,0.0,0.0,0.0,0.0,0.0,0.0,0.0,0.0,-1.5123,-1.7017,-2.0101,-2.2672,-2.4195,-2.2647,-2.1351,-2.0828,-1.6188,-1.3077,-1.2191,-1.072,-1.0599,-1.201,-1.7399,-2.0391,0.0,0.0,0.0,0.0,0.0,0.0,0.0,0.0,0.0,0.0,0.0,0.0,0.0,0.0,0.0,0.0,0.0,0.0,0.0,0.0,0.0,0.0,0.0,0.0,0.0,0.0,0.0,0.0,0.0,0.0,0.0,0.0,0.0,0.0,0.0,0.0,0.0,0.0,0.0,0.0,0.0,0.0,0.0,0.0,0.0,0.0,0.0,0.0,0.0,0.0,0.0,0.0,-1.8015,-1.797,0.0,0.0,0.0,0.0,-1.9327,-1.9633,-2.1273,-2.4746,-2.5837,-2.7881,-3.1157,-3.1487,-3.2066,-3.3034,-3.3829,-3.4236,-3.4255,-3.5146,-3.556,-3.5574,-3.5695,-3.5645,-3.5475,-3.5465,-3.4963,-3.4,-3.2299,-3.0104,-2.77,-2.658,-2.461,-2.2698,-2.4917,-2.5829,-2.6308,0.0,0.0,0.0,-0.6815,-0.7112,-0.7348,-0.7348,-0.7839,-0.8644,-0.9855,-1.3461,-1.6886,-1.9313,-2.2571,-2.5211,-2.6746,-2.5125,-2.3541,-2.2377,-1.7733,-1.5521,-1.6629,0.0,-1.427,-1.9438,-1.7917,-2.1467,0.0,0.0,0.0,0.0,0.0,0.0,0.0,0.0,0.0,0.0,0.0,0.0,0.0,0.0,0.0,0.0,0.0,0.0,0.0,0.0,0.0,0.0,0.0,0.0,0.0,0.0,0.0,0.0,0.0,0.0,0.0,0.0,0.0,0.0,0.0,0.0,0.0,0.0,0.0,0.0,0.0,0.0,0.0,0.0,0.0,0.0,0.0,0.0,0.0,0.0,0.0,0.0,-1.8468,-1.8297,0.0,0.0,-1.8796,-1.988,-2.1456,-2.2931,-2.4802,-2.7178,-2.8228,-2.9884,-3.2259,-3.3016,-3.3604,-3.4,-3.4758,-3.5146,-3.5146,-3.5433,-3.5668,-3.5831,-3.5742,-3.5698,-3.5663,-3.5631,-3.5388,-3.4949,-3.3819,-3.2154,-3.0279,-2.9612,-2.8445,-2.7207,-2.7935,-2.822,-2.8405,0.0,0.0,0.0,-0.636,-0.6718,-0.7021,-0.7085,-0.7886,-0.9223,-1.1342,-1.5324,-1.9103,-2.2122,-2.5419,-2.7942,-2.9243,-2.7713,-2.6242,-2.5207,-2.0311,-1.803,0.0,0.0,0.0,0.0,-1.9904,0.0,0.0,0.0,0.0,0.0,0.0,0.0,0.0,0.0,0.0,0.0,0.0,0.0,0.0,0.0,0.0,-1.3329,0.0,0.0,0.0,0.0,0.0,0.0,0.0,0.0,0.0,0.0,0.0,0.0,0.0,0.0,0.0,0.0,0.0,0.0,0.0,0.0,0.0,0.0,0.0,0.0,0.0,0.0,0.0,0.0,0.0,0.0,0.0,0.0,0.0,0.0,0.0,-1.8686,-1.8198,-1.8689,-1.9108,-1.9279,-2.0475,-2.1956,-2.3666,-2.5155,-2.6841,-2.882,-3.0044,-3.1642,-3.366,-3.441,-3.4972,-3.541,-3.5554,-3.5611,-3.5611,-3.555,-3.5641,-3.5831,-3.5687,-3.5663,-3.5703,-3.563,-3.5562,-3.5468,-3.4872,-3.3755,-3.2349,-3.1665,-3.0901,-3.0093,-2.9804,-2.9572,-2.9434,0.0,0.0,-0.5893,-0.5911,-0.6283,-0.6668,-0.6871,-0.8211,-1.0536,-1.4287,-1.8073,-2.1771,-2.5332,-2.861,-3.0878,-3.166,-3.038,-2.9515,-2.9405,-2.3954,-2.0512,0.0,0.0,0.0,0.0,0.0,0.0,0.0,0.0,0.0,0.0,0.0,0.0,0.0,0.0,0.0,0.0,0.0,0.0,0.0,0.0,0.0,-1.8021,0.0,0.0,0.0,0.0,0.0,0.0,0.0,0.0,0.0,0.0,0.0,0.0,0.0,0.0,0.0,0.0,0.0,0.0,0.0,0.0,0.0,0.0,0.0,0.0,0.0,0.0,0.0,0.0,0.0,0.0,0.0,0.0,0.0,-1.7342,-1.7869,-1.8024,-1.7411,-1.9328,-2.0741,-2.0841,-2.1767,-2.336,-2.5796,-2.5955,-2.7061,-2.9533,-3.1201,-3.3114,-3.5434,-3.5667,-3.6228,-3.7226,-3.6234,-3.571,-3.5649,-3.56,-3.563,-3.5703,-3.5703,-3.5703,-3.5696,-3.563,-3.5562,-3.5493,-3.5493,-3.4821,-3.3718,-3.2637,-3.1713,-3.0904,-3.0364,-2.9839,-2.9434,-0.6059,-0.5771,-0.567,-0.5874,-0.6123,-0.6451,-0.6838,-0.8085,-1.0272,-1.3903,-1.827,-2.2296,-2.5557,-2.8294,-2.9951,-3.0195,-2.9071,-2.8124,-2.7496,-2.3448,-2.1295,0.0,0.0,0.0,0.0,0.0,0.0,0.0,0.0,0.0,0.0,0.0,0.0,0.0,0.0,0.0,0.0,0.0,0.0,0.0,0.0,0.0,-1.735,0.0,0.0,0.0,0.0,0.0,0.0,0.0,0.0,0.0,0.0,0.0,0.0,0.0,0.0,0.0,0.0,0.0,0.0,0.0,0.0,0.0,0.0,0.0,0.0,0.0,0.0,0.0,0.0,0.0,0.0,0.0,0.0,-1.7144,-1.8221,-1.9382,-2.0017,-1.9824,-2.0655,-2.1466,-2.1873,-2.2905,-2.4001,-2.5062,-2.5608,-2.6826,-2.8876,-3.059,-3.2738,-3.5423,-3.6288,-3.7132,-3.7994,-3.7105,-3.662,-3.6531,-3.5847,-3.5562,-3.5621,-3.5621,-3.5621,-3.5621,-3.5601,-3.5562,-3.5493,-3.5289,-3.4805,-3.415,-3.3393,-3.1933,-3.0216,-2.9885,-2.9312,-2.8724,-0.6085,-0.5656,-0.5425,-0.5689,-0.5936,-0.6271,-0.6822,-0.8302,-1.089,-1.5199,-1.881,-2.2473,-2.6369,-2.8067,-2.9026,-2.9366,-2.8464,-2.7837,-2.7708,-2.5274,0.0,0.0,0.0,0.0,0.0,0.0,0.0,0.0,0.0,0.0,0.0,0.0,0.0,0.0,0.0,0.0,0.0,0.0,0.0,0.0,0.0,0.0,-1.9107,-1.7729,-1.5932,-1.4112,-1.3659,-1.335,-1.3275,-1.3935,0.0,0.0,0.0,0.0,0.0,0.0,0.0,0.0,0.0,0.0,0.0,0.0,0.0,0.0,0.0,0.0,0.0,0.0,0.0,0.0,0.0,0.0,0.0,0.0,-1.6538,-1.6914,-1.8111,-1.8971,-1.9784,-2.063,-2.0773,-2.1151,-2.2298,-2.3426,-2.4296,-2.4835,-2.5646,-2.689,-2.867,-3.0325,-3.258,-3.5405,-3.6534,-3.7603,-3.8673,-3.7533,-3.6945,-3.6928,-3.5849,-3.5424,-3.56,-3.5456,-3.5469,0.0,-3.5566,-3.554,-3.5479,-3.5207,-3.4868,0.0,0.0,0.0,0.0,0.0,-2.8873,-2.8219,-0.6158,-0.5623,-0.5244,-0.5465,-0.5726,-0.6123,-0.6805,-0.866,-1.1887,-1.7148,-1.9445,-2.2457,-2.73,-2.784,-2.8105,-2.8835,-2.8299,-2.8266,-2.9035,0.0,0.0,0.0,0.0,0.0,0.0,0.0,0.0,0.0,0.0,0.0,0.0,0.0,0.0,0.0,0.0,0.0,0.0,0.0,0.0,0.0,0.0,0.0,-2.1929,-2.0294,-1.8767,-1.7397,-1.6436,-1.5421,-1.455,-1.444,0.0,0.0,0.0,0.0,0.0,0.0,0.0,0.0,0.0,0.0,0.0,0.0,0.0,0.0,0.0,0.0,0.0,0.0,0.0,0.0,0.0,0.0,0.0,0.0,-1.6706,-1.6785,-1.7269,-1.7169,-1.79,-2.0133,-2.0064,-2.0466,-2.221,-2.3447,-2.4295,-2.4826,-2.5734,-2.6963,-2.8429,0.0,0.0,0.0,0.0,-3.7699,-3.9235,-3.7773,-3.7075,-3.7131,-3.5757,-3.5273,-3.5579,-3.5243,-3.5288,-3.5599,-3.5534,-3.5449,-3.5325,-3.5152,-3.4851,-3.4449,-3.367,-3.2583,-3.1231,-2.9508,-2.8435,-2.788,-0.5963,-0.5756,-0.563,-0.5517,-0.5726,-0.6123,-0.6805,-0.866,-1.1775,-1.6756,-1.9264,-2.2335,-2.6922,-2.7426,-2.7478,-2.7648,-2.8039,-2.8517,0.0,0.0,0.0,0.0,0.0,0.0,0.0,0.0,0.0,0.0,0.0,0.0,0.0,0.0,0.0,0.0,0.0,0.0,0.0,0.0,0.0,0.0,0.0,0.0,-2.2196,-2.1516,-2.0206,-1.8745,-1.8539,-1.7977,-1.7451,-1.7869,-1.6931,-1.5795,-1.6639,0.0,0.0,0.0,0.0,0.0,0.0,0.0,0.0,0.0,0.0,0.0,0.0,0.0,0.0,0.0,0.0,0.0,0.0,0.0,0.0,-1.5158,-1.5437,-1.5585,-1.5672,-1.4644,-1.5126,-1.8362,-1.9727,-2.0669,-2.1384,-2.2773,-2.3716,-2.3806,-2.4707,-2.5742,-2.6726,-2.8356,0.0,-3.3784,-3.535,-3.7219,-3.9507,-3.8481,-3.7977,-3.8013,0.0,0.0,-3.5509,-3.5239,-3.5235,-3.5509,-3.552,-3.5103,-3.4461,-3.4696,-3.4269,-3.3395,-3.2242,-3.108,-2.9839,-2.8527,-2.7769,-2.7409,-0.6246,-0.5783,-0.5549,-0.567,-0.5819,-0.6159,-0.6924,-0.8605,-1.1289,-1.5395,-1.7863,-2.0781,-2.4751,-2.4936,-2.4966,-2.551,-2.749,-2.8763,0.0,0.0,0.0,0.0,0.0,0.0,0.0,0.0,0.0,0.0,0.0,0.0,0.0,0.0,0.0,0.0,0.0,0.0,0.0,0.0,0.0,0.0,0.0,0.0,-2.3994,-2.2583,-2.1354,-2.0373,-2.0113,-1.961,-1.908,-1.876,-1.8026,-1.7218,-1.7197,-1.622,-1.4863,0.0,0.0,0.0,0.0,0.0,0.0,0.0,0.0,0.0,0.0,0.0,0.0,0.0,0.0,-1.2427,0.0,0.0,-1.4018,-1.4889,-1.4515,-1.415,-1.4114,-1.3605,-1.4303,-1.7267,-1.8274,-1.9151,-2.0294,-2.1827,-2.2776,-2.2776,-2.3672,-2.4672,-2.5578,-2.6848,-2.8951,-3.204,-3.4084,-3.6295,-3.8778,-3.8235,-3.8056,-3.8227,-3.6138,-3.5273,-3.5493,-3.5223,-3.5258,-3.5493,-3.5493,-3.5007,-3.4153,-3.3654,-3.253,-3.1088,-3.0876,-3.0149,-2.9024,-2.7255,-2.6434,-2.618,-0.6557,-0.5815,-0.5446,-0.5821,-0.5911,-0.6195,-0.7018,-0.8496,-1.0668,-1.3901,-1.6168,-1.8761,-2.2053,-2.1989,-2.2213,-2.3575,-2.6313,0.0,0.0,0.0,0.0,0.0,0.0,0.0,0.0,0.0,0.0,0.0,0.0,0.0,0.0,0.0,0.0,0.0,0.0,0.0,0.0,0.0,0.0,0.0,0.0,0.0,-2.5914,-2.3771,-2.2652,-2.2124,-2.1701,-2.1109,-2.0316,-1.925,-1.8723,-1.8336,-1.7148,-1.6888,-1.6668,-1.5034,-1.5064,0.0,0.0,0.0,0.0,0.0,0.0,0.0,0.0,0.0,-1.5211,-1.5465,-1.4375,-1.388,-1.5526,-1.4467,-1.3662,-1.4685,-1.3691,-1.2696,-1.2581,-1.2696,-1.3621,-1.5701,-1.6333,-1.7162,-1.8826,-2.0232,-2.1171,-2.142,-2.2307,-2.343,-2.4636,-2.5566,-2.7433,-3.0554,-3.2773,-3.5087,-3.7488,-3.7355,-3.7473,-3.7854,-3.5868,-3.5105,-3.5398,-3.5138,-3.5174,-3.5393,-3.4941,-3.4216,-3.3245,-3.1986,-3.0557,-2.9205,-2.9496,-2.9088,-2.8129,-2.6366,-2.5513,-2.5128,-0.6507,-0.6041,-0.5767,-0.5884,-0.5911,-0.6135,-0.6828,-0.8199,-1.0191,-1.3075,-1.4968,-1.7039,-1.9686,-1.9924,-2.0805,-2.3085,0.0,0.0,0.0,0.0,0.0,0.0,0.0,0.0,0.0,0.0,0.0,0.0,0.0,0.0,0.0,0.0,0.0,0.0,0.0,0.0,0.0,0.0,0.0,0.0,0.0,0.0,-2.6488,-2.5336,-2.4461,-2.3921,-2.3836,-2.3039,-2.1857,-2.1178,-2.0302,-1.9256,-1.8163,-1.7572,-1.737,-1.8115,0.0,-1.6535,-1.7656,0.0,0.0,-1.8242,-1.9422,-2.0327,0.0,0.0,-1.81,-1.6877,-1.6577,-1.6339,-1.545,-1.5164,-1.4627,-1.3459,-1.2504,-1.1655,-1.0989,-1.0898,-1.13,-1.2368,-1.4425,-1.5955,-1.6539,-1.7308,-1.8212,-1.9265,-2.0227,-2.1587,-2.3588,-2.4624,-2.6633,-2.9966,-3.1685,-3.3547,-3.5752,-3.5752,-3.6063,-3.6671,-3.4825,-3.4375,-3.5138,-3.487,-3.4889,-3.504,-3.3004,-3.1393,-3.0122,-2.9204,-2.9208,-2.9653,-2.8065,-2.6979,-2.6373,-2.6776,-2.6178,-2.5182,-0.6881,-0.6604,-0.644,-0.6423,-0.6387,-0.6598,-0.7312,-0.8538,-0.9862,-1.1205,-1.2927,-1.4641,-1.6216,-1.6631,-1.7334,-1.8676,-2.0481,0.0,0.0,0.0,0.0,0.0,0.0,0.0,0.0,0.0,0.0,0.0,0.0,0.0,0.0,0.0,0.0,0.0,0.0,0.0,0.0,0.0,0.0,0.0,0.0,0.0,-2.6967,-2.6326,-2.5939,-2.5724,-2.5281,-2.418,0.0,0.0,-2.16,-2.0573,-1.9251,-1.8387,-1.8067,-1.9059,-1.9481,0.0,-2.1956,0.0,0.0,0.0,-2.2359,-2.2746,-2.2593,-2.1481,-2.0289,-1.9487,-1.8372,-1.7201,-1.6159,-1.5221,-1.4473,0.0,-1.3,-1.2205,-1.1413,-1.1825,-1.2213,-1.2097,-1.3731,-1.5017,-1.5325,-1.6757,-1.7976,-1.8674,-1.9602,-2.1135,-2.3356,-2.3891,-2.5517,-2.8575,-3.0398,-3.2008,-3.3408,-3.4263,-3.4756,-3.4917,-3.3872,-3.3545,-3.3806,-3.3584,-3.3197,-3.2629,-3.1207,-2.9718,-2.8242,-2.7568,-2.7361,-2.7405,-2.6806,-2.5899,-2.4909,-2.4565,-2.3897,-2.3127,-0.7178,-0.7117,-0.7097,-0.7038,-0.6996,-0.7131,-0.7683,-0.8559,-0.9294,-0.9662,-1.1009,-1.2248,-1.3107,-1.3875,-1.4502,-1.5009,-1.7551,-2.0314,0.0,0.0,0.0,0.0,0.0,0.0,0.0,0.0,0.0,0.0,0.0,0.0,0.0,0.0,0.0,0.0,0.0,0.0,0.0,0.0,0.0,0.0,0.0,0.0,-2.7103,-2.6851,-2.6415,-2.5882,-2.5575,-2.4613,0.0,0.0,-2.1906,-2.1075,-1.9594,-1.8826,-1.8749,-2.0112,-2.157,-2.2999,-2.4263,0.0,0.0,-2.4375,-2.4514,-2.457,-2.4743,-2.3341,-2.1904,-2.1569,-1.9946,-1.8307,-1.728,-1.6032,0.0,-1.4591,-1.3819,-1.3045,-1.2258,-1.2789,-1.317,-1.2853,-1.3704,-1.4566,-1.5138,-1.6416,-1.7543,-1.8248,-1.9108,-2.0642,-2.2945,-2.3327,-2.4644,-2.7183,-2.903,-3.0454,-3.1321,-3.2541,-3.3272,-3.3502,-3.2904,-3.2663,-3.2793,-3.2565,-3.1726,-3.0415,-2.9784,-2.8547,-2.6899,-2.6316,-2.5976,-2.5811,-2.5976,-2.5379,-2.4284,-2.3154,-2.2295,-2.1663,-0.7178,-0.7409,-0.765,-0.7592,-0.7582,-0.7614,-0.7701,-0.7912,-0.828,-0.8937,-0.9414,-0.9995,-1.0813,-1.2259,-1.3285,-1.3643,-1.5645,-1.8676,-2.2838,-2.6832,0.0,0.0,0.0,0.0,0.0,0.0,0.0,0.0,0.0,0.0,0.0,0.0,0.0,0.0,0.0,0.0,0.0,0.0,0.0,0.0,0.0,0.0,-2.6737,-2.6851,-2.5492,-2.3596,-2.4306,0.0,0.0,0.0,-2.0739,-2.0192,-1.8853,-1.868,0.0,-2.1885,-2.3631,0.0,0.0,0.0,-2.5045,-2.5069,-2.5462,-2.5746,-2.5347,-2.4123,-2.2949,-2.2527,-2.1519,-2.0307,-1.8915,-1.7935,-1.6949,-1.5524,-1.4585,-1.3835,-1.3061,-1.3017,-1.3369,-1.4338,-1.4462,-1.4925,0.0,-1.5722,-1.6095,-1.7617,-1.8561,-1.991,-2.1943,-2.2842,-2.4173,-2.606,-2.7537,-2.8801,-2.9952,-3.0529,-3.1456,-3.2705,-3.1782,-3.1764,-3.2515,-3.2313,-3.1066,-2.9048,-2.8898,-2.7785,-2.5982,-2.5329,-2.5405,-2.5962,-2.5798,-2.5416,-2.4837,-2.3716,-2.2613,-2.1697,-0.752,-0.7595,-0.7679,-0.7669,-0.7669,-0.7759,-0.8042,-0.8342,-0.8477,-0.8352,-0.9043,0.0,0.0,0.0,0.0,0.0,-1.4539,-1.736,-2.2269,-2.5649,0.0,0.0,0.0,0.0,0.0,0.0,0.0,0.0,0.0,0.0,0.0,0.0,0.0,0.0,0.0,0.0,0.0,0.0,0.0,0.0,0.0,0.0,-2.6735,-2.768,-2.6569,-2.4496,0.0,0.0,0.0,0.0,0.0,0.0,-2.038,-1.9869,-2.0039,-2.2253,-2.3691,0.0,0.0,0.0,-2.6678,-2.6688,-2.7059,-2.7197,-2.6304,-2.492,-2.36,-2.2658,-2.1856,-2.0806,-1.9032,-1.8761,-1.8405,-1.7062,-1.6579,-1.6134,-1.5359,-1.5716,-1.5995,-1.576,-1.6253,0.0,0.0,0.0,0.0,-1.8468,-1.9754,-2.1191,-2.2773,-2.3144,-2.3886,-2.5167,-2.6199,-2.7032,-2.7652,-2.8425,-2.9369,-3.0446,-3.062,-3.0757,-3.0837,-3.0629,-2.9758,-2.8398,-2.8353,-2.7761,-2.6717,-2.5747,-2.593,-2.6772,-2.5828,-2.4789,-2.384,-2.345,-2.2087,-2.0421,-0.7971,-0.811,-0.817,-0.8162,-0.8153,0.0,0.0,0.0,0.0,0.0,0.0,0.0,0.0,0.0,0.0,0.0,0.0,-1.5374,-1.9687,0.0,0.0,0.0,0.0,0.0,0.0,0.0,0.0,0.0,0.0,0.0,0.0,0.0,0.0,0.0,0.0,0.0,0.0,0.0,0.0,0.0,0.0,0.0,-2.6825,-2.6836,-2.5459,0.0,0.0,0.0,0.0,0.0,0.0,0.0,-2.0165,-2.0591,-2.1503,-2.2215,-2.3745,0.0,0.0,-2.714,-2.7481,-2.788,-2.8039,-2.7877,-2.6977,-2.5582,-2.4139,-2.319,-2.2411,-2.1419,-1.9865,-1.9919,-1.9867,-1.8731,-1.8523,-1.8219,-1.729,-1.7623,-1.7757,-1.7258,-1.7709,0.0,0.0,0.0,0.0,-1.8998,-2.0339,-2.1369,-2.1962,-2.2497,-2.2941,-2.3289,-2.4348,-2.505,-2.527,-2.6529,-2.776,-2.8983,-2.9848,-3.0182,-2.9999,-2.978,-2.9324,-2.8652,-2.8334,-2.8045,-2.7691,-2.6642,-2.6729,-2.7405,-2.629,-2.5004,-2.3641,-2.3118,-2.136,-1.93,-0.8502,-0.8847,-0.9046,0.0,0.0,0.0,0.0,0.0,0.0,0.0,0.0,0.0,0.0,0.0,0.0,0.0,0.0,0.0,0.0,0.0,0.0,0.0,0.0,0.0,0.0,0.0,0.0,0.0,0.0,0.0,0.0,0.0,0.0,0.0,0.0,0.0,0.0,0.0,0.0,0.0,0.0,0.0,-2.6632,-2.4542,0.0,0.0,0.0,0.0,0.0,0.0,0.0,0.0,0.0,-2.075,-2.3505,-2.1959,-2.3954,-2.6627,-2.6333,-2.6783,-2.758,-2.8562,-2.8373,-2.7805,-2.7326,-2.5981,-2.4636,-2.3979,-2.3155,-2.2238,0.0,0.0,-2.1261,-2.042,-2.0207,-1.9824,-1.8799,-1.8591,-1.8621,0.0,0.0,0.0,0.0,0.0,0.0,-1.9056,0.0,-2.067,-1.98,-2.1086,-2.1428,-2.0655,-2.2103,-2.2929,-2.2957,-2.4861,-2.664,-2.8288,-2.9415,-2.9965,-2.9965,-2.978,-2.9713,-2.9657,-2.8846,-2.8619,-2.8793,-2.7921,-2.7727,-2.7879,-2.7091,-2.5824,-2.4227,-2.264,-2.0385,-1.8306,0.0,0.0,0.0,0.0,0.0,0.0,0.0,0.0,0.0,0.0,0.0,0.0,0.0,0.0,0.0,0.0,0.0,0.0,0.0,0.0,0.0,0.0,0.0,0.0,0.0,0.0,0.0,0.0,0.0,0.0,0.0,0.0,0.0,0.0,0.0,0.0,0.0,0.0,0.0,0.0,0.0,0.0,-2.2372,0.0,0.0,0.0,0.0,0.0,0.0,0.0,0.0,0.0,0.0,-2.05,-2.1525,-2.2585,0.0,-2.6556,-2.6919,-2.821,-2.9317,-2.891,-2.868,-2.8175,-2.6615,-2.5547,-2.4595,-2.3588,-2.2995,-2.2321,0.0,0.0,0.0,-2.0035,-2.0085,0.0,-1.9597,-1.9469,0.0,0.0,0.0,-1.9527,-1.9527,-2.0345,0.0,0.0,-2.0747,-2.1292,-2.04,-2.0715,-2.0846,-2.059,-2.1014,-2.157,-2.2299,-2.4807,-2.6184,-2.6571,-2.8437,-2.9437,-2.9628,-2.9674,-2.978,-2.9905,-2.9696,-2.9631,-2.9618,-2.8798,-2.8593,-2.8565,-2.6454,-2.4663,-2.2979,-2.077,-1.8231,-1.6026,0.0,0.0,0.0,0.0,0.0,0.0,0.0,0.0,0.0,0.0,0.0,0.0,0.0,0.0,0.0,0.0,0.0,0.0,0.0,0.0,0.0,0.0,0.0,0.0,0.0,0.0,0.0,0.0,0.0,0.0,0.0,0.0,0.0,0.0,0.0,0.0,0.0,0.0,0.0,0.0,0.0,0.0,0.0,0.0,0.0,0.0,0.0,0.0,0.0,0.0,0.0,-1.9037,-1.9683,-2.0282,-2.1057,-2.2659,0.0,-2.6821,-2.734,-2.8812,-3.0085,-2.9585,-2.8986,-2.8201,-2.7071,-2.5876,-2.4686,-2.3649,-2.3137,0.0,0.0,0.0,0.0,0.0,0.0,0.0,-2.0286,-1.9997,-1.9798,0.0,-1.9798,0.0,-1.9371,-2.003,-1.9969,0.0,-2.0461,-2.0807,-1.9125,-1.9251,-1.9017,-1.8285,-1.882,-1.9879,-2.1375,-2.3345,-2.4729,-2.5614,-2.7645,-2.8857,-2.9326,-2.9495,-2.9731,-2.9999,0.0,-2.9988,-3.0112,-2.9478,-2.9151,-2.888,-2.6518,-2.4223,-2.196,-1.9574,-1.7035,-1.4772,0.0,0.0,0.0,0.0,0.0,0.0,0.0,0.0,0.0,0.0,0.0,0.0,0.0,0.0,0.0,0.0,0.0,0.0,0.0,0.0,0.0,0.0,0.0,0.0,0.0,0.0,0.0,0.0,0.0,0.0,0.0,0.0,0.0,0.0,0.0,0.0,0.0,0.0,0.0,0.0,0.0,0.0,0.0,0.0,0.0,0.0,0.0,0.0,0.0,0.0,-1.6442,-1.8013,-1.8944,-2.01,-2.1317,-2.2443,-2.4723,-2.6977,-2.744,-2.8804,-3.0076,-3.0062,-2.9062,-2.8023,-2.7727,-2.6288,-2.4766,-2.3863,0.0,0.0,-2.1189,0.0,-2.172,-2.1022,0.0,-2.0775,-2.0495,-1.9902,-1.9531,-1.9583,-1.9542,-1.9319,-1.8768,-1.9495,-1.9365,-1.7819,-1.952,-1.9503,-1.7062,-1.7331,-1.683,-1.5371,-1.6448,-1.8076,-2.0163,-2.1254,-2.2805,-2.4843,-2.6782,-2.8087,-2.8876,-2.918,-2.9533,-2.9954,0.0,0.0,-3.0209,-2.9815,-2.9307,-2.8552,-2.6628,-2.3961,-2.0924,-1.8432,-1.5904,-1.364,0.0,0.0,0.0,0.0,0.0,0.0,0.0,0.0,0.0,0.0,-0.5417,-0.4734,0.0,0.0,0.0,0.0,0.0,0.0,0.0,0.0,0.0,0.0,0.0,0.0,0.0,0.0,0.0,0.0,0.0,0.0,0.0,0.0,0.0,0.0,0.0,0.0,0.0,0.0,0.0,0.0,0.0,0.0,0.0,0.0,0.0,0.0,0.0,0.0,0.0,0.0,-1.6732,-1.8762,-1.9214,-1.9913,-2.0812,-2.2223,-2.4096,-2.5876,-2.672,-2.8184,-2.935,-2.8925,-2.8449,-2.7709,-2.6186,-2.5157,0.0,0.0,0.0,-2.1261,-2.0897,0.0,0.0,-1.9591,0.0,0.0,0.0,0.0,-1.8277,0.0,0.0,0.0,0.0,0.0,0.0,0.0,0.0,-1.7965,-1.6757,-1.6018,-1.5705,-1.581,-1.6088,-1.6997,-1.8646,-2.0042,-2.1486,-2.2978,-2.5033,-2.6616,-2.7718,-2.8523,-2.9223,-2.9746,-2.9713,0.0,-2.9326,-2.9418,-2.8471,-2.6812,-2.5294,-2.2431,-1.8843,-1.5787,-1.3118,-1.1052,0.0,0.0,0.0,0.0,0.0,0.0,0.0,-0.9829,-0.9265,-0.8805,-0.674,-0.4734,-0.3221,-0.1899,-0.1104,0.0,0.0,0.0,0.0,0.0,0.0,0.0,0.0,0.0,0.0,0.0,0.0,0.0,0.0,0.0,0.0,0.0,0.0,0.0,0.0,0.0,0.0,0.0,0.0,0.0,0.0,0.0,0.0,0.0,0.0,0.0,0.0,0.0,0.0,0.0,-1.5305,-1.7597,-1.7992,-1.8426,-1.9095,-2.0628,-2.2056,-2.333,-2.4338,-2.5762,-2.6928,-2.6862,-2.6743,-2.623,-2.4701,0.0,0.0,0.0,0.0,0.0,-2.0184,0.0,0.0,0.0,0.0,0.0,0.0,0.0,0.0,0.0,0.0,0.0,0.0,0.0,0.0,0.0,0.0,-1.6816,-1.5993,-1.501,-1.4765,-1.5248,-1.569,-1.6563,-1.7935,-1.9359,-2.0744,-2.2052,-2.4177,-2.5622,-2.6507,-2.7951,-2.8833,-2.9243,-2.9243,0.0,-2.9094,-2.8872,-2.8095,-2.6894,-2.4915,-2.2146,-1.8992,-1.6318,-1.2704,-0.8764,0.0,0.0,0.0,0.0,0.0,0.0,0.0,-1.3961,-1.3005,-1.1655,-0.8724,-0.5542,-0.2455,-0.1376,-0.0864,0.0,0.0,0.0,0.0,0.0,0.0,0.0,0.0,0.0,0.0,0.0,0.0,0.0,0.0,0.0,0.0,0.0,0.0,0.0,0.0,0.0,0.0,0.0,0.0,0.0,0.0,0.0,0.0,0.0,0.0,0.0,0.0,0.0,0.0,0.0,-1.3611,-1.541,-1.6214,-1.675,-1.7454,-1.9011,-1.9976,-2.0824,-2.2112,-2.3407,-2.4421,-2.4679,-2.4709,-2.4301,-2.2883,-2.2315,0.0,0.0,0.0,0.0,0.0,0.0,0.0,0.0,0.0,0.0,0.0,0.0,0.0,0.0,0.0,0.0,0.0,0.0,0.0,0.0,0.0,0.0,-1.5045,-1.4204,-1.4157,-1.4914,-1.5457,-1.6348,-1.7852,-1.8943,-2.0142,-2.1438,-2.3248,-2.453,-2.5314,-2.6895,-2.7843,-2.8261,-2.8261,0.0,0.0,-2.7745,-2.7075,-2.6132,-2.4248,-2.1609,-1.8585,-1.5941,-1.1097,-0.5301,0.0,0.0,0.0,0.0,0.0,0.0,0.0,-1.8909,-1.7902,-1.2707,-1.0091,-0.7027,-0.2561,-0.1264,-0.071,0.0,0.0,0.0,0.0,0.0,0.0,0.0,0.0,0.0,0.0,0.0,0.0,0.0,0.0,0.0,0.0,0.0,0.0,0.0,0.0,0.0,0.0,0.0,0.0,0.0,0.0,0.0,0.0,0.0,0.0,0.0,0.0,0.0,0.0,0.0,0.0,-1.2198,-1.4325,-1.5723,-1.6835,-1.8291,0.0,0.0,-2.1508,-2.2521,-2.2994,-2.2959,-2.2794,-2.2168,-2.0289,0.0,0.0,0.0,0.0,-1.9065,0.0,0.0,0.0,0.0,0.0,0.0,0.0,0.0,0.0,0.0,0.0,0.0,0.0,0.0,0.0,0.0,0.0,0.0,-1.4049,-1.3639,-1.4113,-1.5645,-1.5449,-1.6363,-1.8555,-1.8715,-1.949,-2.0881,-2.1566,-2.2703,-2.4153,-2.4836,-2.5638,-2.6531,-2.6531,0.0,0.0,-2.5541,-2.4263,-2.2167,-2.2233,-1.9566,-1.5123,-1.0907,-0.5058,0.1074,0.0,0.0,0.0,0.0,0.0,0.0,-1.533,-1.775,-1.855,-1.688,-1.4374,-1.0639,-0.5061,-0.1947,-0.0257,-0.0281,0.0,0.0,0.0,0.0,0.0,0.0,0.0,0.0,0.0,0.0,0.0,0.0,0.0,0.0,0.0,0.0,0.0,0.0,0.0,0.0,0.0,0.0,0.0,0.0,0.0,0.0,0.0,0.0,0.0,0.0,0.0,0.0,0.0,0.0,0.0,0.0,-1.253,-1.3548,0.0,0.0,-1.7132,-1.7406,-1.8625,-1.8812,-1.8811,-1.9271,-1.9441,-1.8962,-1.689,0.0,0.0,-1.6255,-1.3774,-1.2817,-1.6126,0.0,0.0,0.0,0.0,0.0,0.0,0.0,0.0,0.0,0.0,0.0,0.0,0.0,0.0,0.0,0.0,0.0,-1.4108,-1.4805,-1.5546,-1.6201,-1.6955,-1.7795,-1.8715,-1.915,-1.9631,-2.0194,-2.1519,-2.2283,-2.2629,-2.4098,-2.4804,-2.482,-2.4459,0.0,0.0,-2.2907,-2.2139,-2.1451,-2.0905,-1.7314,-1.1847,-0.7244,-0.201,0.3292,0.0,0.0,0.0,0.0,0.0,-1.0145,-1.3045,-1.5377,-1.7201,-1.828,-1.6393,-1.2498,-0.6,-0.2733,-0.0765,-0.0044,0.0,0.0,0.0,0.0,0.0,0.0,0.0,0.0,0.0,0.0,0.0,0.0,0.0,0.0,0.0,0.0,0.0,0.0,0.0,0.0,0.0,0.0,0.0,0.0,0.0,0.0,0.0,0.0,0.0,0.0,0.0,0.0,0.0,0.0,0.0,0.0,0.0,0.0,0.0,0.0,-1.5506,-1.5571,-1.6247,-1.5889,-1.5461,-1.6269,-1.6303,-1.5633,0.0,0.0,0.0,-1.1777,-0.8558,-0.7202,-1.0969,-0.7014,-0.3108,0.0,0.0,0.0,0.0,0.0,0.0,0.0,0.0,0.0,0.0,0.0,0.0,0.0,0.0,0.0,0.0,-1.6536,-1.7401,-1.681,-1.8058,-1.8821,-1.9032,-1.9527,-1.9798,-1.9798,-2.1102,-2.1566,-2.1404,-2.2935,-2.3421,-2.2972,0.0,0.0,0.0,-1.9656,-1.9024,-1.8806,-1.7424,-1.3684,-0.844,-0.3429,0.1191,0.5651,0.0,0.0,0.0,0.0,0.0,0.0,-1.1165,-1.2683,-1.3922,-1.5336,-1.486,-1.1652,-0.4319,-0.3475,-0.2536,-0.0212,0.0,0.0,0.0,0.0,0.0,0.0,0.0,0.0,0.0,0.0,0.0,0.0,0.0141,0.0,0.0,0.0,0.0,0.0,0.0,0.0,0.0,0.0,0.0,0.0,0.0,0.0,0.0,0.0,0.0,0.0,0.0,0.0,0.0,0.0,0.0,0.0,0.0,-1.1402,-1.146,0.0,-1.4283,-1.4211,-1.5084,-1.4493,-1.38,-1.4624,-1.3753,-1.232,0.0,0.0,0.0,-0.5985,-0.4805,-0.3467,-0.1604,-0.0865,0.0778,0.4804,0.0,0.0,0.0,0.0,0.0,0.0,0.0,0.0,0.0,0.0,0.0,0.0,0.0,0.0,0.0,-1.8598,-1.956,-1.7622,-1.8328,-1.9044,-1.9798,-1.9798,-1.9798,-1.9798,-1.9798,-2.0144,-2.0795,-2.0845,-2.0852,0.0,0.0,0.0,0.0,-1.5811,-1.4491,-1.306,-1.086,-0.8159,-0.4867,0.0751,0.5247,0.9118,0.0,0.0,0.0,0.0,0.0,0.0,0.0,-1.1582,-1.3343,-1.4048,-0.9967,-0.7666,-0.9465,-0.5266,-0.1519,0.0462,0.0237,0.0,0.0,0.0,0.0,0.0,0.0,0.0,0.0,0.0,0.1308,0.152,0.2557,0.3147,0.3275,0.0,0.0,0.0,0.0,0.0,0.0,0.0,0.0,0.0,0.0,0.0,0.0,0.0,0.0,0.0,0.0,0.0,0.0,0.0,0.0,0.0,0.0,0.0,0.0,-1.064,-1.2093,-1.3451,-1.3137,-1.2595,-1.2023,-1.1734,-1.0731,-0.9248,-0.6876,0.0,0.0,-0.1114,0.2744,0.5444,0.5053,0.9505,1.3752,1.5312,1.4841,0.0,0.0,0.0,0.0,0.0,0.0,0.0,0.0,0.0,0.0,0.0,0.0,0.0,0.0,-2.0685,-2.1226,-1.9623,-2.107,-2.1985,-2.2195,-2.1397,-2.1019,-2.1019,-2.0657,-2.0346,-2.0093,-1.9759,0.0,0.0,0.0,0.0,0.0,-1.382,-1.309,-1.1858,-0.5584,-0.2385,-0.0389,0.7598,1.0767,1.1455,0.0,0.0,0.0,0.0,0.0,0.0,0.0,-0.9391,-1.0959,-1.1319,-0.7942,-0.6799,-1.0105,-0.6453,-0.2409,0.0925,0.1123,0.0,0.0,0.0,0.0,0.0,0.0,0.0,0.0,0.1647,0.1661,0.2279,0.3213,0.3925,0.4364,0.5306,0.5993,0.6401,0.0,0.0,0.0,0.0,0.0,0.0,0.0,0.0,-0.4318,0.0,0.0,0.0,0.0,0.0,0.0,0.0,0.0,0.0,0.0,0.0,0.0,0.0,-0.93,-1.0606,-1.0633,-0.9973,-0.9207,-0.8683,-0.7283,0.0,0.0,0.0,0.0,0.0,0.817,1.1201,1.0939,1.5215,1.9063,1.9934,1.9558,0.0,0.0,0.0,0.0,0.0,0.0,0.0,0.0,0.0,0.0,0.0,0.0,0.0,0.0,-2.3065,-2.3769,-2.2885,-2.3639,-2.3901,-2.367,-2.2951,-2.2232,-2.16,-2.1239,-2.044,-1.9115,-1.827,0.0,0.0,0.0,0.0,0.0,-1.0218,-0.8935,-0.7419,-0.1174,0.1888,0.3661,1.0831,1.3438,1.3721,0.0,0.0,0.0,0.0,0.0,0.0,0.0,-0.6263,-0.7104,-0.7425,-0.7837,-0.7679,-0.6595,-0.6466,-0.4226,0.1404,0.0,0.0,0.0,0.0,0.0,0.0,0.0,0.0,0.0,0.1506,0.1378,0.2528,0.265,0.337,0.4647,0.5946,0.6728,0.7022,0.7032,0.5792,0.3456,0.0,0.0,0.0,0.0,-0.3673,0.0,0.0,0.0,0.0,0.0,0.0,0.0,0.0,0.0,0.0,0.0,0.0,0.0,0.0,0.0,0.0,0.0,-0.6823,-0.5678,-0.5453,-0.3482,-0.1158,0.0,0.0,0.0,0.0,0.0,0.0,1.6036,1.7027,1.8182,2.0026,0.0,0.0,0.0,0.0,0.0,0.0,0.0,0.0,0.0,0.0,0.0,0.0,0.0,0.0,0.0,-2.5612,-2.6996,-2.701,-2.6067,-2.5242,-2.463,-2.4411,-2.352,-2.1889,-2.1625,-2.0294,-1.7996,-1.6436,0.0,0.0,0.0,0.0,0.0,-0.5592,-0.2945,-0.0766,0.2514,0.4976,0.7212,1.1172,1.3855,1.5755,0.0,0.0,0.0,0.0,0.0,0.0,0.0,0.0,0.0,0.0,-0.306,-0.1595,-0.0425,-0.1092,-0.0399,0.0,0.0,0.0,0.0,0.0,0.0,0.0,0.0,0.0,0.0,0.2696,0.2592,0.3635,0.4307,0.4732,0.505,0.7123,0.7812,0.7358,0.7374,0.5828,0.3121,0.13,0.0,0.0,-0.2523,-0.2846,0.0,0.0,0.0,0.0,-0.2357,-0.2329,0.0,0.0,0.0,0.0,0.0,0.0,0.0,0.0,-0.2599,-0.2258,-0.2135,0.0,-0.3922,-0.2003,-0.0482,0.1265,0.0,0.0,0.0,0.0,0.0,0.0,0.0,0.0,0.0,0.0,0.0,0.0,0.0,0.0,0.0,0.0,0.0,0.0,0.0,0.0,0.0,0.0,0.0,0.0,0.0,-2.7959,-2.8899,-2.8937,-2.9049,-2.8608,-2.7608,-2.6244,-2.533,-2.4847,-2.173,-1.9365,-1.769,-1.4694,0.0,0.0,0.0,0.0,-0.4374,-0.317,-0.0876,0.2356,0.677,0.9249,1.0659,1.3672,1.5068,1.5799,0.0,0.0,0.0,0.0,0.0,0.0,0.0,0.0,0.0,0.0,0.0,0.0,0.0,0.0,0.0,0.0,0.0,0.0,0.0,0.0,0.0,0.0,0.0,0.0,0.4599,0.3412,0.3097,0.3789,0.4426,0.473,0.4757,0.6828,0.7754,0.7524,0.6514,0.5033,0.3161,0.1335,-0.0165,-0.1422,-0.1901,0.0,0.0,0.0,0.0,0.0,-0.1697,-0.144,0.0,-0.1508,-0.139,-0.1133,0.0,0.0,0.0,0.0,-0.0402,0.0362,0.0954,0.0098,-0.0523,0.1551,0.3017,0.4654,0.7445,0.0,0.0,0.0,0.0,0.0,0.0,0.0,0.0,0.0,0.0,0.0,0.0,0.0,0.0,0.0,0.0,0.0,0.0,0.0,0.0,0.0,0.0,0.0,0.0,-2.9281,-2.9777,-2.9873,-3.0214,-2.9962,-2.9072,-2.7846,-2.6402,-2.4712,-2.191,-1.8865,-1.565,-1.3467,-1.1063,0.0,0.0,0.0,-0.0706,0.1364,0.3291,0.5291,0.8277,1.0162,1.1477,1.4337,1.5782,1.6608,0.0,0.0,0.0,0.0,0.0,0.0,0.0,0.0,0.0,0.0,0.0,0.0,0.0,0.0,0.0,0.0,0.0,0.0,0.0,0.0,0.0,0.0,0.0,0.3983,0.5289,0.3855,0.3342,0.3795,0.3803,0.3833,0.3987,0.5874,0.7149,0.7706,0.5659,0.4264,0.3386,0.1325,-0.0086,-0.0937,-0.1334,0.0,0.0,0.0,0.0,0.0,0.0,0.0,0.0,-0.0858,-0.0562,0.0058,-0.0716,0.0,0.0,0.0,0.0,0.0,0.3099,0.3194,0.3377,0.4699,0.6061,0.7781,1.0115,0.0,0.0,0.0,0.0,0.0,0.0,0.0,0.0,0.0,0.0,0.0,0.0,0.0,0.0,0.0,0.0,0.0,0.0,0.0,0.0,0.0,0.0,0.0,0.0,-2.9884,-2.9945,-2.9913,-3.0105,-2.9838,-2.9013,-2.8685,-2.6844,-2.3468,-2.1738,-1.8393,-1.3738,-1.1843,-0.819,-0.3086,0.0,0.0,0.2577,0.6136,0.7614,0.7705,0.8633,0.9819,1.1416,1.4597,1.6413,1.7678,0.0,0.0,0.0,0.0,0.0,0.0,0.0,0.0,0.0,0.0,0.0,0.0,0.0,0.0,0.0,0.0,0.0,0.0,0.0,0.0,0.0,0.0,0.0,0.0,0.6175,0.4281,0.3863,0.4999,0.3481,0.274,0.2786,0.5228,0.6982,0.8096,0.6838,0.5234,0.3393,0.2117,0.0621,-0.0895,-0.0977,0.0,0.0,0.0,0.0,0.0,0.0,0.0,0.0,-0.0146,0.0307,0.0907,0.0648,0.0,0.0,0.0,0.0,0.0,0.5775,0.5987,0.5944,0.5994,0.6896,0.8101,0.9366,0.0,0.0,0.0,0.0,0.0,0.0,0.0,0.0,0.0,0.0,0.0,0.0,0.0,0.0,0.0,0.0,0.0,0.0,0.0,0.0,0.0,0.0,0.0,0.0,-2.9677,-2.9449,-2.8618,-2.8848,-2.8106,-2.6314,-2.7271,-2.649,-2.3849,-2.0079,-1.7303,-1.5283,-0.7986,-0.254,0.1314,0.0,0.4908,0.6593,0.7925,0.85,0.8633,0.9906,1.1262,1.2898,1.6434,1.7863,1.8365,0.0,0.0,0.0,0.0,0.0,0.0,0.0,0.0,0.0,0.0,0.0,0.0,0.0,0.0,0.0,0.0,0.0,0.0,0.0,0.0,0.0,0.0,0.0,0.0,0.0,0.5335,0.471,0.4824,0.3811,0.2881,0.2048,0.4602,0.63,0.7192,0.6442,0.5311,0.3883,0.2443,0.1116,0.0045,0.0,0.0,0.0,0.0,0.0,0.0,0.0,0.0,0.0,0.0,0.0465,0.1132,0.1305,0.0,0.0,0.0,0.0,0.0,0.6287,0.6396,0.6101,0.4853,0.6187,0.8069,0.0,0.0,0.0,0.0,0.0,0.0,0.0,0.0,0.0,0.0,0.0,0.0,0.0,0.0,0.0,0.0,0.0,0.0,0.0,0.0,0.0,0.0,0.0,0.0,0.0,0.0,-2.8994,-2.831,-2.7537,-2.6188,-2.4262,-2.3565,-2.2392,-2.0785,-1.9065,-1.5611,-1.0516,-0.5071,-0.0425,0.349,0.0,0.7927,0.8705,0.9517,0.9814,0.9967,1.1288,1.2598,1.4179,1.7791,1.9752,2.0739,0.0,0.0,0.0,0.0,0.0,0.0,0.0,0.0,0.0,0.0,0.0,0.0,0.0,0.0,0.0,0.0,0.0,0.0,0.0,0.0,0.0,0.0,0.0,0.0,0.0,0.5911,0.4976,0.4132,0.3303,0.2252,0.126,0.3879,0.5434,0.5904,0.576,0.5139,0.4065,0.249,0.1474,0.0851,0.0,0.0,0.0,0.0,0.0,0.0,0.0,0.0,0.0,0.0,0.0,0.0,0.0,0.0,0.0,0.4688,0.5683,0.6699,0.6624,0.6236,0.5424,0.3454,0.475,0.0,0.0,0.0,0.0,0.0,0.0,0.0,0.0,0.0,0.0,0.0,0.0,0.0,0.0,0.0,0.0,0.0,0.0,0.0,0.0,0.0,0.0,0.0,0.0,0.0,-2.9406,-2.9032,-2.8439,-2.7595,-2.5934,-2.4081,-2.2141,-2.0127,-1.8812,-1.8163,-1.6966,-1.2502,-0.5118,-0.1788,0.2121,0.6428,0.9644,1.0877,1.0643,1.1394,1.1716,1.1948,1.3135,1.4516,1.6157,1.9065,2.1241,2.2649,0.0,0.0,0.0,0.0,0.0,0.0,0.0,0.0,0.0,0.0,0.0,0.0,0.0,0.0,0.0,0.0,0.0,0.0,0.0,0.0,0.0,0.0,0.0,0.0,0.0,0.5132,0.3903,0.3408,0.0727,-0.0385,0.0,0.2825,0.4224,0.4426,0.5375,0.4978,0.3497,0.2315,0.1474,0.0851,0.0224,0.0,0.0,0.0,0.0,0.0,0.0,0.0,0.0,0.0,0.0,0.0,0.0,0.0,0.5839,0.5891,0.6939,0.8108,0.7866,0.6389,0.454,0.296,0.2743,0.0,0.2699,0.3175,0.0,0.0,0.0,0.0,0.0,0.0,0.0,0.0,0.0,0.0,0.0,0.0,0.0,0.0,0.0,0.0,0.0,0.0,0.0,0.0,0.0,0.0,-2.8262,-2.8473,-2.764,-2.5491,-2.3678,-2.1687,-1.9484,-1.8508,-1.8124,-1.8296,-1.2403,-0.6995,-0.1946,0.2731,0.7491,1.2141,1.3123,1.3417,1.3292,1.3978,1.4534,1.5076,1.5753,1.7521,1.9685,2.053,2.1629,2.2847,0.0,0.0,0.0,0.0,0.0,0.0,0.0,0.0,0.0,0.0,0.0,0.0,0.0,0.0,0.0,0.0,0.0,0.0,0.0,0.0,0.0,0.0,0.0,0.1682,0.2997,0.1949,0.0205,-0.2217,-0.3755,-0.3338,-0.0961,0.0942,0.2512,0.364,0.3987,0.3679,0.2908,0.1732,0.1106,0.0866,0.0229,0.0,0.0,0.0,0.0,0.0,0.0,0.0,0.0,0.0,0.0853,0.1519,0.2127,0.3759,0.5499,0.5743,0.6762,0.7715,0.7205,0.5176,0.254,-0.0147,-0.2707,0.0,0.0,-0.176,0.0,0.0,0.0,0.0,0.0,0.0,0.0,0.0,0.0,0.0,0.0,0.0,0.0,0.0,0.0,0.0,0.0,0.0,0.0,0.0,0.0,0.0,0.0,-2.6976,-2.548,-2.3822,-2.1778,-1.979,-1.7984,-1.335,-1.0058,-0.8037,-0.5653,-0.2224,0.2132,0.7001,1.0038,1.1586,1.3027,1.3858,1.426,1.5274,1.5814,1.6014,1.653,1.8079,2.0025,2.0136,2.122,2.274,0.0,0.0,0.0,0.0,0.0,0.0,0.0,0.0,0.0,0.0,0.0,0.0,0.0,0.0,0.0,0.0,0.0,0.0,0.0,0.0,0.0,0.0,0.0,-0.1004,-0.1239,-0.2391,-0.3907,-0.5888,-0.7326,-0.6516,-0.3643,-0.1979,-0.0261,0.0,0.0,0.0,0.0,0.0,0.0,0.0541,0.0138,0.0,0.0,0.0,0.0,0.0,0.0,0.0,0.0,0.0,0.0658,0.1163,0.1759,0.3438,0.5207,0.5456,0.6783,0.7903,0.6772,0.4455,0.135,0.0,0.0,0.0,-0.9285,0.0,0.0,0.0,0.0,0.0,0.0,0.0,0.0,0.0,0.0,0.0,0.0,0.0,0.0,0.0,0.0,0.0,0.0,0.0,0.0,0.0,0.0,0.0,0.0,-2.5878,-2.4052,-2.1867,-1.7881,-1.4927,-1.322,-0.7535,-0.2897,0.07,0.2423,0.4535,0.7132,0.9974,1.1545,1.2143,1.3805,1.4963,1.5841,1.7266,1.7836,1.7793,1.7843,1.859,1.9643,1.9901,2.0913,2.2104,0.0,0.0,0.0,0.0,0.0,0.0,0.0,0.0,0.0,0.0,0.0,0.0,0.0,0.0,0.0,0.0,0.0,0.0,-0.2555,-0.2514,-0.1955,-0.0798,-0.1426,-0.2877,-0.508,-0.7629,-0.8142,-0.6575,-0.9411,-1.0016,-0.8432,-0.6148,0.0,0.0,0.0,0.0,0.0,0.0,0.0,0.0,-0.0091,-0.0045,0.0,0.0,0.0,0.0,0.0,0.0,0.0,0.0,0.102,0.1051,0.1944,0.364,0.5247,0.5119,0.7241,0.9061,0.6808,0.4386,0.1136,0.0,0.0,0.0,0.0,0.0,0.0,0.0,0.0,0.0,0.0,0.0,0.0,0.0,0.0,0.0,0.0,0.0,0.0,0.0,0.0,0.0,0.0,0.0,0.0,0.0,0.0,0.0,0.0,-2.5194,-2.35,-1.9363,-1.1474,-0.6413,-0.4431,-0.1376,0.2181,0.625,1.1589,1.37,1.2862,1.1477,1.2271,1.4777,1.5984,1.7162,1.8336,2.0165,2.0887,2.0746,2.0055,1.9359,1.8874,2.0283,2.0716,2.0903,0.0,0.0,0.0,0.0,0.0,0.0,0.0,0.0,0.0,0.0,0.0,0.0,0.0,0.0,0.0,0.0,0.0,0.0,-0.3057,-0.2722,-0.2577,-0.2718,-0.3317,-0.4236,-0.5496,-0.8738,-1.0919,-1.2019,-1.2923,-1.2173,-0.979,0.0,0.0,0.0,0.0,0.0,0.0,0.0,0.0,0.0,-0.2188,-0.1769,-0.1401,0.0,0.0,0.0,0.0,0.0,0.0,0.0,0.0,0.0,0.2207,0.3619,0.4973,0.5389,0.6082,0.6533,0.5561,0.1202,0.0,0.0,0.0,0.0,0.0,0.0,0.0,0.0,0.0,0.0,0.0,0.0,0.0,0.0,0.0,0.0,0.0,0.0,0.0,0.0,0.0,0.0,0.0,0.0,0.0,0.0,0.0,0.0,0.0,-1.1873,-0.9893,-0.5887,-0.3987,-0.1504,0.1676,0.704,1.0603,1.2425,1.4132,1.4609,1.3993,1.3518,1.4052,1.5353,1.6845,1.7959,1.8913,2.0718,2.1192,2.0746,2.0004,1.9606,1.9475,1.9347,1.994,2.0877,0.0,0.0,0.0,0.0,0.0,0.0,0.0,0.0,-0.1266,-0.1529,-0.1803,-0.2007,0.0,0.0,0.0,-0.2855,-0.3293,-0.349,-0.3347,-0.3127,-0.3185,-0.3571,-0.4099,-0.5217,-0.6913,-0.9722,-1.1932,-1.3361,-1.4252,-1.3703,0.0,0.0,0.0,0.0,0.0,0.0,0.0,0.0,0.0,0.0,-0.4562,-0.4084,-0.3755,0.0,0.0,0.0,0.0,0.0,0.0,0.0,0.0,0.0,0.0686,0.2017,0.3337,0.3276,0.3459,0.3353,0.1714,-0.2874,0.0,0.0,0.0,0.0,0.0,0.0,0.0,0.0,0.0,0.0,0.0,0.0,0.0,0.0,0.0,0.0,0.0,0.0,0.0,0.0,0.0,0.0,0.0,0.0,0.0,0.0,0.0,0.0,0.0,-0.159,0.2173,0.7669,0.6992,0.7315,0.8948,1.2829,1.5291,1.6266,1.6408,1.6655,1.6999,1.5985,1.6086,1.7034,1.849,1.9446,2.0167,2.0987,2.1245,2.1064,2.0105,1.9761,1.9709,1.9307,1.9787,2.0815,0.0,0.0,0.0,0.0,0.0,0.0,0.0,-0.1032,-0.1802,-0.2132,-0.2249,-0.2342,0.0,0.0,0.0,-0.3355,-0.3578,-0.3633,-0.3422,-0.3668,-0.3814,-0.3803,-0.4372,-0.5986,-0.8665,-1.0364,-1.137,-1.1746,-1.3719,-1.4511,0.0,0.0,0.0,0.0,0.0,0.0,0.0,0.0,0.0,0.0,-0.713,-0.6782,-0.6585,-0.6585,0.0,0.0,0.0,0.0,0.0,0.0,0.0,0.0,-0.1769,-0.0424,0.0858,-0.0352,-0.0211,-0.038,-0.3655,0.0,0.0,0.0,0.0,0.0,0.0,0.0,0.0,0.0,0.0,0.0,0.0,0.0,0.0,0.0,0.0,0.0,0.0,0.0,0.0,0.0,0.0,0.0,0.0,0.0,0.0,0.0,0.0,0.0,0.0,0.6587,1.2328,1.9624,1.8921,1.7718,1.6211,1.6454,1.7154,1.8177,1.8403,1.9446,2.1046,1.8564,1.8091,1.9301,2.0511,2.1319,2.1758,2.1259,2.1355,2.1663,2.0521,2.0004,1.9927,2.0029,2.0346,2.0913,0.0,0.0,0.0,0.0,0.0,0.0,-0.1497,-0.2027,-0.2444,-0.2759,-0.2871,-0.2937,-0.2968,-0.3089,0.0,-0.3015,-0.3048,-0.3224,-0.3549,-0.3792,-0.4329,-0.5208,-0.6458,-0.7254,-0.7502,-0.8493,-0.9233,-0.9737,-1.2204,-1.3575,0.0,0.0,0.0,0.0,0.0,0.0,0.0,0.0,0.0,0.0,0.0,-0.9675,-0.8126,-0.8126,-0.7335,0.0,0.0,0.0,0.0,0.0,0.0,0.0,-0.1374,-0.085,-0.0792,-0.1701,-0.3215,-0.497,-0.6856,-1.1897,0.0,0.0,0.0,0.0,0.0,0.0,0.0,0.0,0.0,0.0,0.0,0.0,0.0,0.0,0.0,0.0,0.0,0.0,0.0,0.0,0.0,0.0,0.0,0.0,0.0,0.0,0.0,0.0,1.4764,1.5473,1.7278,2.0834,1.9978,1.8584,1.676,1.8166,1.9058,0.0,2.0443,2.1624,2.2741,1.986,1.8932,1.9696,2.1509,2.2383,2.2498,2.286,2.2815,2.2452,2.2161,2.1758,2.1321,2.1871,2.2133,2.2435,0.0,0.0,0.0,0.0,0.0,0.0,0.0,0.0,-0.2784,-0.2972,-0.2961,-0.2964,-0.3103,-0.3059,0.0,0.0,-0.321,-0.3368,-0.3672,-0.3934,-0.469,-0.6042,-0.7328,-0.7874,-0.7529,-0.8365,-0.8774,-0.8731,-1.0425,0.0,0.0,0.0,0.0,0.0,0.0,0.0,0.0,0.0,0.0,0.0,0.0,0.0,0.0,-1.0442,-0.9571,-0.8381,-0.8119,0.0,0.0,0.0,0.0,0.0,0.0,0.0,-0.3688,-0.5048,-0.6738,-0.8842,-1.1985,0.0,0.0,0.0,0.0,0.0,0.0,0.0,0.0,0.0,0.0,0.0,0.0,0.0,0.0,0.0,0.0,0.0,0.0,0.0,0.0,0.0,0.0,0.0,0.0,0.0,0.0,0.0,0.0,1.5081,2.1496,2.1547,2.177,2.2577,2.1811,2.0676,1.9228,2.0146,2.0789,2.1193,2.185,2.2477,2.3026,2.1733,2.1131,2.1205,2.256,2.277,2.2253,2.2905,2.2965,2.2678,2.2701,2.2454,2.2235,2.2906,2.3142,2.3298,0.0,0.0,0.0,0.0,0.0,0.0,0.0,0.0,0.0,-0.3026,-0.2799,-0.2743,-0.3055,-0.288,-0.2893,0.0,0.0,0.0,-0.3713,-0.4209,-0.5113,-0.6566,-0.7626,-0.8116,-0.8045,-0.8677,-0.8798,-0.8396,-0.8894,0.0,0.0,0.0,0.0,0.0,0.0,0.0,0.0,0.0,0.0,0.0,0.0,0.0,0.0,0.0,0.0,0.0,-0.979,-0.8958,-0.8067,-0.7916,0.0,0.0,0.0,0.0,-0.6816,-0.8559,-1.0027,-1.2037,-1.6443,0.0,0.0,0.0,0.0,0.0,0.0,0.0,0.0,0.0,0.0,0.0,0.0,0.0,0.0,0.0,0.0,0.0,0.0,0.0,0.0,0.0,0.0,0.0,0.0,0.0,0.0,0.0,0.0,2.3023,2.4423,2.4979,2.4812,2.3925,2.3513,2.2801,2.1798,2.2085,2.2498,2.298,2.3087,2.3029,2.2875,2.3377,2.3231,2.2543,2.3275,2.2935,2.1913,2.2704,2.3049,2.3016,2.3164,2.3147,2.3231,2.3935,2.4188,2.4216,0.0,0.0,0.0,0.0,0.0,0.0,0.0,0.0,0.0,0.0,-0.2624,-0.2463,-0.3036,-0.2501,-0.2332,-0.2928,-0.2878,-0.2985,-0.3332,0.0,0.0,-0.7085,-0.7702,-0.8095,-0.8237,-0.7851,-0.8036,-0.8805,0.0,0.0,0.0,0.0,0.0,0.0,0.0,0.0,0.0,0.0,0.0,0.0,0.0,0.0,0.0,0.0,0.0,0.0,0.0,-1.0108,-0.9173,-0.8665,-0.8488,0.0,0.0,0.0,-0.8642,-1.0147,-1.208,-1.4123,0.0,0.0,0.0,0.0,0.0,0.0,0.0,0.0,0.0,0.0,0.0,0.0,0.0,0.0,0.0,0.0,0.0,0.0,0.0,0.0,0.0,0.0,0.0,0.0,0.0,0.0,0.0,0.0,2.0815,2.2178,2.366,2.4297,2.4259,2.3502,2.3851,2.3438,2.224,2.3642,2.4249,2.3994,2.4598,2.4378,2.3465,2.3551,2.2935,2.1899,2.3084,2.3187,2.2646,2.3865,2.4357,2.4417,2.4978,2.5216,2.529,2.5957,2.6194,2.6283,0.0,0.0,0.0,0.0,0.0,0.0,0.0,0.0,0.0,0.0,0.0,-0.1973,-0.2674,-0.2374,-0.2341,-0.2954,-0.2893,-0.3075,-0.3667,-0.5079,-0.6172,-0.6779,-0.7798,-0.8225,-0.8029,-0.8207,-0.8262,-0.8218,0.0,0.0,0.0,-1.053,-1.2133,0.0,0.0,0.0,0.0,0.0,0.0,0.0,0.0,0.0,0.0,0.0,0.0,0.0,0.0,0.0,-0.8828,-0.9167,-0.9214,-0.9151,-0.9204,0.0,0.0,0.0,-1.2213,0.0,-1.7008,0.0,0.0,0.0,0.0,0.0,0.0,0.0,0.0,0.0,0.0,0.0,0.0,0.0,0.0,0.0,0.0,0.0,0.0,0.0,0.0,0.0,0.0,0.0,0.0,0.0,0.0,0.0,2.0257,2.1668,2.2333,2.3967,2.4606,2.3988,2.4466,2.4354,2.3467,2.4318,2.4743,2.4757,2.4436,2.407,2.3591,2.3591,2.3284,2.2815,2.3763,2.3985,2.3865,2.4759,2.5181,2.5241,2.5899,2.5897,2.5663,2.6788,2.6876,2.6652,0.0,0.0,0.0,0.0,0.0,0.0,0.0,0.0,0.0,0.0,0.0,-0.1602,-0.2676,0.0,0.0,0.0,-0.2954,-0.3113,-0.377,-0.4826,-0.5631,-0.6135,-0.7332,-0.7906,-0.7793,-0.8354,-0.8366,0.0,0.0,0.0,-0.7745,-0.9695,-1.1382,0.0,-1.3756,0.0,0.0,0.0,0.0,0.0,0.0,0.0,0.0,0.0,0.0,0.0,0.0,0.0,-0.8526,-0.9059,-0.9355,-0.9558,-0.9961,-1.0196,0.0,0.0,0.0,0.0,0.0,0.0,0.0,0.0,0.0,0.0,0.0,0.0,0.0,0.0,0.0,0.0,0.0,0.0,0.0,0.0,0.0,0.0,0.0,0.0,0.0,0.0,0.0,0.0,0.0,0.0,0.0,0.0,2.0348,2.1602,2.136,2.351,2.4688,2.4477,2.4863,2.4886,2.4471,2.4436,2.4813,2.5591,2.4488,2.3882,2.3594,2.3866,2.4193,2.45,2.467,2.4837,2.5048,2.5571,2.5732,2.5685,2.6542,2.6515,2.6141,2.7214,2.7255,2.6878,0.0,0.0,0.0,0.0,0.0,0.0,0.0,0.0,0.0,0.0,0.0,-0.16,-0.3344,-0.2229,-0.1835,-0.3004,-0.2859,-0.2885,-0.3294,-0.3831,-0.4452,-0.5226,-0.5898,0.0,-0.7693,-0.7734,0.0,0.0,0.0,0.0,-0.7747,-0.9698,-1.1239,-1.2259,-1.1299,-1.0129,-0.8827,0.0,0.0,0.0,0.0,0.0,0.0,0.0,0.0,0.0,0.0,0.0,0.0,-0.8039,-0.8523,-0.9518,-0.9518,-0.9883,-1.0311,0.0,0.0,0.0,0.0,0.0,0.0,0.0,0.0,0.0,0.0,0.0,0.0,0.0,0.0,0.0,0.0,0.0,0.0,0.0,0.0,0.0,0.0,0.0,0.0,0.0,0.0,0.0,0.0,0.0,0.0,0.0,2.1493,2.22,2.1172,2.276,2.4009,2.4642,2.4729,2.4689,2.4672,2.3999,2.4665,2.6598,2.5576,2.4568,2.3618,2.4647,2.5811,2.6964,2.5574,2.5426,2.6132,2.6221,2.5972,2.5756,2.7026,2.7515,2.7515,2.756,2.7575,2.7575,0.0,0.0,0.0,0.0,0.0,0.0,0.0,0.0,0.0,0.0,0.0,0.0,0.0,-0.2273,-0.2224,-0.3043,-0.3025,-0.3101,-0.3483,-0.3741,-0.4115,-0.468,-0.5256,-0.5778,-0.6141,0.0,0.0,0.0,0.0,-0.8257,-0.9444,-1.2357,-1.278,-1.1118,-0.9173,-0.8924,-0.9938,-0.9489,0.0,0.0,0.0,0.0,0.0,0.0,0.0,0.0,0.0,0.0,0.0,0.0,-0.7658,-0.8423,-0.8604,0.0,0.0,0.0,0.0,0.0,0.0,0.0,0.0,0.0,0.0,0.0,0.0,0.0,0.0,0.0,0.0,0.0,0.0,0.0,0.0,0.0,0.0,0.0,0.0,0.0,0.0,0.0,0.0,0.0,0.0,0.0,0.0,0.0,0.0,2.1489,2.1124,2.2673,2.3948,2.4698,2.492,2.5341,2.5966,2.5712,2.616,2.7264,2.6525,2.6974,2.8436,2.7274,2.7856,2.9723,2.9205,2.824,2.7025,2.7101,2.7046,2.6952,2.7425,2.7625,2.7625,2.7625,2.7625,2.7625,0.0,0.0,0.0,-0.2719,0.0,-0.2917,-0.262,-0.2321,0.0,0.0,0.0,0.0,0.0,0.0,0.0,-0.3046,-0.3082,-0.3194,-0.3419,-0.3663,-0.3945,-0.4251,-0.4928,-0.555,0.0,0.0,0.0,0.0,0.0,0.0,0.0,0.0,-1.2391,-0.9913,-0.8343,0.0,0.0,0.0,0.0,-0.8092,0.0,0.0,-1.0234,0.0,0.0,0.0,0.0,0.0,0.0,0.0,0.0,0.0,0.0,0.0,0.0,0.0,0.0,0.0,0.0,0.0,0.0,0.0,0.0,0.0,0.0,0.0,0.0,0.0,0.0,0.0,0.0,0.0,0.0,0.0,0.0,0.0,0.0,0.0,0.0,0.0,0.0,0.0,0.0,0.0,0.0,0.0,0.0,0.0,2.1569,2.3065,2.4393,2.533,2.5572,2.602,2.6702,2.7706,2.8423,2.8808,2.842,2.8821,2.9961,2.918,2.9683,3.1157,3.033,2.9536,2.8654,2.7923,2.7605,2.761,2.7625,2.7605,2.7625,2.7625,2.7625,2.7625,0.0,-0.3581,-0.335,-0.2539,-0.3034,-0.3309,-0.2719,-0.263,0.0,0.0,0.0,0.0,0.0,0.0,0.0,-0.3076,-0.3105,-0.3102,-0.3088,-0.3525,-0.384,-0.3941,0.0,0.0,0.0,0.0,0.0,0.0,0.0,0.0,0.0,0.0,-0.9692,0.0,-0.8759,-0.7453,-0.5157,0.0,0.0,-1.0191,0.0,-0.8371,0.0,0.0,0.0,0.0,-0.5411,-0.5979,0.0,0.0,0.0,0.0,0.0,0.0,0.0,0.0,0.0,0.0,0.0,0.0,0.0,0.0,0.0,0.0,0.0,0.0,0.0,0.0,0.0,0.0,0.0,0.0,0.0,0.0,0.0,0.0,0.0,0.0,0.0,0.0,0.0,0.0,0.0,0.0,0.0,0.0,2.3231,2.3231,2.246,2.3879,2.5314,2.6639,2.6693,2.6733,2.6853,2.9729,3.12,3.1192,3.1211,2.9947,2.7786,3.0129,3.1208,3.1087,2.8635,2.8958,3.1039,2.8621,2.7625,2.7675,2.7613,2.7576,2.7625,2.7625,2.7625,2.7625,-0.3983,-0.3581,-0.3357,-0.2553,-0.2103,-0.1743,-0.1429,-0.1385,0.0,0.0,0.0,0.0,0.0,0.0,0.0,0.0,-0.3707,-0.3587,-0.3266,-0.3508,-0.3475,-0.3067,-0.4508,-0.5518,0.0,0.0,0.0,0.0,0.0,0.0,0.0,0.0,0.0,0.0,-0.764,-0.62,-0.3984,-0.3717,0.0,0.0,0.0,-0.6458,0.0,0.0,0.0,0.0,0.0,-0.6454,0.0,0.0,-0.7737,-0.7185,0.0,0.0,0.0,0.0,0.0,0.0,-0.5089,0.0,0.0,0.0,0.0,0.0,0.0,0.0,0.0,0.0,0.0,0.0,0.0,0.0,0.0,0.0,0.0,0.0,0.0,0.0,0.0,0.0,0.0,0.0,0.0,0.0,0.0,0.0,2.2457,2.2655,2.24,2.4081,2.5589,2.6676,2.6687,2.7754,2.9926,3.0772,3.1185,3.1193,3.1206,3.0842,3.0235,3.0914,3.1199,3.1087,2.865,2.8973,3.1011,2.8591,2.8618,3.005,2.829,2.762,2.7625,2.7625,2.7625,2.7604,-0.3762,-0.3176,-0.2561,-0.1557,-0.1304,-0.113,-0.0942,-0.113,-0.1403,0.0,0.0,0.0,0.0,0.0,0.0,0.0,-0.391,-0.3718,-0.346,-0.3528,-0.3439,-0.3083,-0.45,-0.5523,0.0,0.0,0.0,0.0,0.0,0.0,0.0,0.0,0.0,0.0,0.0,0.0,0.0,0.0,0.0,0.0,-0.5193,0.0,0.0,-0.7036,-0.7182,0.0,0.0,0.0,-0.7785,-0.8808,-0.8584,0.0,0.0,0.0,0.0,0.0,0.0,0.0,0.0,0.0,0.0,0.0,0.0,0.0,0.0,0.0,0.0,0.0,0.0,0.0,0.0,0.0,0.0,0.0,0.0,0.0,0.0,0.0,0.0,0.0,0.0,0.0,0.0,2.3332,2.3347,2.3186,2.3415,2.367,2.3891,2.4743,2.5648,2.6673,2.7913,2.9782,3.2251,3.1558,3.1219,3.119,3.1211,3.1211,3.1207,3.1187,3.1208,3.1124,2.97,2.9913,3.1101,2.9699,2.9313,2.9547,2.8171,2.8258,2.9246,2.9246,2.8904,2.833,0.0,-0.2413,-0.1313,-0.0475,-0.0885,-0.1261,-0.0968,-0.132,-0.1601,0.0,0.0,0.0,0.0,0.0,0.0,0.0,-0.4052,-0.3684,-0.3601,-0.3601,-0.3592,-0.3611,-0.4562,-0.5705,-0.6958,0.0,0.0,0.0,0.0,0.0,0.0,0.0,0.0,0.0,0.0,0.0,0.0,0.0,0.0,-0.4249,-0.7375,-0.8024,0.0,0.0,-0.9154,0.0,-0.9069,-0.898,-0.8732,-1.0019,-0.975,0.0,0.0,0.0,0.0,0.0,-0.2238,0.0,0.0,0.0,0.0,0.0,0.0,0.0,0.0,0.0,0.0,0.0,0.0,0.0,0.0,0.0,0.0,0.0,0.0,0.0,0.0,0.0,0.0,0.0,0.0,0.0,0.0,2.4776,2.4712,2.5182,2.5221,2.5411,2.5961,2.5622,2.5804,2.6674,2.9795,3.2247,3.3792,3.2054,3.1207,3.119,3.1179,3.1196,3.119,3.119,3.1217,3.1191,3.1183,3.1211,3.1182,3.1183,2.9793,2.7609,2.7588,2.9081,3.13,3.1477,3.0662,2.9322,-0.1738,-0.12,-0.0728,-0.1966,-0.2305,-0.2157,-0.136,-0.0801,-0.0475,0.0,0.0,0.0,0.0,0.0,0.0,0.0,0.0,0.0,-0.3661,-0.3581,-0.3598,-0.3619,-0.3822,-0.4897,-0.695,-0.6996,0.0,0.0,0.0,0.0,0.0,0.0,0.0,0.0,0.0,0.0,0.0,0.0,0.0,-0.7051,-0.7266,0.0,0.0,-0.9923,-1.0077,-0.9562,-0.9379,-1.0101,-1.0991,0.0,-0.9106,-0.7555,0.0,0.0,0.0,0.0,0.0,0.0,0.0,0.0,0.0,0.0,0.0,0.0,0.0,0.0,0.0,0.0,0.0,0.0,0.0,0.0,0.0,0.0,0.0,0.0,0.0,0.0,0.0,0.0,0.0,0.0,0.0,2.5287,2.5105,2.5182,2.5221,2.5411,2.5961,2.6504,2.6792,2.6708,3.0994,3.3466,3.3809,3.2077,3.1183,3.119,3.1213,3.1192,3.119,3.119,3.1202,3.1213,3.1185,3.1211,3.1207,3.1189,2.9777,2.7581,2.7605,2.8576,3.009,3.1091,3.0479,2.8882,0.0311,0.0622,0.0367,-0.1369,-0.2994,-0.3436,-0.1571,-0.0983,0.0,0.0,0.0,0.0,0.0,0.0,0.0,0.0,0.0,0.0,0.0,-0.3605,-0.3585,-0.3584,-0.3587,-0.412,-0.5264,-0.501,-0.4745,0.0,0.0,0.0,0.0,0.0,0.0,0.0,0.0,0.0,0.0,0.0,-0.5144,-0.6615,-0.6914,0.0,-0.8909,-1.0133,-1.046,-1.0292,-1.0059,-1.0478,-1.1085,-1.0106,-0.9183,0.0,0.0,-0.5323,-0.4782,0.0,-0.0925,0.0229,0.0,0.0,0.0,0.4447,0.0,0.0,0.0,0.0,0.0,0.0,0.0,0.0,0.0,0.0,0.0,0.0,0.0,0.0,0.0,0.0,0.0,0.0,0.0,0.0,0.0,2.6421,2.6165,2.6232,2.6232,2.6554,2.7199,2.7071,2.7231,2.783,3.1706,3.3815,3.3797,3.2065,3.1633,3.2507,3.1627,3.1182,3.119,3.119,3.119,3.119,3.119,3.119,3.1106,2.9903,2.9421,2.9262,2.8073,2.8801,3.06,3.1282,3.0973,3.0131,0.2008,0.2277,0.157,-0.0308,-0.3296,-0.4664,-0.2414,-0.1823,0.0,0.0,0.0,0.0,0.0,0.0,0.0,0.0,0.0,0.0,0.0,0.0,-0.3756,-0.4088,-0.3707,-0.352,-0.3486,-0.301,-0.2958,-0.3315,0.0,0.0,0.0,0.0,0.0,0.0,0.0,0.0,0.0,0.0,0.0,-0.5798,0.0,-0.777,-0.9227,-1.0244,-1.0597,-1.0609,-1.0752,-1.0744,-1.0564,-1.0188,0.0,-0.8943,-0.7015,-0.6528,0.0,0.0,0.0,0.0,0.0,0.0,0.0,0.0,0.0,0.7892,0.0,0.0,0.0,0.0,0.0,0.0,0.0,0.0,0.0,0.0,0.0,0.0,0.0,0.0,0.0,0.0,0.0,0.0,0.0,2.6935,2.6757,2.7251,2.6995,2.722,2.8103,2.7607,2.7654,2.8539,3.1629,3.3298,3.3304,3.2224,3.2415,3.3792,3.2021,3.1192,3.119,3.1184,3.1201,3.119,3.119,3.1219,3.1036,2.9121,2.9772,3.1823,2.9325,2.9632,3.1512,3.1511,3.1488,3.1519,0.2055,0.2951,0.2516,-0.0346,-0.3368,-0.5296,-0.5002,-0.3593,0.0,0.0,0.0,0.0,0.0,0.0,0.0,0.0,0.0,0.0,-0.3649,0.0,0.0,-0.5902,-0.4172,-0.3138,-0.3135,-0.3089,-0.2584,-0.1573,0.0,0.0,0.0,0.0,0.0,0.0,-0.2518,0.0,0.0,0.0,-0.5561,0.0,-0.6589,-0.7922,0.0,-1.053,-1.0591,-1.0714,-1.1389,-1.1233,-1.0746,0.0,-1.0566,-0.9023,0.0,-0.7973,0.0,0.0,0.0,0.0,0.0,0.0,0.0,0.0,1.2202,0.0,0.0,0.0,0.0,0.0,0.0,0.0,0.0,0.0,0.0,0.0,0.0,0.0,0.0,0.0,0.0,0.0,0.0,0.0,0.0,0.0,2.5292,2.7178,2.5937,2.5626,2.6847,2.8476,2.8624,2.6999,2.9911,3.15,3.1506,3.2827,3.3586,3.3792,3.2036,3.1215,3.1173,3.1216,3.1196,3.119,3.119,3.1197,3.117,3.09,3.2475,3.4824,3.2125,3.1252,3.1486,3.1507,3.1474,3.1509,0.2364,0.3132,0.2831,0.0388,-0.244,-0.4817,-0.6171,-0.3386,0.0,0.0,0.0,0.0,0.0,0.0,0.0,0.0,0.0,-0.5178,0.0,0.0,0.0,0.0,-0.385,-0.3324,-0.3221,-0.2924,-0.2448,-0.1836,-0.1539,0.0,0.0,0.0,0.0,0.0,-0.3201,0.0,-0.4975,0.0,0.0,0.0,0.0,0.0,0.0,-0.9674,-0.9398,-0.9918,-1.0227,-1.0155,-1.0021,0.0,-0.9715,0.0,0.0,0.0,0.0,0.0,0.0,0.0,0.0,0.0,0.0,0.0,0.0,0.0,0.0,0.0,0.7732,0.0,0.0,0.0,0.0,0.0,0.0,0.0,0.0,0.0,0.0,0.0,0.0,0.0,0.0,0.0,0.0,0.0,0.0,0.0,0.0,2.7014,2.7971,2.7973,2.8846,3.0757,3.2056,3.2696,3.271,3.3439,3.3798,3.3773,3.2036,3.1741,3.2668,3.1681,3.1199,3.119,3.119,3.1197,3.1324,3.3059,3.4488,3.5482,3.4315,3.3876,3.3869,3.3887,3.39,3.3877,0.2182,0.0,0.3041,0.122,-0.3047,-0.7212,-1.01,-0.7808,0.0,0.0,0.0,0.0,-2.536,-2.3426,0.0,0.0,0.0,-0.6022,0.0,0.0,-0.4012,0.0,0.0,0.0,0.0,-0.2863,-0.228,-0.2023,-0.1321,0.0,0.0,0.0,0.0,0.0,0.0,-0.4975,-0.6016,0.0,0.0,-0.4021,-0.5924,-0.8611,-1.1254,-0.9125,-0.8801,-0.9368,-0.9297,-0.9139,-0.8994,-0.9479,-0.8622,0.0,-0.1542,0.0,0.0,0.0,0.0,0.0,1.5207,0.0,0.0,0.0,0.0,0.0,0.0,0.0,0.0,0.0,0.0,0.0,0.0,0.0,0.0,0.0,0.0,0.0,0.0,0.0,0.0,0.0,0.0,0.0,0.0,0.0,0.0,0.0,0.0,0.0,2.8284,2.8092,2.974,3.3688,3.381,3.3798,3.3807,3.3806,3.3796,3.3762,3.2516,3.2563,3.3756,3.2003,3.1188,3.1196,3.1194,3.1664,3.2596,3.4715,3.6101,3.6837,3.6835,3.6851,3.6721,3.5893,3.6117,3.6694,0.1204,0.2504,0.3223,0.1989,-0.6372,-1.4328,-1.8656,0.0,0.0,0.0,0.0,0.0,0.0,0.0,0.0,0.0,0.0,-0.6282,-0.6254,0.0,-0.5021,0.0,0.0,0.0,0.0,0.0,-0.2031,-0.1631,0.0,0.0,0.0,0.0,0.0,0.0,0.0,-0.5131,-0.6415,-0.7298,-0.7349,-0.6642,-0.4519,-0.594,-0.9362,0.0,-0.9469,-0.9675,-0.9362,0.0,0.0,-0.734,-0.749,0.0,0.0,0.0,0.0,0.0,0.0,0.0,0.0,0.0,0.0,1.583,0.0,0.0,0.0,0.0,1.2889,0.0,0.0,0.0,0.0,0.0,0.0,0.0,0.0,0.0,0.0,0.0,0.0,0.0,0.0,0.0,0.0,0.0,0.0,0.0,0.0,0.0,2.6618,2.9519,3.1912,3.3743,3.3798,3.3798,3.3807,3.3807,3.3789,3.381,3.3734,3.3768,3.3756,3.1985,3.1181,3.1204,3.1221,3.284,3.5479,3.5548,3.7331,3.9957,3.9959,3.9966,3.96,3.6654,3.7458,3.9544,0.0,0.0,-0.0091,-0.0433,-0.6496,-1.2998,0.0,-2.0796,0.0,0.0,0.0,0.0,0.0,0.0,-2.9104,0.0,0.0,-1.4295,-1.0608,-0.8723,0.0,0.0,0.0,-0.3934,0.0,0.0,0.0,0.0,0.0,0.0,0.0,0.0,0.0,0.0,0.0,-0.6206,0.0,0.0,0.0,0.0,0.0,-0.7892,-0.8735,0.0,0.0,-0.7812,-0.7741,-0.7565,0.0,-0.7595,-0.8578,-0.8601,-0.2029,0.1643,0.4754,1.0813,1.6632,0.0,0.0,0.0,1.9824,1.8298,0.0,0.0,0.0,0.0,0.0,0.0,0.0,0.0,0.0,0.0,0.0,0.0,0.0,0.0,0.0,0.0,0.0,0.0,0.0,0.0,0.0,0.0,0.0,0.0,0.0,0.0,0.0,3.0649,3.3203,3.3775,3.379,3.3807,3.3807,3.3807,3.3789,3.3789,3.378,3.3796,3.374,3.2001,3.1203,3.1331,3.3271,3.4685,3.5582,3.5585,3.7385,4.0089,4.0082,4.0101,3.9951,3.8955,3.7932,3.6924,0.0145,0.0,0.0,-0.2295,-0.7088,0.0,0.0,0.0,0.0,0.0,-2.8959,0.0,-3.2854,0.0,-3.0286,0.0,-2.5242,-2.0799,-1.5487,-1.2547,0.0,-0.7221,-0.5644,0.0,0.0,0.0,0.0,0.0,0.0,-0.1699,0.0,0.0,0.0,0.0,0.0,0.0,0.0,0.0,-1.004,0.0,0.0,-0.7984,0.0,0.0,-0.8045,-0.701,0.0,-0.6874,-0.6776,-0.7697,-0.8329,-0.7709,-0.1867,0.4094,0.9798,1.4152,1.9615,2.5056,2.8689,2.6739,0.0,2.1043,1.9248,0.0,1.3372,0.0,0.0,0.0,0.0,0.0,0.0,0.0,0.0,0.0,0.0,0.0,0.0,0.0,0.0,0.0,0.0,0.0,0.0,0.0,0.0,0.0,0.0,0.0,0.0,0.0,3.3168,3.3775,3.379,3.3807,3.3807,3.3807,3.3798,3.3808,3.3799,3.4404,3.5494,3.4389,3.388,3.3926,3.5094,3.5591,3.5672,3.6757,3.8364,4.0082,4.0103,4.0087,3.9982,3.8896,3.7222,3.5488,0.0,0.0,0.0,0.0,-0.8115,0.0,0.0,0.0,-2.2463,0.0,-2.9231,-3.0558,-3.3183,-3.3469,-3.2906,-3.1435,-2.8978,0.0,-2.0548,-1.6594,0.0,0.0,-0.8421,-0.6938,-0.7333,0.0,0.0,0.0,0.0,0.0,0.0,0.0,0.0,0.0,-0.4008,0.0,-0.7695,-0.8126,-0.9729,-1.164,-0.7832,-0.6301,-0.6409,-0.7702,-0.7673,-0.7031,-0.7258,-0.6635,-0.592,-0.7368,-0.6672,-0.4469,-0.0845,0.7235,1.5429,1.5546,1.776,2.1705,2.8776,2.989,2.8076,2.4023,2.0877,0.0,0.0,0.0,1.3665,0.0,0.0,0.0,0.0,0.0,0.0,0.0,0.0,0.0,0.0,0.0,0.0,0.0,0.0,0.0,0.0,0.0,0.0,0.0,0.0,0.0,0.0,0.0,3.1864,3.3743,3.3807,3.3807,3.3807,3.3807,3.3808,3.3789,3.3963,3.5681,3.8697,3.8684,3.8722,3.8581,3.6498,3.5676,3.6047,3.8914,4.0114,4.0099,4.012,4.0016,3.9528,3.6603,3.5477,3.5504,-0.0456,-0.2164,-0.3813,0.0,-0.7795,-1.1791,0.0,0.0,0.0,0.0,-2.9685,-3.1396,-3.4086,-3.4529,-3.4508,-3.4111,-3.2062,0.0,0.0,0.0,0.0,-1.5378,-1.2997,-1.1271,-1.025,-0.8142,0.0,-0.4921,0.0,0.0,-0.2632,0.0,0.0,0.0,0.0,0.0,-0.7127,-0.8655,-0.8755,-0.7736,-0.6681,-0.6328,0.0,0.0,-0.6414,-0.5891,-0.6393,-0.6076,-0.5527,-0.592,-0.3981,-0.0777,0.2886,0.9263,1.5808,1.8015,2.1625,2.5366,2.7255,2.87,2.9302,2.7757,2.4147,2.0336,0.0,0.0,0.0,0.0,0.0,0.0,0.0,0.0,0.0,0.0,0.0,0.0,0.0,0.0,0.0,0.0,0.0,0.0,0.0,0.0,0.0,0.0,0.0,0.0,0.0,0.0,0.0,3.3691,3.3808,3.3807,3.3807,3.3807,3.3808,3.3826,3.6268,3.79,3.8695,3.8707,3.8706,3.8581,3.6527,3.6884,3.8986,3.9768,4.0101,4.012,4.0104,3.8683,3.6577,3.5783,3.5474,3.5504,-0.0581,0.0,0.0,-0.5931,0.0,0.0,-1.6416,0.0,0.0,-2.7464,-2.974,0.0,-3.3243,-3.4434,-3.5034,-3.4944,-3.3867,0.0,0.0,0.0,0.0,-1.9494,-1.6327,-1.4021,-1.2778,-1.0383,0.0,-0.5914,0.0,0.0,-0.2869,0.0,0.0,0.0,0.0,-0.4517,0.0,-0.8563,-0.8297,-0.6295,-0.6318,0.0,0.0,-0.6273,-0.6076,-0.5868,-0.6197,-0.6106,-0.5537,-0.3633,-0.0604,0.3215,0.8204,1.3239,1.8043,2.1755,2.4647,2.6853,2.7531,2.8981,3.0127,2.9229,2.6957,2.4417,2.2377,2.3282,2.3994,0.0,0.0,0.0,0.0,0.0,0.0,0.0,0.0,0.0,0.0,0.0,0.0,0.0,0.0,0.0,0.0,0.0,0.0,0.0,0.0,0.0,0.0,0.0,0.0,3.3723,3.3789,3.3778,3.3807,3.3807,3.3799,3.3842,3.7124,3.8704,3.8695,3.8715,3.8916,3.9283,3.9135,3.9451,4.0117,4.0092,4.0086,4.0121,4.0093,3.8243,3.5672,3.7016,3.6674,3.5495,0.0,0.0,0.0,0.0,0.0,0.0,0.0,-2.0448,0.0,-2.7261,0.0,-3.163,-3.2076,-3.3828,-3.4926,-3.4714,0.0,-3.3413,-3.0578,-2.8505,-2.6214,-2.3554,-1.9204,-1.6331,-1.5189,-1.2154,0.0,0.0,0.0,0.0,0.0,0.0,0.0,0.0,0.0,0.0,0.0,-0.7629,-0.7766,0.0,-0.6317,-0.6338,-0.6338,-0.6264,-0.6271,-0.62,-0.5652,-0.5463,-0.4825,-0.0699,0.3086,0.7175,1.3441,1.7422,2.0723,2.5346,2.6936,2.7452,2.8653,2.9925,3.0639,2.9533,2.9175,2.8709,2.7319,2.7465,2.7727,2.7116,2.4697,2.3107,0.0,0.0,0.0,0.0,0.0,0.0,0.0,0.0,0.0,0.0,0.0,0.0,0.0,0.0,0.0,0.0,0.0,0.0,0.0,0.0,0.0,3.3752,3.3813,0.0,3.3185,0.0,3.4019,3.4473,3.714,3.8493,3.8707,3.8716,3.9389,4.0652,4.2633,4.2228,4.011,4.0112,4.007,4.0121,4.0117,3.8228,3.5844,3.8513,3.7777,3.5508,0.0,0.0,0.0,0.0,0.0,-1.7583,-2.1538,-2.3803,-2.6222,-2.9558,-3.168,-3.3086,-3.3701,-3.4124,-3.4445,-3.4674,-3.4464,0.0,0.0,0.0,0.0,-2.7407,-2.3662,-2.0517,-1.8147,-1.4047,-1.0452,0.0,0.0,0.0,0.0,0.0,0.0,0.0,0.0,0.0,-0.3949,-0.5131,0.0,-0.6294,-0.6304,-0.6338,-0.6264,-0.6271,-0.6278,-0.5879,-0.2339,-0.1128,-0.0501,0.3222,0.6776,1.0329,1.4173,1.7402,2.0726,2.5329,2.8144,2.9647,2.9147,2.9935,3.0846,3.0611,3.007,2.9411,2.8754,2.8222,2.8045,2.8518,2.7148,2.5968,2.6261,0.0,0.0,0.0,0.0,0.0,0.0,0.0,0.0,0.0,0.0,0.0,0.0,0.0,0.0,0.0,0.0,0.0,0.0,0.0,0.0,0.0,0.0,0.0,0.0,0.0,3.5147,3.784,3.7066,3.7418,3.8695,3.8683,4.0235,4.2923,4.3322,4.2211,4.0106,4.0124,4.007,4.0088,4.0101,3.8237,3.557,3.6102,3.5984,3.5508,0.0,0.0,0.0,0.0,0.0,0.0,0.0,-2.6769,0.0,-2.9661,-3.1643,-3.291,-3.2943,-3.4226,-3.498,-3.4711,-3.4675,-3.433,-3.3519,-3.2375,-3.1179,-2.9972,-2.6285,0.0,-1.9924,-1.5807,-1.167,-0.7576,0.0,0.0,0.0,0.0,0.0,0.0,0.0,-0.334,0.0,0.0,0.0,-0.6309,-0.6322,-0.6338,-0.6264,-0.6274,-0.4924,-0.2801,-0.0698,0.1424,0.3737,0.6974,0.9228,1.142,1.6186,1.8657,2.0717,2.5329,2.8441,3.0298,2.9863,3.0309,3.0901,3.0895,3.0471,2.9888,2.9172,2.8737,2.8582,2.8928,2.8402,2.7893,2.7888,2.0806,0.0,0.0,0.0,0.0,0.0,0.0,0.0,0.0,0.0,0.0,0.0,0.0,0.0,0.0,0.0,0.0,0.0,0.0,0.0,0.0,0.0,0.0,0.0,0.0,0.0,3.8718,3.8563,3.9431,4.1169,4.0308,4.1258,4.3505,4.3489,4.2211,4.0104,4.0089,4.007,4.0121,4.0107,3.9161,3.7681,3.6115,3.5491,3.5528,0.0,-0.9408,0.0,0.0,-1.7355,0.0,-2.7153,-2.9173,-3.0059,-2.9989,-3.1953,-3.3179,-3.275,-3.4609,-3.5584,-3.4769,-3.4906,-3.4756,-3.4076,-3.3294,-3.2502,-3.1711,-2.8244,-2.4889,-2.1788,-1.7422,-1.285,0.0,0.0,0.0,0.0,0.0,0.0,0.0,0.0,0.0,0.0,0.0,-0.5171,-0.6335,-0.627,-0.6331,-0.6325,-0.6274,-0.3665,0.0155,0.1004,0.4056,0.8017,1.1158,1.1948,1.2589,1.8084,2.0466,2.2096,2.6254,2.8881,3.0396,3.04,3.063,3.0874,3.0814,3.0595,3.0152,2.9213,2.8994,2.9002,2.9003,2.9016,2.9283,3.0217,2.4505,0.0,0.0,0.0,0.0,0.0,0.0,0.0,0.0,0.0,0.0,0.0,0.0,0.0,0.0,0.0,0.0,0.0,0.0,0.0,0.0,0.0,3.4734,3.4405,0.0,3.3889,3.8709,3.9795,4.1399,4.3383,4.1938,4.1957,4.3152,4.339,4.221,4.0095,4.0095,4.007,4.0121,4.0096,4.0089,3.9755,3.6622,3.5505,3.5504,0.0,0.0,0.0,0.0,0.0,0.0,0.0,-3.0681,-3.2296,-3.2612,-3.4454,-3.5736,-3.5619,-3.5773,-3.5572,-3.4771,-3.4774,-3.462,-3.4128,-3.3614,-3.3109,-3.2604,-3.0014,-2.7308,-2.452,-1.8861,-1.3759,0.0,0.0,0.0,0.0,0.0,0.0,0.0,0.0,0.0,0.0,-0.3355,-0.4206,-0.6298,-0.6304,-0.6311,-0.6283,-0.6271,-0.3669,0.0466,0.4344,0.8305,1.2281,1.6075,1.6235,1.5515,1.8766,2.2688,2.659,2.926,3.0231,3.0394,3.0414,3.0633,3.0821,3.0527,3.043,3.0151,2.9209,2.8997,2.8994,2.9007,2.8997,3.0217,3.4179,3.4186,2.9988,0.0,0.0,0.0,0.0,0.0,0.0,0.0,0.0,0.0,0.0,0.0,0.0,0.0,0.0,0.0,0.0,0.0,0.0,0.0,0.0,3.6375,3.6338,3.838,3.918,3.871,3.9377,4.0906,4.3113,4.222,4.192,4.2117,4.3093,4.2226,4.0085,4.0087,4.007,4.0087,4.0071,4.0101,3.9706,3.6643,3.5508,3.5504,0.0,0.0,0.0,0.0,0.0,0.0,0.0,-3.5202,-3.6868,-3.568,-3.6247,-3.6704,-3.6501,-3.6413,-3.6078,-3.5367,-3.5322,-3.5231,-3.503,-3.4665,-3.4236,-3.3731,-3.1825,-2.962,-2.718,-2.2639,-1.7667,0.0,0.0,0.0,0.0,0.0,0.0,0.0,0.0,-0.5576,-0.6248,-0.5281,-0.5399,-0.6543,-0.8928,-0.8453,-0.6276,-0.6271,-0.3667,0.0542,0.4788,0.8856,1.2892,1.6675,1.8033,1.8261,1.9451,2.2995,2.7195,2.9663,3.0411,3.0439,3.0652,3.0795,3.0808,3.0466,2.9983,2.9468,2.9086,2.8989,2.8991,2.8991,2.9002,3.0124,3.3795,3.4472,3.2695,2.7257,0.0,0.0,0.0,0.0,0.0,0.0,0.0,0.0,0.0,0.0,0.0,0.0,0.0,0.0,0.0,0.0,0.0,2.9846,0.0,3.7594,3.7931,3.8957,3.9583,3.9793,4.0036,4.0957,4.2441,4.2592,4.2514,4.2211,4.2409,4.1574,4.007,4.007,4.007,4.007,4.007,4.0121,3.9706,3.6637,3.5523,3.5504,-2.3877,0.0,-2.4529,0.0,-2.6824,-2.7726,-3.4934,-3.8564,-3.994,-3.8365,-3.8289,-3.8136,-3.7529,-3.7293,-3.688,-3.6144,-3.585,-3.5674,-3.5625,-3.5447,-3.5174,-3.4805,-3.3612,0.0,-2.9758,-2.6182,-2.192,-1.6904,-1.3942,0.0,0.0,-0.7222,-0.7431,0.0,-0.7086,-0.7062,-0.717,-0.7815,-0.8059,-0.8303,-1.1182,-0.9887,-0.6332,-0.6264,-0.3667,0.0542,0.4783,0.8692,1.2407,1.6607,1.8817,1.9946,2.0688,2.3597,2.7174,2.966,3.0404,3.0471,3.08,3.0832,3.0625,3.0124,2.9506,2.8883,2.8414,2.8334,2.846,2.8907,2.9752,3.1117,3.3385,3.3808,3.3788,3.3809,0.0,0.0,0.0,0.0,0.0,0.0,0.0,0.0,0.0,0.0,0.0,0.0,0.0,0.0,0.0,0.0,0.0,0.0,0.0,0.0,0.0,3.8772,3.9697,4.0499,4.0501,4.1309,4.2758,4.3062,4.2791,4.2023,4.174,4.1064,4.007,4.007,4.007,4.007,4.007,4.0074,3.9723,3.6648,3.5476,3.5473,-3.3455,-3.2537,-3.2979,-3.77,-3.848,-3.8511,-3.8621,-3.9694,-4.0489,-4.0469,-4.0864,-4.0625,-3.9219,-3.859,-3.7932,-3.706,-3.6191,-3.5703,-3.5703,-3.5693,-3.5691,0.0,0.0,-3.4189,-3.2099,-2.8957,-2.593,-2.2993,0.0,0.0,-1.562,-1.4014,-1.2567,-1.11,-0.8581,-0.7055,-0.66,-1.0519,-1.2201,-1.2221,-1.2259,-0.9856,-0.6291,-0.6328,-0.3669,0.0543,0.4812,0.8151,1.1359,1.6347,1.8822,2.0257,2.2756,2.5005,2.7186,2.9674,3.0402,3.0465,3.081,3.0664,3.0173,2.9237,2.8998,2.8589,2.7087,2.6738,2.7169,2.8676,3.1521,3.3753,3.3799,3.3784,3.379,3.3795,0.0,0.0,0.0,0.0,0.0,0.0,2.3755,2.2551,2.6709,0.0,0.0,0.0,0.0,0.0,0.0,0.0,0.0,3.3249,3.4572,0.0,3.5155,3.87,4.0489,4.0489,4.0495,4.193,4.4548,4.3625,4.2467,4.1223,4.1213,4.0762,4.007,4.007,4.007,4.007,4.007,4.0083,3.9731,3.6619,3.5468,3.5523,-3.6197,-3.6503,-3.6915,-3.8455,-3.8707,-3.8707,-3.8707,-3.9735,-4.0489,-4.0489,-4.0623,-4.0577,-4.0226,-3.9507,-3.8781,0.0,-3.7283,-3.6776,0.0,-3.6075,-3.5675,-3.5639,-3.5485,-3.5119,-3.45,-3.2558,-2.9713,-2.5906,0.0,0.0,0.0,-1.6129,-1.5113,-1.5542,-1.2236,-1.0613,-1.0475,-1.1797,-1.2271,-1.2284,-1.2326,-0.9889,-0.6287,-0.6318,-0.3665,0.0543,0.4807,0.8141,1.1191,1.4854,1.773,2.0249,2.2797,2.502,2.7192,2.9675,3.0563,3.0703,3.0594,3.0024,2.9364,2.907,2.8998,2.8587,2.7059,2.6711,2.7133,2.8693,3.1563,3.3799,3.3787,3.3802,3.3781,3.3795,3.427,0.0,0.0,0.0,0.0,0.0,0.0,2.9555,0.0,2.8312,0.0,0.0,0.0,0.0,0.0,0.0,0.0,0.0,3.5848,0.0,3.5392,3.8785,4.0489,4.0508,4.0976,4.2123,4.3811,4.3014,4.2274,4.1566,4.0767,4.0337,4.007,4.007,4.007,4.007,4.007,4.0083,3.9967,3.9008,3.7279,3.5508,-3.799,-3.8794,-3.9184,-3.8781,-3.9038,-3.9166,-3.8762,-3.9599,-4.0336,-4.0489,-4.054,-4.0597,-4.0684,-4.0237,0.0,-3.9039,-3.8179,-3.7519,-3.7157,-3.6516,-3.5996,-3.5648,-3.56,-3.5549,-3.5494,-3.4606,0.0,-3.0057,-2.8211,-2.6521,-2.4917,-2.1473,-2.0831,-2.2424,-1.8207,-1.4885,-1.2275,-1.2315,-1.231,-1.2325,-1.2267,-0.9868,-0.6287,-0.6314,-0.4686,-0.1787,0.2401,0.5582,0.8482,1.2882,1.6284,1.9026,2.1439,2.426,2.719,2.9661,3.0554,3.0674,3.0453,2.9703,2.8989,2.9003,2.8998,2.8594,2.7032,2.6718,2.7469,3.024,3.2392,3.3802,3.3815,3.3807,3.3807,3.3807,3.4134,3.4363,3.4289,0.0,0.0,0.0,0.0,0.0,0.0,3.1709,3.1861,0.0,0.0,0.0,0.0,0.0,0.0,3.3259,3.7978,0.0,3.7401,3.945,4.0489,4.0508,4.1301,4.2171,4.3061,4.2613,4.2068,4.1402,4.0514,4.007,4.007,4.007,4.007,4.007,4.007,4.0104,4.0107,4.0106,3.8136,3.5491,-3.9157,-3.9826,-3.9992,0.0,-3.9588,0.0,-3.8897,-3.9427,-4.0082,-4.0438,-4.061,-4.069,-4.069,-4.0761,-4.0493,-3.9738,0.0,0.0,0.0,-3.7067,-3.6625,-3.5813,-3.5781,-3.5636,-3.534,-3.5256,-3.5076,-3.4729,-3.2976,-3.222,-3.2315,-2.9212,-2.8926,-3.0836,-2.5866,-1.9719,-1.3046,-1.2781,-1.2416,-1.188,-1.1896,-0.9625,-0.6291,-0.6314,-0.6278,-0.5721,-0.148,0.1352,0.4204,1.0695,1.4489,1.6874,1.9084,2.2854,2.697,2.9661,3.0427,3.0403,3.04,2.9772,2.9079,2.9022,2.8998,2.8612,2.7179,2.7028,2.8461,3.2892,3.3808,3.3802,3.3805,3.3815,3.3788,3.3797,3.4153,3.4429,3.4429,3.4414,3.3653,0.0,0.0,0.0,0.0,3.275,3.4228,0.0,0.0,0.0,0.0,0.0,3.3896,4.0312,4.0489,4.0489,4.0489,4.0489,4.0531,4.0614,4.1522,4.2126,4.2408,4.2284,4.1754,4.0856,4.0336,4.007,4.007,4.007,4.007,4.007,4.007,4.007,4.007,3.9867,3.7976,3.5474,0.0,0.0,-4.023,-3.9974,-3.946,-3.9158,-3.9357,-3.9925,-4.0406,-4.0489,-4.053,-4.0554,-4.0554,-4.0648,-4.0607,-4.0307,-3.9684,-3.9195,-3.9,-3.8257,-3.7465,-3.6654,-3.661,-3.6278,-3.5529,-3.5503,-3.5076,-3.4202,-3.3534,-3.3248,-3.328,-3.2578,-3.3072,-3.4356,-3.0853,-2.6041,-2.0379,-1.7747,-1.3186,-0.775,-0.7701,-0.7163,-0.6336,-0.6318,-0.6271,-0.5718,-0.1477,0.135,0.407,0.9599,1.2838,1.5167,1.8708,2.1786,2.4958,2.9471,3.0593,3.0394,3.0398,3.0237,2.9902,2.9175,2.8998,2.8915,2.8533,3.0378,3.2429,3.3567,3.379,3.3802,3.3784,3.3799,3.3795,3.3784,3.4349,3.4755,3.4635,3.4549,3.4264,0.0,3.4567,3.5239,3.5351,3.6956,3.7276,0.0,0.0,0.0,0.0,3.5298,3.6376,4.0523,4.0562,4.0489,4.0489,4.0489,4.0899,4.1651,4.1567,4.1937,4.2573,4.1243,4.0752,4.0856,4.0336,4.007,4.007,4.007,4.007,4.007,4.007,4.007,3.9834,3.748,3.6132,3.5474,-4.1687,-4.1494,-4.102,-4.0414,-4.0443,-4.0616,-4.074,-4.0804,-4.095,-4.1239,-4.0816,-4.0489,-4.0489,-4.0574,-4.0588,-4.0504,-4.0254,-3.9927,-3.9539,-3.901,-3.8357,-3.7564,-3.7546,-3.714,-3.6264,-3.6241,-3.5679,-3.4548,-3.4023,-3.384,-3.3953,-3.3437,-3.379,-3.4783,-3.3829,-3.094,-2.6406,-2.0514,-1.4512,-0.8886,-0.7028,-0.6335,-0.6242,-0.5604,-0.4919,-0.3973,-0.1089,0.1881,0.5033,0.9262,1.2711,1.5604,1.805,2.1113,2.4712,2.9326,3.054,3.0399,3.0393,3.04,3.0171,2.9231,2.8989,2.8996,2.8985,3.149,3.3817,3.378,3.3808,3.3805,3.3802,3.3784,3.3876,3.4171,3.4602,3.4868,3.4753,3.4866,3.4999,3.5115,3.6306,3.7162,3.7312,3.8864,3.9193,3.7509,3.7623,0.0,3.8065,3.8057,3.8859,4.0693,4.06,4.0403,4.0226,4.0042,4.058,4.1807,4.1527,4.1705,4.2244,4.0769,4.0242,4.0546,4.0204,4.007,4.007,4.007,4.0104,4.0117,4.0117,4.0093,3.9752,3.6627,3.5499,3.5504,-4.2515,-4.2617,-4.2198,-4.0972,-4.1924,-4.2725,-4.2257,-4.181,-4.1666,-4.2088,-4.1309,-4.0669,-4.0523,-4.0489,-4.0489,-4.0489,-4.0596,-4.0365,-3.9618,-3.9579,-3.9232,-3.849,-3.8469,-3.8058,-3.7191,-3.7064,-3.6399,-3.5181,-3.451,-3.4264,-3.4388,-3.3238,-3.3082,-3.3859,-3.5328,-3.436,-3.1048,-2.2884,-1.6673,-1.1963,-0.8265,-0.6442,-0.5838,-0.4503,-0.3112,-0.1551,0.0078,0.2936,0.6508,0.9796,1.3472,1.6774,1.7747,2.066,2.4583,2.907,3.041,3.0427,3.0403,3.0529,3.0472,2.9683,2.941,2.9423,2.9686,3.1843,3.3802,3.3815,3.3807,3.3815,3.3787,3.3797,3.3828,3.3883,3.4435,3.4728,3.4258,3.4942,3.5535,3.5783,3.6936,3.7821,3.8176,3.9438,4.0253,4.029,4.0588,4.0791,4.08,4.0797,4.0787,4.0789,4.055,4.0226,3.9813,3.9441,4.0052,4.1603,4.1268,4.1323,4.175,4.0631,4.0107,4.007,4.007,4.007,4.007,4.007,3.9999,3.9856,3.9516,3.9417,3.9101,3.6457,3.5493,3.5508,-4.3998,-4.3978,-4.3532,-4.2945,-4.3069,-4.3045,-4.2591,-4.2545,-4.2396,-4.1931,-4.1826,-4.1442,-4.0596,-4.0489,-4.0489,-4.0489,-4.0519,-4.0457,-4.0342,-4.0323,-3.9971,-3.9191,-3.9192,-3.8817,-3.7956,-3.732,-3.6378,-3.5115,-3.4993,-3.4753,-3.4386,-3.3844,-3.368,-3.3865,-3.5344,-3.5032,-3.3066,-2.8188,-2.072,-1.1966,-0.9753,-0.7116,-0.4433,-0.3575,-0.2019,0.0,0.2824,0.5108,0.757,1.1945,1.4656,1.6645,1.9431,2.0422,2.1817,2.8446,3.0494,3.0544,3.0434,3.1091,3.1817,3.1737,3.1356,3.1374,3.2757,3.3426,3.3802,3.3815,3.3807,3.3795,3.379,3.3806,3.3006,3.0538,3.271,3.3976,3.1807,3.3675,3.5152,3.4937,3.6556,3.7718,3.7792,3.9415,4.0529,4.0688,4.0711,4.0734,4.0801,4.0742,4.0718,4.0716,4.0248,3.9793,3.9403,3.9227,3.9973,4.1585,4.033,4.0446,4.175,4.0621,4.0103,4.007,4.007,4.007,4.007,4.007,3.9594,3.8689,3.6907,3.623,3.6153,3.566,3.5493,3.5508,-4.4482,-4.4318,-4.3942,-4.3384,-4.3836,-4.4055,-4.3445,-4.3607,-4.3528,-4.2761,-4.2324,-4.1692,-4.07,-4.061,-4.0588,-4.0504,-4.0489,-4.0489,-4.0489,-4.0489,-4.0315,-3.995,-3.9967,-3.9625,-3.8822,-3.8043,-3.7383,-3.682,-3.6499,-3.5879,-3.5002,-3.48,-3.4807,-3.502,-3.5693,-3.5611,-3.4866,-3.294,-2.5582,-1.4715,-0.85,-0.4327,-0.1854,-0.0927,0.0694,0.2924,0.641,0.9487,1.2359,1.5305,1.786,2.0029,2.0996,2.153,2.2954,2.8717,3.0571,3.0829,3.1125,3.1648,3.2248,3.29,3.3346,3.3727,3.4179,3.4352,3.434,3.4161,3.3938,3.3783,3.3802,3.3802,3.3437,3.2366,3.2162,3.2312,3.2862,3.399,3.486,3.5096,3.6309,3.742,3.8209,3.9593,4.053,4.0723,4.0746,4.0745,4.0754,4.0726,4.0677,4.06,4.0043,3.9573,3.9202,3.8718,3.925,4.083,3.958,3.9783,4.1313,4.0466,4.007,4.007,4.007,4.007,4.007,4.007,3.9813,3.916,3.6533,3.5504,3.5504,3.5489,3.5513,3.548,-4.4806,-4.4612,-4.4282,-4.3914,-4.4614,-4.5073,-4.4508,-4.476,-4.4628,-4.3545,-4.2813,-4.1974,-4.0812,-4.0667,-4.061,-4.0504,-4.0489,-4.0489,-4.0489,-4.0489,-4.0489,-4.0489,-4.0441,-4.0046,-3.9276,-3.8699,-3.837,-3.8277,-3.7887,-3.7057,-3.587,-3.6122,-3.5773,-3.4816,-3.3566,-3.4109,-3.5996,-3.6002,-2.4164,-0.5136,-0.166,0.0212,0.1068,0.2371,0.4348,0.6761,1.0187,1.3931,1.7362,1.8644,2.0883,2.3048,2.23,2.3096,2.509,2.8938,3.0379,3.0836,3.1442,3.1952,3.2535,3.3404,3.4531,3.5304,3.4889,3.4831,3.4785,3.451,3.4172,3.39,3.3891,3.3902,3.3877,3.3819,3.2296,3.1805,3.3805,3.4466,3.494,3.5432,3.6247,3.719,3.8342,3.948,4.0273,4.0619,4.0683,4.0713,4.0688,4.0611,4.0432,4.0193,3.98,3.9364,3.883,3.8209,3.8617,4.0036,3.9045,3.9403,4.0856,4.0319,4.007,4.007,4.007,4.007,4.007,4.007,3.9982,3.9544,3.7029,3.591,3.5707,3.5533,3.5504,3.5504,-4.54,-4.5263,-4.512,-4.538,-4.56,-4.5725,-4.5686,-4.5857,-4.5376,-4.3639,-4.3339,-4.2635,-4.0889,-4.0582,-4.0504,-4.0504,-4.0489,-4.0489,-4.0489,-4.0489,-4.0489,-4.0489,-4.025,-3.9738,-3.886,-3.8967,-3.8769,-3.8206,-3.841,-3.7987,-3.6986,-3.8004,-3.5984,-3.1341,-2.6313,-2.8499,-3.6009,-3.6002,-0.9681,3.0611,1.4574,0.6276,0.3902,0.625,0.891,1.1663,1.3776,1.7118,2.0665,2.1403,2.2432,2.3344,2.3231,2.4706,2.683,2.8607,2.9596,3.0239,3.0599,3.1845,3.3031,3.306,3.4139,3.5196,3.5083,3.4889,3.4713,3.4693,3.4423,3.4157,3.4152,3.4171,3.3519,3.1505,3.3164,3.4147,3.2522,3.4312,3.5712,3.552,3.6474,3.7227,3.7396,3.8612,3.9676,4.0369,4.0473,4.0578,4.0693,4.0363,3.9859,3.9238,3.9462,3.9096,3.7995,3.7928,3.8474,3.9532,3.8893,3.9403,4.0856,4.0319,4.007,4.007,4.007,4.007,4.007,4.007,3.9679,3.8903,3.7955,3.7184,3.6446,3.5767,3.5504,3.5504,-4.5566,-4.5495,-4.5475,-4.5692,-4.5875,-4.5994,-4.5998,-4.6113,-4.5597,-4.3827,-4.359,-4.2856,-4.0974,-4.0732,-4.0641,-4.0519,-4.0489,-4.0489,-4.0489,-4.0339,-4.025,-4.025,-3.9963,-3.9728,-3.9605,-3.9711,-3.9793,-3.9812,-4.0078,-4.0014,-3.9603,-3.7664,-3.2984,-2.6093,-2.4023,-1.9572,-1.3693,-1.3657,0.3528,3.0418,2.6018,2.1248,1.6455,1.4112,1.433,1.6046,1.7708,1.9909,2.2156,2.3029,2.4411,2.5623,2.4993,2.6328,2.8401,2.988,3.0919,3.1634,3.1786,3.2494,3.3295,3.379,3.4739,3.5479,3.5426,3.5331,3.5143,3.4773,3.4715,3.4675,3.4381,3.43,3.4198,3.3807,3.5002,3.5607,3.4597,3.5338,3.6021,3.6226,3.6368,3.6723,3.7421,3.8294,3.8964,3.9374,3.9834,4.0043,4.0021,3.988,3.9576,3.9107,3.9212,3.8822,3.7893,3.7614,3.7972,3.8936,3.8391,3.8935,4.0417,4.0204,4.007,4.007,4.007,4.007,4.007,4.007,3.961,3.8854,3.8092,3.7338,3.6492,3.5782,3.5504,3.5504,-4.5713,-4.5677,-4.5708,-4.5808,-4.5982,-4.6089,-4.6108,-4.6202,-4.5761,-4.4234,-4.3828,-4.3034,-4.1384,-4.0954,-4.0743,-4.0568,-4.0559,-4.0545,-4.0504,-4.025,-4.0002,-3.9797,-3.9576,-3.9599,-3.9922,-4.004,-4.0256,-4.0606,-4.1019,-4.1208,-4.1128,-3.7356,-3.1508,-2.3899,-1.8315,-0.9946,0.0394,0.6202,1.5973,2.7991,3.2276,3.1366,2.6851,2.1355,1.9981,2.1092,2.1793,2.3206,2.4759,2.4961,2.6373,2.7753,2.6421,2.7604,2.9671,3.081,3.1789,3.2542,3.2593,3.3089,3.3746,3.4355,3.5139,3.5737,3.5643,3.5624,3.5494,3.5073,3.5035,3.5,3.4668,3.4619,3.4756,3.5172,3.5932,3.636,3.6186,3.6415,3.6666,3.6856,3.6577,3.6592,3.7184,3.7679,3.8123,3.842,3.8962,3.9192,3.8976,3.9202,3.9163,3.8726,3.8971,3.8696,3.7893,3.7433,3.7474,3.803,3.7942,3.8548,3.9749,3.9969,4.007,4.007,4.007,4.007,4.007,4.007,3.9782,3.9209,3.8206,3.7456,3.6828,3.5652,3.5329,3.5469,-4.59,-4.5847,-4.582,-4.5881,-4.6001,-4.6108,-4.6108,-4.6204,-4.5935,-4.4922,-4.4101,-4.3205,-4.2207,-4.1315,-4.077,-4.0715,-4.0703,-4.063,-4.0504,-4.025,-3.9797,-3.9133,-3.908,-3.9264,-3.9599,-3.9713,-3.9945,-4.02,-4.0859,-4.1194,-4.1127,-3.7357,-3.2337,-2.5701,-0.7934,-0.0,0.1222,1.9727,2.7565,2.7939,3.29,3.4366,3.2978,2.7156,2.5858,2.7009,2.5908,2.7133,2.8958,2.7434,2.8174,2.9343,2.736,2.8433,3.0503,3.1073,3.1882,3.2619,3.2619,3.3547,3.4505,3.4498,3.5215,3.5875,3.5722,3.5639,3.5603,3.5603,3.5327,3.5105,3.5105,3.5105,3.5035,3.4753,3.559,3.6406,3.6653,3.7389,3.7742,3.7271,3.719,3.6999,3.6457,3.6707,3.7075,3.7554,3.7908,3.7972,3.7605,3.8343,3.8493,3.7928,3.8667,3.8715,3.7893,3.7433,3.7085,3.6835,3.755,3.8294,3.9022,3.9749,4.007,4.007,4.007,4.007,4.007,4.007,4.0087,3.9952,3.843,3.7822,3.7494,3.5293,3.4916,3.5377,-4.5907,-4.5847,-4.5844,-4.6014,-4.5995,-4.6008,-4.6202,-4.6268,-4.574,-4.4165,-4.3752,-4.2984,-4.1367,-4.0952,-4.0797,-4.0768,-4.077,-4.0632,-4.0308,-4.0213,-3.9948,-3.9462,-3.9438,-3.9599,-3.9943,-3.9985,-4.006,-4.02,-4.0345,-4.0693,-4.1116,-3.7361,-3.2328,-2.5702,-0.7942,-0.0,0.097,1.6219,2.1993,2.1613,3.0349,3.4055,3.4004,3.0717,3.0133,3.0933,2.9568,2.9796,3.0641,3.004,2.9706,2.9661,3.0664,3.1055,3.1323,3.2527,3.3617,3.4425,3.4425,3.4835,3.5146,3.4623,3.5242,3.5914,3.5741,3.5679,3.5591,3.5315,3.5324,3.532,3.5122,3.5239,3.5289,3.5016,3.5571,3.6179,3.6646,3.722,3.7515,3.7234,3.719,3.6825,3.5941,3.6281,3.6596,3.6738,3.7198,3.7399,3.7307,3.7559,3.7612,3.7433,3.7959,3.7993,3.7396,3.7248,3.7211,3.7317,3.7704,3.8294,3.9022,3.9749,4.007,4.007,4.007,4.007,4.007,4.007,3.9782,3.9193,3.8745,3.7889,3.6826,3.5675,3.5064,3.4748,-4.606,-4.5979,-4.5963,-4.6144,-4.6072,-4.6022,-4.6208,-4.6175,-4.5625,-4.422,-4.3773,-4.3037,-4.1553,-4.1131,-4.0949,-4.0889,-4.0824,-4.0635,-4.0231,-4.0333,-4.0233,-3.9819,-3.9903,-3.9944,-3.9901,-3.9901,-3.9766,-3.9494,-3.989,-4.0296,-4.0644,-3.8729,-3.3753,-2.573,-0.7896,0.3018,0.8689,1.7073,2.1667,2.3946,3.0754,3.3774,3.4092,3.2626,3.2337,3.2666,3.2194,3.191,3.177,3.1824,3.1064,3.0404,3.2258,3.2527,3.24,3.3446,3.4526,3.5343,3.5324,3.5458,3.5485,3.505,3.5409,3.5853,3.5782,3.5708,3.5579,3.535,3.5403,3.5417,3.5138,3.5223,3.5223,3.4813,3.531,3.582,3.5996,3.6887,3.7298,3.6753,3.6978,3.6786,3.5694,3.5898,3.6097,3.6097,3.6357,3.6563,3.6563,3.6764,3.6865,3.6865,3.736,3.7506,3.721,3.6999,3.6951,3.7067,3.7337,3.7686,3.8142,3.9174,3.9648,3.9665,3.9952,4.007,4.007,4.007,3.9782,3.9315,3.9016,3.8173,3.6914,3.568,3.4637,3.3749,-4.6229,-4.6166,-4.6117,-4.6269,-4.6178,-4.6093,-4.6108,-4.5936,-4.5518,-4.4684,-4.3929,-4.3134,-4.2275,-4.1572,-4.1131,-4.1026,-4.0908,-4.0674,-4.0275,-4.0546,-4.0524,-4.0158,-4.0356,-4.0175,-3.9538,-3.9561,-3.9189,-3.8414,-3.9488,-3.989,-3.9688,-4.0732,-3.5084,-2.3314,-0.5219,0.9426,2.0616,2.101,2.4976,3.1161,3.2765,3.339,3.3379,3.3217,3.3011,3.2955,3.3903,3.355,3.2655,3.3045,3.2416,3.1656,3.2762,3.3278,3.3549,3.401,3.4823,3.5558,3.548,3.5506,3.5521,3.5558,3.5613,3.5668,3.5811,3.571,3.5561,3.5528,3.547,3.5354,3.5105,3.5051,3.487,3.4292,3.4846,3.5236,3.5,3.6318,3.6944,3.5951,3.6657,3.6786,3.5694,3.5622,3.5622,3.5622,3.5622,3.5622,3.5622,3.6054,3.6291,3.6232,3.6768,3.7002,3.6929,3.6545,3.6316,3.6392,3.6655,3.6772,3.6823,3.8244,3.8937,3.9039,3.9698,4.002,4.007,4.007,4.007,4.002,3.9315,3.8525,3.753,3.5598,3.3996,3.2702,-4.5988,-4.5913,-4.5922,-4.6108,-4.6026,-4.5989,-4.6078,-4.5533,-4.4766,-4.3806,-4.2946,-4.213,-4.1358,-4.114,-4.1064,-4.1151,-4.1128,-4.0996,-4.0684,-4.0751,-4.0671,-4.0422,-4.0286,-3.9806,-3.8988,-3.9236,-3.9058,-3.8414,-3.9024,-3.8794,-3.7843,-4.0127,-2.8496,-0.486,1.559,2.3188,2.0771,2.3886,2.612,2.7798,3.0588,3.1726,3.1873,3.3016,3.3917,3.4485,3.4621,3.4715,3.4785,3.4569,3.438,3.4287,3.4596,3.435,3.4139,3.5064,3.5308,3.5278,3.5259,3.5082,3.4958,3.5207,3.5264,3.5247,3.5329,3.5333,3.5205,3.4945,3.4889,3.487,3.4812,3.4793,3.4655,3.4246,3.4092,3.4137,3.4467,3.538,3.5852,3.5483,3.6468,3.6786,3.5694,3.5622,3.5622,3.5622,3.5622,3.5622,3.5622,3.5694,3.5526,3.5001,3.5508,3.5511,3.4935,3.5413,3.5891,3.6392,3.6655,3.6772,3.6806,3.7736,3.8447,3.9005,3.9157,3.9546,4.007,4.007,4.007,4.007,3.9901,3.8995,3.771,3.6717,3.5062,3.3168,-4.5861,-4.587,-4.5884,-4.6001,-4.5923,-4.5884,-4.6001,-4.5616,-4.4892,-4.3663,-4.3104,-4.2378,-4.1216,-4.1103,-4.1126,-4.1191,-4.1149,-4.1023,-4.0809,-4.077,-4.0622,-4.0319,-4.0177,-3.9615,-3.8627,-3.8214,-3.7685,-3.6964,-3.7792,-3.728,-3.5577,-3.94,-2.6462,0.0784,1.8456,2.6094,2.5853,2.6278,2.6477,2.6659,2.885,2.9736,2.9901,3.1464,3.2328,3.2878,3.3779,3.4622,3.5286,3.4822,3.4948,3.5288,3.5229,3.5018,3.4899,3.5327,3.5335,3.5172,3.4984,3.4831,3.4735,3.492,3.4942,3.4964,3.5153,3.517,3.5076,3.4753,3.4694,3.4653,3.4508,3.4445,3.4357,3.4068,3.3652,3.3619,3.4248,3.4864,3.5226,3.5248,3.6173,3.6481,3.5694,3.5622,3.5622,3.5622,3.5622,3.5622,3.5622,3.5622,3.5299,3.4624,3.4858,3.4667,3.3941,3.4364,3.4888,3.5565,3.5994,3.6231,3.6248,3.7026,3.777,3.8481,3.8853,3.9177,3.9542,3.9542,3.9332,3.8995,3.8995,3.8246,3.7125,3.6474,3.4945,3.3125,-4.5609,-4.5689,-4.57,-4.5763,-4.5755,-4.5782,-4.5881,-4.5754,-4.5153,-4.3743,-4.3455,-4.2809,-4.1328,-4.1191,-4.1191,-4.1191,-4.1103,-4.0964,-4.0809,-4.0703,-4.0519,-4.023,-4.0101,-3.9599,-3.8619,-3.7576,-3.6081,-3.4031,-3.5761,-3.3436,-2.7377,-2.72,-1.5494,0.5884,1.7355,2.5837,3.1297,2.786,2.6544,2.6882,2.7843,2.8252,2.8406,2.9789,3.0389,3.0719,3.2408,3.3554,3.4339,3.4153,3.4485,3.5009,3.517,3.5324,3.543,3.5247,3.5116,3.4964,3.4693,3.4591,3.4569,3.4593,3.4614,3.4693,3.4964,3.5002,3.4851,3.451,3.4445,3.4357,3.408,3.3963,3.3862,3.3716,3.3284,3.3221,3.3978,3.4389,3.4673,3.4858,3.5594,3.5959,3.565,3.5622,3.5622,3.5622,3.5622,3.5622,3.5622,3.5622,3.5299,3.4624,3.4479,3.4087,3.3443,3.3443,3.3684,3.4284,3.4958,3.5316,3.5441,3.6127,3.6771,3.7382,3.8103,3.8484,3.8564,3.8482,3.8084,3.7526,3.7377,3.6826,3.6029,3.5186,3.3848,3.2627,-4.4778,-4.4778,-4.4881,-4.5218,-4.537,-4.5537,-4.5842,-4.5404,-4.4645,-4.357,-4.2873,-4.2119,-4.113,-4.1128,-4.1191,-4.1191,-4.1171,-4.1077,-4.0809,-4.0567,-4.0486,-4.061,-4.0109,-3.97,-3.9442,-3.9049,-3.5476,-2.8589,-3.2258,-2.3168,-0.1721,1.9932,2.9058,2.7316,2.9185,3.0555,3.1258,2.7669,2.6799,2.7928,2.8587,2.887,2.8996,2.9936,3.0718,3.1394,3.1652,3.1358,3.105,3.2312,3.2816,3.3179,3.4731,3.5059,3.4965,3.5134,3.4788,3.433,3.4288,3.4093,3.3979,3.4218,3.4288,3.4288,3.4311,3.4334,3.4152,3.3533,3.3411,3.3382,3.3325,3.3009,3.2854,3.3225,3.2565,3.2265,3.3066,3.3547,3.3792,3.3649,3.4313,3.4982,3.5554,3.5622,3.5622,3.5622,3.5622,3.5622,3.5622,3.5622,3.5299,3.4624,3.4037,3.3391,3.2749,3.2749,3.2788,3.2895,3.3547,3.4186,3.4736,3.4851,3.4988,3.5162,3.5856,3.6512,3.7078,3.6853,3.6701,3.652,3.5628,3.4832,3.4022,3.2617,3.166,3.125,-4.4553,-4.458,-4.4713,-4.5069,-4.5259,-4.5471,-4.5833,-4.565,-4.4998,-4.3685,-4.3238,-4.2513,-4.1156,-4.1126,-4.1191,-4.1191,-4.1128,-4.0944,-4.0607,-4.0616,-4.0502,-4.0223,-4.0158,-3.99,-3.9387,-3.1299,-2.6888,-2.6422,-2.5333,-1.4976,0.4403,2.9496,3.8534,3.3728,3.2166,3.1499,3.128,2.7624,2.7247,2.8919,2.7346,2.767,2.9066,2.9442,3.0072,3.0881,3.133,3.0953,3.0335,3.1199,3.1882,3.2651,3.4167,3.4695,3.4741,3.4666,3.4439,3.4171,3.4018,3.3876,3.3815,3.3935,3.3986,3.3986,3.3986,3.3986,3.3884,3.3606,3.3522,3.3522,3.3522,3.3166,3.2952,3.3184,3.2631,3.2617,3.3809,3.4182,3.4496,3.5005,3.5351,3.5566,3.5588,3.5622,3.5622,3.5622,3.5622,3.5622,3.5622,3.5622,3.5299,3.4624,3.4333,3.3836,3.3198,3.2788,3.2788,3.3145,3.3093,3.3391,3.4037,3.4037,3.4005,3.399,3.4643,3.4445,3.3776,3.395,3.3389,3.2403,3.1969,3.1938,3.2203,3.1875,3.1295,3.0798]},{"header":{"parameterUnit":"m.s-1","parameterCategory":1,"la1":30.6,"la2":28.766,"lo1":-90.7593,"lo2":-88.6598,"dx":0.0162,"dy":0.0183,"nx":116,"ny":114,"refTime":"2022-12-25T18:00:00:Z","depth":0,"parameterNumber":3,"parameterNumberName":"V-component_of_WINDS"},"data":[0.0,0.0,0.0,0.0,0.0,0.0,0.0,0.0,0.0,0.0,0.0,0.0,0.0,0.0,0.0,0.0,0.0,0.0,0.0,0.0,0.0,0.0,0.0,0.0,0.0,0.0,0.0,0.0,0.0,0.0,0.0,0.0,0.0,0.0,0.0,0.0,0.0,0.0,0.0,0.0,0.0,0.0,0.0,0.0,0.0,0.0,0.0,0.0,0.0,0.0,0.0,0.0,0.0,0.0,0.0,0.0,0.0,0.0,0.0,0.0,0.0,0.0,0.0,0.0,0.0,0.0,0.0,0.0,0.0,0.0,0.0,0.0,0.0,0.0,0.0,0.0,0.0,0.0,0.0,0.0,0.0,0.0,0.0,0.0,0.0,0.0,0.0,0.0,0.0,0.0,0.0,0.0,0.0,0.0,0.0,0.0,0.0,0.0,0.0,0.0,0.0,0.0,0.0,0.0,0.0,0.0,0.0,0.0,0.0,0.0,0.0,0.0,0.0,0.0,0.0,0.0,0.0,0.0,0.0,0.0,0.0,0.0,0.0,0.0,0.0,0.0,0.0,0.0,0.0,0.0,0.0,0.0,0.0,0.0,0.0,0.0,0.0,0.0,0.0,0.0,0.0,0.0,0.0,0.0,0.0,0.0,0.0,0.0,0.0,0.0,0.0,0.0,0.0,0.0,0.0,0.0,0.0,0.0,0.0,0.0,0.0,0.0,0.0,0.0,0.0,0.0,0.0,0.0,0.0,0.0,0.0,0.0,0.0,0.0,0.0,0.0,0.0,0.0,0.0,0.0,0.0,0.0,0.0,0.0,0.0,0.0,0.0,0.0,0.0,0.0,0.0,0.0,0.0,0.0,0.0,0.0,0.0,0.0,0.0,0.0,0.0,0.0,0.0,0.0,0.0,0.0,0.0,0.0,0.0,0.0,0.0,0.0,0.0,0.0,0.0,0.0,0.0,0.0,0.0,0.0,0.0,0.0,0.0,0.0,0.0,0.0,0.0,0.0,0.0,0.0,0.0,0.0,0.0,0.0,0.0,0.0,0.0,0.0,0.0,0.0,0.0,0.0,0.0,0.0,0.0,0.0,0.0,0.0,0.0,0.0,0.0,0.0,0.0,0.0,0.0,0.0,0.0,0.0,0.0,0.0,0.0,0.0,0.0,0.0,0.0,0.0,0.0,0.0,0.0,0.0,0.0,0.0,0.0,0.0,0.0,0.0,0.0,0.0,0.0,0.0,0.0,0.0,0.0,0.0,0.0,0.0,0.0,0.0,0.0,0.0,0.0,0.0,0.0,0.0,0.0,0.0,0.0,0.0,0.0,0.0,0.0,0.0,0.0,0.0,0.0,0.0,0.0,0.0,0.0,0.0,0.0,0.0,0.0,0.0,0.0,0.0,0.0,0.0,0.0,0.0,0.0,0.0,0.0,0.0,0.0,0.0,0.0,0.0,0.0,0.0,0.0,0.0,0.0,0.0,0.0,0.0,0.0,0.0,0.0,0.0,0.0,0.0,0.0,0.0,0.0,0.0,0.0,0.0,0.0,0.0,0.0,0.0,0.0,0.0,0.0,0.0,0.0,0.0,0.0,0.0,0.0,0.0,0.0,0.0,0.0,0.0,0.0,0.0,0.0,0.0,0.0,0.0,0.0,0.0,0.0,0.0,0.0,0.0,0.0,0.0,0.0,0.0,0.0,0.0,0.0,0.0,0.0,0.0,0.0,0.0,0.0,0.0,0.0,0.0,0.0,0.0,0.0,0.0,0.0,0.0,0.0,0.0,0.0,0.0,0.0,0.0,0.0,0.0,0.0,0.0,0.0,0.0,0.0,0.0,0.0,0.0,0.0,0.0,0.0,0.0,0.0,0.0,0.0,0.0,0.0,0.0,0.0,0.0,0.0,0.0,0.0,0.0,0.0,0.0,0.0,0.0,0.0,0.0,0.0,0.0,0.0,0.0,0.0,0.0,0.0,0.0,0.0,0.0,0.0,0.0,0.0,0.0,0.0,0.0,0.0,0.0,0.0,0.0,0.0,0.0,0.0,0.0,0.0,0.0,0.0,0.0,0.0,0.0,0.0,0.0,0.0,0.0,0.0,0.0,0.0,0.0,0.0,0.0,0.0,0.0,0.0,0.0,0.0,0.0,0.0,0.0,0.0,0.0,0.0,0.0,0.0,0.0,0.0,0.0,0.0,0.0,0.0,0.0,0.0,0.0,0.0,0.0,0.0,0.0,0.0,0.0,0.0,0.0,0.0,0.0,0.0,0.0,0.0,0.0,0.0,0.0,0.0,0.0,0.0,0.0,0.0,0.0,0.0,0.0,0.0,0.0,0.0,0.0,0.0,0.0,0.0,0.0,0.0,0.0,0.0,0.0,0.0,0.0,0.0,0.0,0.0,0.0,0.0,0.0,0.0,0.0,0.0,0.0,0.0,0.0,0.0,0.0,0.0,0.0,0.0,0.0,0.0,0.0,0.0,0.0,0.0,0.0,0.0,0.0,0.0,0.0,0.0,0.0,0.0,0.0,0.0,0.0,0.0,0.0,0.0,0.0,0.0,0.0,0.0,0.0,0.0,0.0,0.0,0.0,0.0,0.0,0.0,0.0,0.0,0.0,0.0,0.0,0.0,0.0,0.0,0.0,0.0,0.0,0.0,0.0,0.0,0.0,0.0,0.0,0.0,0.0,0.0,0.0,0.0,0.0,0.0,0.0,0.0,0.0,0.0,0.0,0.0,0.0,0.0,0.0,0.0,0.0,0.0,0.0,0.0,0.0,0.0,0.0,0.0,0.0,0.0,0.0,0.0,0.0,0.0,0.0,0.0,0.0,0.0,0.0,0.0,0.0,0.0,0.0,0.0,0.0,0.0,0.0,0.0,0.0,0.0,0.0,0.0,0.0,0.0,0.0,0.0,0.0,0.0,0.0,0.0,0.0,0.0,0.0,0.0,0.0,0.0,0.0,0.0,0.0,0.0,0.0,0.0,0.0,0.0,0.0,0.0,0.0,0.0,0.0,0.0,0.0,0.0,0.0,0.0,0.0,0.0,0.0,0.0,0.0,0.0,0.0,0.0,0.0,0.0,0.0,0.0,0.0,0.0,0.0,0.0,0.0,0.0,0.0,0.0,0.0,0.0,0.0,0.0,0.0,0.0,0.0,0.0,0.0,0.0,0.0,0.0,0.0,0.0,0.0,0.0,0.0,0.0,0.0,0.0,0.0,0.0,0.0,0.0,0.0,0.0,0.0,0.0,0.0,0.0,0.0,0.0,0.0,0.0,0.0,0.0,0.0,0.0,0.0,0.0,0.0,0.0,0.0,0.0,0.0,0.0,0.0,0.0,0.0,0.0,0.0,0.0,0.0,0.0,0.0,0.0,0.0,0.0,0.0,0.0,0.0,0.0,0.0,0.0,0.0,0.0,0.0,0.0,0.0,0.0,0.0,0.0,0.0,0.0,0.0,0.0,0.0,0.0,0.0,0.0,0.0,0.0,0.0,0.0,0.0,0.0,0.0,0.0,0.0,0.0,0.0,0.0,0.0,0.0,0.0,0.0,0.0,0.0,0.0,0.0,0.0,0.0,0.0,0.0,0.0,0.0,0.0,0.0,0.0,0.0,0.0,0.0,0.0,0.0,0.0,0.0,0.0,0.0,0.0,0.0,0.0,0.0,0.0,0.0,0.0,0.0,0.0,0.0,0.0,0.0,0.0,0.0,0.0,0.0,0.0,0.0,0.0,0.0,0.0,0.0,0.0,0.0,0.0,0.0,0.0,0.0,0.0,0.0,0.0,0.0,0.0,0.0,0.0,0.0,0.0,0.0,0.0,0.0,0.0,0.0,0.0,0.0,0.0,0.0,0.0,0.0,0.0,0.0,0.0,0.0,0.0,0.0,0.0,0.0,0.0,0.0,0.0,0.0,0.0,0.0,0.0,0.0,0.0,0.0,0.0,0.0,0.0,0.0,0.0,0.0,0.0,0.0,0.0,0.0,0.0,0.0,0.0,0.0,0.0,0.0,0.0,0.0,0.0,0.0,0.0,0.0,0.0,0.0,0.0,0.0,0.0,0.0,0.0,0.0,0.0,0.0,0.0,0.0,0.0,0.0,0.0,0.0,0.0,0.0,0.0,0.0,0.0,0.0,0.0,0.0,0.0,0.0,0.0,0.0,0.0,0.0,0.0,0.0,0.0,0.0,0.0,0.0,0.0,0.0,0.0,0.0,0.0,0.0,0.0,0.0,0.0,0.0,0.0,0.0,0.0,0.0,0.0,0.0,0.0,0.0,0.0,0.0,0.0,0.0,0.0,0.0,0.0,0.0,0.0,0.0,0.0,0.0,0.0,0.0,0.0,0.0,0.0,0.0,0.0,0.0,0.0,0.0,0.0,0.0,0.0,0.0,0.0,0.0,0.0,0.0,0.0,0.0,0.0,0.0,0.0,0.0,0.0,0.0,0.0,0.0,0.0,0.0,0.0,0.0,0.0,0.0,0.0,0.0,0.0,0.0,0.0,0.0,0.0,0.0,0.0,0.0,0.0,0.0,0.0,0.0,0.0,0.0,0.0,0.0,0.0,0.0,0.0,0.0,0.0,0.0,0.0,0.0,0.0,0.0,0.0,0.0,0.0,0.0,0.0,0.0,0.0,0.0,0.0,0.0,0.0,0.0,0.0,0.0,0.0,0.0,0.0,0.0,0.0,0.0,0.0,0.0,0.0,0.0,0.0,0.0,0.0,0.0,0.0,0.0,0.0,0.0,0.0,0.0,0.0,0.0,0.0,0.0,0.0,0.0,0.0,0.0,0.0,0.0,0.0,0.0,0.0,0.0,0.0,0.0,0.0,0.0,0.0,0.0,0.0,0.0,0.0,0.0,0.0,0.0,0.0,0.0,0.0,0.0,0.0,0.0,0.0,0.0,0.0,0.0,0.0,0.0,0.0,0.0,0.0,0.0,0.0,0.0,0.0,0.0,0.0,0.0,0.0,0.0,0.0,0.0,0.0,0.0,0.0,0.0,0.0,0.0,0.0,0.0,0.0,0.0,0.0,0.0,0.0,0.0,0.0,0.0,0.0,0.0,0.0,0.0,0.0,0.0,0.0,0.0,0.0,0.0,0.0,0.0,0.0,0.0,0.0,0.0,0.0,0.0,0.0,0.0,0.0,0.0,0.0,0.0,0.0,0.0,0.0,0.0,0.0,0.0,0.0,0.0,0.0,0.0,0.0,0.0,0.0,0.0,0.0,0.0,0.0,0.0,0.0,0.0,0.0,0.0,0.0,0.0,0.0,0.0,0.0,0.0,0.0,0.0,0.0,0.0,0.0,0.0,0.0,0.0,0.0,0.0,0.0,0.0,0.0,0.0,0.0,0.0,0.0,0.0,0.0,0.0,0.0,0.0,0.0,0.0,0.0,0.0,0.0,0.0,0.0,0.0,0.0,0.0,0.0,0.0,0.0,0.0,0.0,0.0,0.0,0.0,0.0,0.0,0.0,0.0,0.0,0.0,0.0,0.0,0.0,0.0,0.0,0.0,0.0,0.0,0.0,0.0,0.0,0.0,0.0,0.0,0.0,0.0,0.0,0.0,0.0,0.0,0.0,0.0,0.0,0.0,0.0,0.0,0.0,0.0,0.0,0.0,0.0,0.0,0.0,0.0,0.0,0.0,0.0,0.0,0.0,0.0,0.0,0.0,0.0,0.0,0.0,0.0,0.0,0.0,0.0,0.0,0.0,0.0,0.0,0.0,0.0,0.0,0.0,0.0,0.0,0.0,0.0,0.0,0.0,0.0,0.0,0.0,0.0,0.0,0.0,0.0,0.0,0.0,0.0,0.0,0.0,0.0,0.0,0.0,0.0,0.0,0.0,0.0,0.0,0.0,0.0,0.0,0.0,0.0,0.0,0.0,0.0,0.0,0.0,0.0,0.0,0.0,0.0,0.0,0.0,0.0,0.0,0.0,0.0,0.0,0.0,0.0,0.0,0.0,0.0,0.0,0.0,0.0,0.0,0.0,0.0,0.0,0.0,0.0,0.0,0.0,0.0,0.0,0.0,0.0,0.0,0.0,0.0,0.0,0.0,0.0,0.0,0.0,0.0,0.0,0.0,0.0,0.0,0.0,0.0,0.0,0.0,-0.2467,0.0,0.0,0.0,0.0,0.0,0.0,0.0,0.0,0.0,0.0,0.0,0.0,0.0,0.0,0.0,0.0,0.0,0.0,0.0,0.0,0.0,0.0,0.0,0.0,0.2055,0.1968,0.2406,0.2636,0.0,0.0,0.0,0.0,0.0,0.0,0.0,0.0,0.0,0.0,0.0,0.0,0.0,-0.2331,-0.1982,-0.1323,0.0,0.0,0.0,0.0,0.0,0.0,0.0,0.0,0.0,0.0,0.0,0.0,0.0,0.0,0.0,0.0,0.0,0.0,0.0,0.0,0.0,0.0,0.0,0.0,0.0,0.0,0.0,0.0,0.0,0.0,0.0,0.0,0.0,0.0,0.0,0.0,0.0,0.0,0.0,0.0,0.0,0.0,0.0,0.0,0.0,0.0,0.0,0.0,0.0,0.0,0.0,0.0,0.0,0.0,0.0,0.0,0.0,0.0,0.0,0.0,0.0,0.0,0.0,0.0,0.0,0.0,0.0,0.0,0.0,0.0,0.0,0.0,-0.2565,0.0,0.0,0.0,0.0,0.0,0.0,0.0,0.0,0.0,0.0,0.0,0.0,0.0,0.0,0.0,0.0,0.0,0.0,0.0,0.0,0.0,0.271,0.2733,0.2203,0.2114,0.2821,0.3111,0.371,0.4788,0.5076,0.0,0.0,0.0,0.0,0.0,0.0,0.0,0.0,0.0,0.0,0.0,-0.3594,0.0,0.0,0.0,0.0,0.0,0.0,0.0,0.0,0.0,0.0,0.0,0.0,0.0,0.0,0.0,0.0,0.0,0.0,0.0,0.0,0.0,0.0,0.0,0.0,0.0,0.0,0.0,0.0,0.0,0.0,0.0,0.0,0.0,0.0,0.0,0.0,0.0,0.0,0.0,0.0,0.0,0.0,0.0,0.0,0.0,0.0,0.0,0.0,0.0,0.0,0.0,0.0,0.0,0.0,0.0,0.0,0.0,0.0,0.0,0.0,0.0,0.0,0.0,0.0,0.0,0.0,-0.3385,-0.3684,-0.406,-0.406,-0.4363,-0.4857,-0.4358,-0.3854,-0.3278,0.0,0.0,0.0,0.0,0.0,0.0,0.0,0.0,0.0,0.0,0.0,0.0,0.0,0.0,0.0,0.0,0.0,0.0,0.0,0.0,0.2989,0.2874,0.2343,0.2416,0.3545,0.4264,0.4877,0.5435,0.6105,0.0,0.0,0.0,0.0,0.3956,0.2793,0.1917,0.0,0.0,0.0,-0.3055,0.0,0.0,0.0,0.0,0.0,0.0,0.0,0.0,0.0,0.0,0.0,0.0,0.0,0.0,0.0,0.0,0.0,0.0,0.0,0.0,0.0,0.0,0.0,0.0,0.0,0.0,0.0,0.0,0.0,0.0,0.0,0.0,0.0,0.0,0.0,0.0,0.0,0.0,0.0,0.0,0.0,0.0,0.0,0.0,0.0,0.0,0.0,-1.32,-1.4667,0.0,0.0,0.0,0.0,0.0,0.0,0.0,0.0,0.0,0.0,0.0,0.0,0.0,-0.2633,-0.2685,-0.3544,-0.3613,-0.2805,-0.3634,-0.4109,-0.4178,-0.4178,-0.4691,-0.565,-0.5569,0.0,-0.3793,-0.2518,0.0,0.0,0.0,0.0,0.0,0.0,0.0,0.0,0.0,0.0,0.0,0.0,0.0,0.0,0.0,0.0,0.0,0.0,0.0,0.0,0.0,0.2679,0.2901,0.4131,0.5497,0.6374,0.6484,0.746,0.0,0.0,0.0,0.4628,0.4031,0.2671,0.1295,0.0,0.0,0.0,0.0,0.0,0.0,0.0,0.0,0.0,0.0,0.0,0.0,0.0,0.0,0.0,0.0,0.0,0.0,0.0,0.0,0.0,0.0,0.0,0.0,0.0,0.0,0.0,0.0,0.0,0.0,0.0,0.0,0.0,0.0,0.0,0.0,0.0,0.0,0.0,0.0,0.0,0.0,0.0,0.0,0.0,0.0,0.0,0.0,0.0,0.0,-1.1399,-1.3429,-1.4454,-1.4574,-1.3628,0.0,0.0,0.0,0.0,0.0,0.0,0.0,0.0,0.0,-0.3063,-0.3632,-0.3795,-0.3556,-0.4602,-0.4543,-0.3584,-0.4567,-0.4499,-0.3411,-0.4571,-0.5006,-0.4934,-0.5512,-0.5477,-0.4888,-0.353,-0.2417,-0.1509,0.0,0.0,0.0,0.0,-0.1872,-0.2265,0.0,0.0,0.0,0.0,0.0,0.0,0.0,0.0,0.0,0.0,0.0,0.0,0.3564,0.3454,0.3906,0.5064,0.6936,0.8149,0.8277,0.8866,0.867,0.0,0.5972,0.4845,0.407,0.2483,0.0842,0.0,0.0,0.0,0.0,0.0,0.0,0.0,0.0,0.0,0.0,0.0,0.0,0.0,0.0,0.0,0.0,0.0,0.0,0.0,0.0,0.0,0.0,0.0,0.0,0.0,0.0,0.0,0.0,0.0,0.0,0.0,0.0,0.0,0.0,0.0,0.0,0.0,0.0,0.0,0.0,0.0,0.0,0.0,0.0,0.0,0.0,0.0,0.0,0.0,0.0,-1.239,-1.4038,-1.469,-1.6047,-1.5716,0.0,0.0,0.0,0.0,0.0,0.0,-0.7957,-0.7298,-0.6016,-0.3851,-0.4394,-0.454,-0.4227,-0.506,-0.5053,-0.4252,-0.4865,-0.4286,-0.2813,-0.4139,-0.4585,-0.4365,-0.5176,-0.5672,-0.5745,-0.4364,-0.3508,-0.3078,-0.2897,-0.2802,-0.2921,-0.3701,-0.4052,-0.4086,0.0,0.0,0.0,0.0,0.0,0.0,0.0,0.0,0.0,0.0,0.0,0.4301,0.4164,0.4872,0.5705,0.6596,0.8693,1.0356,1.125,1.0214,0.9414,0.9103,0.6764,0.4999,0.3931,0.2213,0.089,0.0,0.0,0.0,0.0,0.0,0.0,0.0,0.0,0.0,0.0,0.0,0.0,0.0,0.0,0.0,0.0,0.0,0.0,0.0,0.0,0.0,0.0,0.0,0.0,0.0,0.0,0.0,0.0,0.0,0.0,0.0,0.0,0.0,0.0,0.0,0.0,0.0,0.0,0.0,0.0,0.0,0.0,0.0,0.0,0.0,0.0,0.0,0.0,0.0,0.0,0.0,0.0,-1.7781,-1.9957,0.0,0.0,0.0,0.0,-1.4432,-1.3811,-1.2909,-1.1539,-0.9532,-0.7405,-0.5284,-0.4425,-0.4079,-0.4203,-0.4454,-0.4507,-0.451,-0.3617,-0.3189,-0.3034,-0.2183,-0.2884,-0.467,-0.4748,-0.5225,-0.5919,-0.4683,-0.4164,-0.414,-0.3972,-0.4173,-0.4721,-0.5982,-0.6201,-0.5953,0.0,0.0,0.0,0.7635,0.7332,0.7096,0.7096,0.6519,0.5941,0.5547,0.5576,0.5609,0.5629,0.6313,0.717,0.8113,1.0024,1.1165,1.1279,1.076,1.0273,0.9943,0.0,0.4363,0.2732,0.216,0.1266,0.0,0.0,0.0,0.0,0.0,0.0,0.0,0.0,0.0,0.0,0.0,0.0,0.0,0.0,0.0,0.0,0.0,0.0,0.0,0.0,0.0,0.0,0.0,0.0,0.0,0.0,0.0,0.0,0.0,0.0,0.0,0.0,0.0,0.0,0.0,0.0,0.0,0.0,0.0,0.0,0.0,0.0,0.0,0.0,0.0,0.0,0.0,0.0,0.0,0.0,0.0,0.0,-1.7679,-2.0056,0.0,0.0,-1.9127,-1.9198,-1.8244,-1.8077,-1.6808,-1.4073,-1.2128,-0.9137,-0.4821,-0.4493,-0.4052,-0.3499,-0.4268,-0.4627,-0.4627,-0.498,-0.4064,-0.2192,-0.3127,-0.3595,-0.3748,-0.4375,-0.5289,-0.6162,-0.5584,-0.5237,-0.5203,-0.6294,-0.6763,-0.6973,-0.7944,-0.8225,-0.8078,0.0,0.0,0.0,0.8068,0.7695,0.7366,0.7304,0.6795,0.6339,0.6126,0.6387,0.6671,0.6869,0.7711,0.8543,0.9291,1.0916,1.2028,1.2431,1.1259,1.0567,0.0,0.0,0.0,0.0,0.196,0.0,0.0,0.0,0.0,0.0,0.0,0.0,0.0,0.0,0.0,0.0,0.0,0.0,0.0,0.0,0.0,-0.6215,0.0,0.0,0.0,0.0,0.0,0.0,0.0,0.0,0.0,0.0,0.0,0.0,0.0,0.0,0.0,0.0,0.0,0.0,0.0,0.0,0.0,0.0,0.0,0.0,0.0,0.0,0.0,0.0,0.0,0.0,0.0,0.0,0.0,0.0,0.0,-1.8768,-1.804,-2.0756,-2.2079,-2.0584,-2.1766,-2.2538,-2.236,-2.2354,-2.0876,-1.7488,-1.4898,-1.105,-0.5708,-0.453,-0.3599,-0.2631,-0.3659,-0.4373,-0.4688,-0.5392,-0.4455,-0.2192,-0.3515,-0.3748,-0.3124,-0.4217,-0.5315,-0.6254,-0.6149,-0.618,-0.6361,-0.7822,-0.8208,-0.8204,-0.9397,-0.9608,-0.9139,0.0,0.0,0.8415,0.8403,0.8079,0.7738,0.7532,0.7106,0.6941,0.728,0.7302,0.7443,0.7926,0.9089,0.9884,1.0134,1.1434,1.2987,1.4822,1.1748,1.0116,0.0,0.0,0.0,0.0,0.0,0.0,0.0,0.0,0.0,0.0,0.0,0.0,0.0,0.0,0.0,0.0,0.0,0.0,0.0,0.0,0.0,-1.1261,0.0,0.0,0.0,0.0,0.0,0.0,0.0,0.0,0.0,0.0,0.0,0.0,0.0,0.0,0.0,0.0,0.0,0.0,0.0,0.0,0.0,0.0,0.0,0.0,0.0,0.0,0.0,0.0,0.0,0.0,0.0,0.0,0.0,-1.7267,-1.8666,-1.967,-1.9252,-2.2431,-2.4178,-2.2944,-2.515,-2.6637,-2.6596,-2.6412,-2.4905,-2.1753,-1.7833,-1.3295,-0.8099,-0.4854,-0.2692,-0.1707,-0.2613,-0.3675,-0.4693,-0.4766,-0.4217,-0.3124,-0.3124,-0.3124,-0.3202,-0.4217,-0.5315,-0.6338,-0.6338,-0.6847,-0.763,-0.8364,-0.8498,-0.8498,-1.0381,-1.0347,-0.9139,0.8417,0.8476,0.8567,0.8428,0.82,0.7895,0.7562,0.7279,0.7361,0.8067,0.8326,0.8839,0.9939,1.0932,1.1572,1.1591,1.234,1.2891,1.3262,1.0624,0.7962,0.0,0.0,0.0,0.0,0.0,0.0,0.0,0.0,0.0,0.0,0.0,0.0,0.0,0.0,0.0,0.0,0.0,0.0,0.0,0.0,0.0,-1.2605,0.0,0.0,0.0,0.0,0.0,0.0,0.0,0.0,0.0,0.0,0.0,0.0,0.0,0.0,0.0,0.0,0.0,0.0,0.0,0.0,0.0,0.0,0.0,0.0,0.0,0.0,0.0,0.0,0.0,0.0,0.0,0.0,-2.0161,-1.8869,-2.0514,-2.1845,-2.173,-2.3866,-2.5357,-2.5497,-2.7056,-2.8226,-2.8704,-2.8192,-2.6593,-2.3803,-2.0731,-1.6412,-1.0661,-0.7383,-0.4806,-0.2907,-0.3002,-0.3607,-0.4728,-0.5517,-0.5315,-0.4295,-0.4295,-0.4295,-0.4295,-0.4608,-0.5315,-0.6338,-0.7099,-0.7956,-0.8752,-0.8714,-0.9308,-1.0331,-1.1472,-1.1546,-1.0954,0.9065,0.8879,0.8724,0.8554,0.8361,0.8063,0.7577,0.7475,0.7839,0.8908,0.9327,1.0124,1.1603,1.2204,1.2546,1.2693,1.2897,1.2907,1.2627,1.0019,0.0,0.0,0.0,0.0,0.0,0.0,0.0,0.0,0.0,0.0,0.0,0.0,0.0,0.0,0.0,0.0,0.0,0.0,0.0,0.0,0.0,0.0,-1.4074,-1.5209,-1.5386,-1.5068,-1.5506,-1.5023,-1.4112,-1.3935,0.0,0.0,0.0,0.0,0.0,0.0,0.0,0.0,0.0,0.0,0.0,0.0,0.0,0.0,0.0,0.0,0.0,0.0,0.0,0.0,0.0,0.0,0.0,0.0,-2.1456,-2.2446,-2.1873,-2.2911,-2.3683,-2.3524,-2.5425,-2.7072,-2.7783,-2.9057,-3.0137,-3.0806,-3.016,-2.871,-2.6387,-2.3586,-1.9383,-1.3768,-1.0046,-0.663,-0.3468,-0.3697,-0.3883,-0.4044,-0.5999,-0.6167,-0.4766,-0.5616,-0.5538,0.0,-0.5157,-0.5709,-0.6416,-0.7403,-0.8371,0.0,0.0,0.0,0.0,0.0,-1.2554,-1.2197,0.9855,0.9404,0.8947,0.8745,0.853,0.82,0.7591,0.7662,0.8324,0.9751,1.0231,1.1074,1.2948,1.313,1.3255,1.3446,1.3347,1.2956,1.2325,0.0,0.0,0.0,0.0,0.0,0.0,0.0,0.0,0.0,0.0,0.0,0.0,0.0,0.0,0.0,0.0,0.0,0.0,0.0,0.0,0.0,0.0,0.0,-1.557,-1.6215,-1.6898,-1.7626,-1.8578,-1.8216,-1.7111,-1.625,0.0,0.0,0.0,0.0,0.0,0.0,0.0,0.0,0.0,0.0,0.0,0.0,0.0,0.0,0.0,0.0,0.0,0.0,0.0,0.0,0.0,0.0,0.0,0.0,-2.3638,-2.4652,-2.5244,-2.5454,-2.5329,-2.4863,-2.6992,-2.8825,-2.9607,-3.0974,-3.2095,-3.2648,-3.2064,-3.0881,-2.9184,0.0,0.0,0.0,0.0,-0.853,-0.3951,-0.4554,-0.4306,-0.3167,-0.6305,-0.6777,-0.4921,-0.693,-0.67,-0.4924,-0.5867,-0.6251,-0.6388,-0.7472,-0.8689,-0.9959,-1.1758,-1.2835,-1.3499,-1.376,-1.3563,-1.3,1.0224,0.987,0.9559,0.8828,0.853,0.82,0.7591,0.7662,0.8516,1.0521,1.0569,1.1319,1.3717,1.3974,1.4001,1.4012,1.4364,1.3298,0.0,0.0,0.0,0.0,0.0,0.0,0.0,0.0,0.0,0.0,0.0,0.0,0.0,0.0,0.0,0.0,0.0,0.0,0.0,0.0,0.0,0.0,0.0,0.0,-1.6726,-1.7345,-1.8596,-2.0014,-2.0232,-2.0499,-2.0797,-2.1108,-1.9391,-1.6864,-1.5721,0.0,0.0,0.0,0.0,0.0,0.0,0.0,0.0,0.0,0.0,0.0,0.0,0.0,0.0,0.0,0.0,0.0,0.0,0.0,0.0,-2.3342,-2.4946,-2.6067,-2.6083,-2.683,-2.701,-2.6102,-2.7912,-2.9518,-3.0257,-3.2074,-3.3248,-3.3375,-3.2788,-3.1931,-3.0881,-2.8982,0.0,-2.0602,-1.6203,-1.1468,-0.6257,-0.5323,-0.4327,-0.3159,0.0,0.0,-0.6022,-0.7249,-0.7169,-0.6022,-0.6183,-0.619,-0.6231,-0.817,-1.0559,-1.2903,-1.3769,-1.441,-1.4959,-1.5408,-1.4921,-1.3965,1.0873,1.0327,0.9808,0.8731,0.8467,0.8174,0.7457,0.7782,0.8741,1.0531,1.0733,1.1698,1.4434,1.4543,1.4414,1.4286,1.3408,1.1914,0.0,0.0,0.0,0.0,0.0,0.0,0.0,0.0,0.0,0.0,0.0,0.0,0.0,0.0,0.0,0.0,0.0,0.0,0.0,0.0,0.0,0.0,0.0,0.0,-1.6879,-1.8044,-1.881,-1.9418,-2.0378,-2.0756,-2.0822,-2.1111,-2.0196,-1.8873,-1.8361,-1.6291,-1.3266,0.0,0.0,0.0,0.0,0.0,0.0,0.0,0.0,0.0,0.0,0.0,0.0,0.0,0.0,-1.8686,0.0,0.0,-2.4157,-2.5027,-2.6322,-2.7182,-2.7113,-2.7894,-2.8376,-2.804,-2.953,-3.11,-3.2321,-3.345,-3.4087,-3.4087,-3.3495,-3.2741,-3.2013,-3.0749,-2.808,-2.3816,-1.948,-1.4756,-0.9489,-0.7087,-0.5264,-0.4018,-0.6047,-0.6777,-0.6338,-0.7326,-0.7253,-0.6338,-0.6338,-0.6173,-0.6176,-0.8157,-1.0805,-1.3679,-1.4152,-1.495,-1.6005,-1.7197,-1.6922,-1.5965,1.1415,1.0711,0.9978,0.863,0.8403,0.8147,0.7395,0.7957,0.8951,1.024,1.0957,1.2242,1.4736,1.4762,1.4494,1.4235,1.234,0.0,0.0,0.0,0.0,0.0,0.0,0.0,0.0,0.0,0.0,0.0,0.0,0.0,0.0,0.0,0.0,0.0,0.0,0.0,0.0,0.0,0.0,0.0,0.0,0.0,-1.643,-1.8076,-1.8425,-1.8238,-1.9798,-2.0032,-1.9619,-1.9419,-1.9388,-1.9407,-1.9382,-1.8592,-1.711,-1.4205,-1.0597,0.0,0.0,0.0,0.0,0.0,0.0,0.0,0.0,0.0,-1.3165,-1.6584,-1.8734,-2.0675,-2.291,-2.4437,-2.5695,-2.6629,-2.746,-2.802,-2.8093,-2.8683,-2.9379,-3.0162,-3.1374,-3.2792,-3.4316,-3.4868,-3.5061,-3.4955,-3.4349,-3.3617,-3.2841,-3.1998,-2.9937,-2.6327,-2.2419,-1.7782,-1.2543,-0.9141,-0.6692,-0.5152,-0.6002,-0.6506,-0.6641,-0.7629,-0.7557,-0.656,-0.6318,-0.6264,-0.6462,-0.7827,-1.0299,-1.3156,-1.3832,-1.5142,-1.6818,-1.8291,-1.8282,-1.7677,1.1443,1.0899,1.0246,0.8682,0.8403,0.8216,0.765,0.8235,0.9056,0.9942,1.1486,1.2957,1.4107,1.4211,1.3967,1.353,0.0,0.0,0.0,0.0,0.0,0.0,0.0,0.0,0.0,0.0,0.0,0.0,0.0,0.0,0.0,0.0,0.0,0.0,0.0,0.0,0.0,0.0,0.0,0.0,0.0,0.0,-1.568,-1.717,-1.81,-1.8522,-1.879,-1.8908,-1.8917,-1.8329,-1.82,-1.8353,-1.8242,-1.8436,-1.8627,-1.7958,0.0,-0.7798,-0.4814,0.0,0.0,0.3794,0.1656,-0.1332,0.0,0.0,-1.4141,-1.8178,-2.0655,-2.2386,-2.3454,-2.5113,-2.6661,-2.7596,-2.8084,-2.8489,-2.8815,-2.8955,-2.9826,-3.201,-3.2979,-3.3829,-3.4675,-3.6083,-3.6729,-3.6232,-3.5569,-3.4714,-3.3531,-3.2826,-3.0909,-2.7459,-2.4093,-1.9859,-1.4535,-1.1187,-0.8326,-0.6054,-0.6927,-0.7463,-0.7629,-0.8694,-0.8618,-0.7528,-0.6266,-0.6458,-0.779,-0.7825,-0.9209,-1.1531,-1.3386,-1.5576,-1.7622,-1.7472,-1.7492,-1.7633,1.2039,1.1613,1.1099,1.0034,0.938,0.8796,0.8265,0.9076,0.9776,0.9913,1.0847,1.2177,1.4034,1.433,1.3974,1.2896,1.2367,0.0,0.0,0.0,0.0,0.0,0.0,0.0,0.0,0.0,0.0,0.0,0.0,0.0,0.0,0.0,0.0,0.0,0.0,0.0,0.0,0.0,0.0,0.0,0.0,0.0,-1.4718,-1.4668,-1.4601,-1.4702,-1.6654,-1.7089,0.0,0.0,-1.6574,-1.6585,-1.6883,-1.6996,-1.6996,-1.7011,-1.4024,0.0,-0.4918,0.0,0.0,0.0,-0.1025,-0.4062,-0.8223,-1.1968,-1.5428,-1.8818,-2.1321,-2.3353,-2.4764,-2.6101,-2.7078,0.0,-2.788,-2.8237,-2.8608,-2.8905,-2.9485,-3.0711,-3.1769,-3.3143,-3.5037,-3.5329,-3.5471,-3.5682,-3.5181,-3.4489,-3.3668,-3.3339,-3.1936,-2.9205,-2.5394,-2.1387,-1.7206,-1.2133,-0.8666,-0.6866,-0.5973,-0.5915,-0.6648,-0.7599,-0.797,-0.7909,-0.7133,-0.7066,-0.7567,-0.8363,-0.9622,-1.1212,-1.3074,-1.5638,-1.8348,-1.8935,-1.9525,-2.0016,1.2432,1.2083,1.1754,1.1263,1.057,0.986,0.9157,0.9717,1.0187,1.0137,1.0866,1.2141,1.4056,1.4621,1.4251,1.265,1.2289,1.1493,0.0,0.0,0.0,0.0,0.0,0.0,0.0,0.0,0.0,0.0,0.0,0.0,0.0,0.0,0.0,0.0,0.0,0.0,0.0,0.0,0.0,0.0,0.0,0.0,-1.3661,-1.2664,-1.1692,-1.1254,-1.3886,-1.4282,0.0,0.0,-1.3888,-1.3949,-1.4499,-1.4511,-1.4387,-1.4882,-1.3283,-1.024,-0.5157,0.0,0.0,-0.2186,-0.4599,-0.7278,-1.0439,-1.3749,-1.6884,-1.942,-2.1672,-2.3643,-2.526,-2.6162,0.0,-2.7014,-2.7417,-2.7816,-2.8192,-2.8556,-2.8898,-2.9211,-3.0071,-3.1416,-3.341,-3.3846,-3.4245,-3.4869,-3.4472,-3.3851,-3.3074,-3.2854,-3.1828,-2.9795,-2.6254,-2.2741,-1.9572,-1.3813,-1.0014,-0.8121,-0.595,-0.5393,-0.6226,-0.7145,-0.7984,-0.865,-0.7772,-0.725,-0.7145,-0.7983,-0.9262,-1.0823,-1.2321,-1.5099,-1.8466,-1.9775,-2.0882,-2.1758,1.2432,1.209,1.1893,1.186,1.1844,1.1449,1.0313,0.9903,0.9956,1.0603,1.2324,1.3694,1.4155,1.5004,1.4819,1.2947,1.2954,1.2479,1.1139,1.0434,0.0,0.0,0.0,0.0,0.0,0.0,0.0,0.0,0.0,0.0,0.0,0.0,0.0,0.0,0.0,0.0,0.0,0.0,0.0,0.0,0.0,0.0,-1.2539,-1.1815,-1.0624,-0.9533,-1.0568,0.0,0.0,0.0,-0.9781,-1.0233,-1.0504,-1.0731,0.0,-1.2445,-1.1019,0.0,0.0,0.0,-0.5039,-0.7784,-0.9017,-1.0468,-1.3978,-1.6348,-1.8336,-2.0195,-2.1708,-2.3054,-2.421,-2.4799,-2.5366,-2.6354,-2.6862,-2.73,-2.7851,-2.7915,-2.8029,-2.8293,-2.8383,-2.8518,0.0,-3.1881,-3.3935,-3.4206,-3.3659,-3.2811,-3.163,-3.1011,-2.9985,-2.844,-2.6592,-2.4167,-2.107,-1.6835,-1.3271,-1.039,-0.7998,-0.6969,-0.7283,-0.8131,-0.9276,-1.0358,-0.7608,-0.6671,-0.7023,-0.6023,-0.7345,-1.0031,-1.0752,-1.3728,-1.7716,-1.9034,-2.045,-2.1697,1.3091,1.2958,1.2908,1.2891,1.2891,1.2723,1.215,1.1803,1.1561,1.1338,1.3219,0.0,0.0,0.0,0.0,0.0,1.4101,1.3502,1.2599,1.196,0.0,0.0,0.0,0.0,0.0,0.0,0.0,0.0,0.0,0.0,0.0,0.0,0.0,0.0,0.0,0.0,0.0,0.0,0.0,0.0,0.0,0.0,-0.9863,-0.8397,-0.7244,-0.6221,0.0,0.0,0.0,0.0,0.0,0.0,-0.6085,-0.5886,-0.5793,-0.6433,-0.6514,0.0,0.0,0.0,-0.6343,-0.9059,-1.0387,-1.1755,-1.4506,-1.6809,-1.8773,-2.0312,-2.1951,-2.3107,-2.319,-2.3585,-2.3986,-2.4367,-2.458,-2.5083,-2.6337,-2.6285,-2.623,-2.6622,-2.6393,0.0,0.0,0.0,0.0,-3.151,-3.1461,-3.1269,-3.0917,-3.0713,-3.0164,-2.9208,-2.713,-2.4879,-2.2492,-1.8196,-1.4324,-1.0856,-0.7493,-0.6257,-0.6907,-0.7779,-0.8674,-0.9364,-0.8398,-0.7699,-0.7221,-0.714,-0.83,-1.021,-1.123,-1.4602,-1.8879,-1.9331,-2.096,-2.298,1.4161,1.4262,1.4295,1.4209,1.4192,0.0,0.0,0.0,0.0,0.0,0.0,0.0,0.0,0.0,0.0,0.0,0.0,1.4782,1.4173,0.0,0.0,0.0,0.0,0.0,0.0,0.0,0.0,0.0,0.0,0.0,0.0,0.0,0.0,0.0,0.0,0.0,0.0,0.0,0.0,0.0,0.0,0.0,-0.6316,-0.5034,-0.3805,0.0,0.0,0.0,0.0,0.0,0.0,0.0,-0.1897,-0.1485,-0.1315,-0.1505,-0.26,0.0,0.0,-0.6079,-0.7235,-0.9736,-1.1258,-1.2631,-1.4495,-1.6297,-1.7944,-1.9032,-2.009,-2.0866,-2.1025,-2.1082,-2.1398,-2.2323,-2.2874,-2.3637,-2.504,-2.5404,-2.5477,-2.5347,-2.5057,0.0,0.0,0.0,0.0,-2.9115,-2.9319,-2.9547,-2.9816,-2.9855,-2.9763,-2.9541,-2.7642,-2.5714,-2.3876,-1.9901,-1.5546,-1.0764,-0.7442,-0.6141,-0.6719,-0.7632,-0.8201,-0.8487,-0.846,-0.7843,-0.6968,-0.7201,-0.83,-0.9907,-1.1295,-1.4582,-1.8721,-1.9485,-2.1453,-2.3728,1.5497,1.5797,1.5908,0.0,0.0,0.0,0.0,0.0,0.0,0.0,0.0,0.0,0.0,0.0,0.0,0.0,0.0,0.0,0.0,0.0,0.0,0.0,0.0,0.0,0.0,0.0,0.0,0.0,0.0,0.0,0.0,0.0,0.0,0.0,0.0,0.0,0.0,0.0,0.0,0.0,0.0,0.0,-0.2154,-0.1824,0.0,0.0,0.0,0.0,0.0,0.0,0.0,0.0,0.0,0.2318,0.2263,0.2211,0.0732,-0.1337,-0.3175,-0.551,-0.7908,-0.9974,-1.168,-1.3114,-1.3999,-1.5,-1.5999,-1.6558,-1.6441,-1.6606,0.0,0.0,-1.784,-2.0155,-2.1669,-2.2906,-2.3953,-2.524,-2.5629,0.0,0.0,0.0,0.0,0.0,0.0,-2.7214,0.0,-2.7807,-2.841,-2.8496,-2.8826,-2.9361,-2.8163,-2.6728,-2.5164,-2.1802,-1.689,-1.0506,-0.8019,-0.678,-0.678,-0.7632,-0.7962,-0.7947,-0.7729,-0.7202,-0.6383,-0.6254,-0.73,-0.9193,-1.0946,-1.3876,-1.7361,-1.9594,-2.1957,-2.3965,0.0,0.0,0.0,0.0,0.0,0.0,0.0,0.0,0.0,0.0,0.0,0.0,0.0,0.0,0.0,0.0,0.0,0.0,0.0,0.0,0.0,0.0,0.0,0.0,0.0,0.0,0.0,0.0,0.0,0.0,0.0,0.0,0.0,0.0,0.0,0.0,0.0,0.0,0.0,0.0,0.0,0.0,0.1172,0.0,0.0,0.0,0.0,0.0,0.0,0.0,0.0,0.0,0.0,0.6024,0.5919,0.5318,0.0,0.0579,-0.1705,-0.4027,-0.6634,-0.9743,-1.0795,-1.1598,-1.3415,-1.438,-1.4925,-1.4883,-1.5365,-1.5557,0.0,0.0,0.0,-1.6961,-1.8812,0.0,-2.2248,-2.3513,0.0,0.0,0.0,-2.3794,-2.3794,-2.4462,0.0,0.0,-2.7408,-2.8513,-2.9134,-2.9175,-2.9225,-2.9406,-2.9057,-2.7984,-2.6109,-2.054,-1.6441,-1.3758,-1.021,-0.8233,-0.7593,-0.7882,-0.7632,-0.7042,-0.6992,-0.6841,-0.6634,-0.645,-0.7461,-0.9419,-1.1986,-1.5262,-1.8858,-2.1321,-2.3652,-2.5522,0.0,0.0,0.0,0.0,0.0,0.0,0.0,0.0,0.0,0.0,0.0,0.0,0.0,0.0,0.0,0.0,0.0,0.0,0.0,0.0,0.0,0.0,0.0,0.0,0.0,0.0,0.0,0.0,0.0,0.0,0.0,0.0,0.0,0.0,0.0,0.0,0.0,0.0,0.0,0.0,0.0,0.0,0.0,0.0,0.0,0.0,0.0,0.0,0.0,0.0,0.0,0.9131,0.8661,0.8298,0.7873,0.7308,0.0,0.2464,0.0418,-0.2078,-0.4698,-0.7035,-0.8175,-0.8959,-0.9853,-1.0718,-1.125,-1.1028,-1.1285,0.0,0.0,0.0,0.0,0.0,0.0,0.0,-2.1191,-2.2702,-2.3595,0.0,-2.3595,0.0,-2.3921,-2.4846,-2.579,0.0,-2.7525,-2.8507,-2.9592,-2.9929,-3.0286,-3.0734,-2.9972,-2.8259,-2.5586,-2.0745,-1.7396,-1.5467,-1.1949,-0.9655,-0.8478,-0.8527,-0.7897,-0.6719,0.0,-0.6854,-0.6195,-0.6806,-0.7947,-0.9523,-1.2862,-1.6339,-1.9773,-2.232,-2.4671,-2.6649,0.0,0.0,0.0,0.0,0.0,0.0,0.0,0.0,0.0,0.0,0.0,0.0,0.0,0.0,0.0,0.0,0.0,0.0,0.0,0.0,0.0,0.0,0.0,0.0,0.0,0.0,0.0,0.0,0.0,0.0,0.0,0.0,0.0,0.0,0.0,0.0,0.0,0.0,0.0,0.0,0.0,0.0,0.0,0.0,0.0,0.0,0.0,0.0,0.0,0.0,1.1353,1.0558,1.0339,0.9803,0.9214,0.884,0.7031,0.4696,0.2945,0.0503,-0.1905,-0.3226,-0.4538,-0.5384,-0.4827,-0.5588,-0.6347,-0.6171,0.0,0.0,-0.8293,0.0,-1.0535,-1.3457,0.0,-1.8871,-2.0495,-2.2396,-2.3588,-2.3546,-2.3706,-2.3964,-2.4348,-2.5637,-2.6899,-2.797,-2.7748,-2.8378,-3.0156,-3.0789,-3.1487,-3.2225,-3.0451,-2.7968,-2.4788,-2.1913,-1.922,-1.6678,-1.3646,-1.1348,-0.9662,-0.9551,-0.8538,-0.6915,0.0,0.0,-0.6009,-0.7572,-0.882,-1.0181,-1.3861,-1.7329,-2.0562,-2.3172,-2.5576,-2.7659,0.0,0.0,0.0,0.0,0.0,0.0,0.0,0.0,0.0,0.0,1.9698,1.7516,0.0,0.0,0.0,0.0,0.0,0.0,0.0,0.0,0.0,0.0,0.0,0.0,0.0,0.0,0.0,0.0,0.0,0.0,0.0,0.0,0.0,0.0,0.0,0.0,0.0,0.0,0.0,0.0,0.0,0.0,0.0,0.0,0.0,0.0,0.0,0.0,0.0,0.0,1.3131,1.2596,1.2006,1.2024,1.2077,1.1323,1.0166,0.8532,0.5619,0.4338,0.3085,-0.0189,-0.0683,-0.0544,-0.1143,-0.198,0.0,0.0,0.0,-0.4713,-0.5844,0.0,0.0,-1.2541,0.0,0.0,0.0,0.0,-2.3394,0.0,0.0,0.0,0.0,0.0,0.0,0.0,0.0,-2.9031,-3.1349,-3.1952,-3.1846,-3.1029,-2.9023,-2.7334,-2.6021,-2.3363,-2.1299,-1.9799,-1.6885,-1.4301,-1.2124,-1.0878,-0.9354,-0.7762,-0.7962,0.0,-0.8548,-0.8924,-1.0574,-1.315,-1.5729,-1.8906,-2.2357,-2.5142,-2.7349,-2.898,0.0,0.0,0.0,0.0,0.0,0.0,0.0,2.0608,2.1826,2.4356,2.2936,2.1136,1.9778,1.7338,1.5782,0.0,0.0,0.0,0.0,0.0,0.0,0.0,0.0,0.0,0.0,0.0,0.0,0.0,0.0,0.0,0.0,0.0,0.0,0.0,0.0,0.0,0.0,0.0,0.0,0.0,0.0,0.0,0.0,0.0,0.0,0.0,0.0,0.0,0.0,0.0,1.4086,1.4701,1.4057,1.3449,1.294,1.2765,1.1728,1.0265,0.8143,0.7084,0.6217,0.4556,0.3937,0.3803,0.3857,0.0,0.0,0.0,0.0,0.0,-0.4428,0.0,0.0,0.0,0.0,0.0,0.0,0.0,0.0,0.0,0.0,0.0,0.0,0.0,0.0,0.0,0.0,-2.9127,-3.056,-3.112,-3.0783,-2.9605,-2.8305,-2.7028,-2.5734,-2.3906,-2.2343,-2.111,-1.8219,-1.6088,-1.4542,-1.2226,-1.0494,-0.9291,-0.9291,0.0,-0.9243,-1.0153,-1.1637,-1.3556,-1.6569,-1.9507,-2.2435,-2.5615,-2.7715,-2.912,0.0,0.0,0.0,0.0,0.0,0.0,0.0,2.1395,2.2869,2.6025,2.6265,2.5258,2.2876,1.9678,1.7205,0.0,0.0,0.0,0.0,0.0,0.0,0.0,0.0,0.0,0.0,0.0,0.0,0.0,0.0,0.0,0.0,0.0,0.0,0.0,0.0,0.0,0.0,0.0,0.0,0.0,0.0,0.0,0.0,0.0,0.0,0.0,0.0,0.0,0.0,0.0,1.4919,1.6098,1.6214,1.5082,1.3698,1.394,1.3097,1.1782,1.0488,0.9636,0.9192,0.9227,0.8629,0.819,0.8841,0.7957,0.0,0.0,0.0,0.0,0.0,0.0,0.0,0.0,0.0,0.0,0.0,0.0,0.0,0.0,0.0,0.0,0.0,0.0,0.0,0.0,0.0,0.0,-2.9687,-2.9947,-2.9515,-2.8347,-2.7742,-2.6678,-2.5028,-2.4138,-2.3069,-2.1815,-1.9421,-1.7741,-1.6675,-1.415,-1.2469,-1.149,-1.149,0.0,0.0,-1.2208,-1.3499,-1.5011,-1.7698,-2.0328,-2.295,-2.576,-2.7641,-2.8952,0.0,0.0,0.0,0.0,0.0,0.0,0.0,2.1657,2.3756,2.8208,2.8107,2.7172,2.6007,2.3149,2.0339,0.0,0.0,0.0,0.0,0.0,0.0,0.0,0.0,0.0,0.0,0.0,0.0,0.0,0.0,0.0,0.0,0.0,0.0,0.0,0.0,0.0,0.0,0.0,0.0,0.0,0.0,0.0,0.0,0.0,0.0,0.0,0.0,0.0,0.0,0.0,0.0,1.5825,1.8253,1.7539,1.5768,1.5484,0.0,0.0,1.2355,1.2548,1.3142,1.2401,1.27,1.3123,1.2864,0.0,0.0,0.0,0.0,0.1459,0.0,0.0,0.0,0.0,0.0,0.0,0.0,0.0,0.0,0.0,0.0,0.0,0.0,0.0,0.0,0.0,0.0,0.0,-3.0128,-2.9586,-2.8776,-2.7794,-2.7029,-2.5933,-2.4511,-2.4389,-2.3749,-2.2589,-2.1661,-2.0174,-1.8283,-1.731,-1.6098,-1.4782,-1.4782,0.0,0.0,-1.596,-1.7709,-2.0761,-2.0373,-2.2509,-2.5932,-2.6495,-2.7627,-2.8945,0.0,0.0,0.0,0.0,0.0,0.0,2.1692,2.2017,2.385,2.909,2.98,2.9632,2.9074,2.7,2.3573,1.8416,0.0,0.0,0.0,0.0,0.0,0.0,0.0,0.0,0.0,0.0,0.0,0.0,0.0,0.0,0.0,0.0,0.0,0.0,0.0,0.0,0.0,0.0,0.0,0.0,0.0,0.0,0.0,0.0,0.0,0.0,0.0,0.0,0.0,0.0,0.0,0.0,1.7812,1.7497,0.0,0.0,1.5562,1.4866,1.4356,1.4176,1.4499,1.5956,1.6241,1.6052,1.5681,0.0,0.0,1.1382,0.8399,0.4289,-0.2159,0.0,0.0,0.0,0.0,0.0,0.0,0.0,0.0,0.0,0.0,0.0,0.0,0.0,0.0,0.0,0.0,0.0,-2.8452,-2.7698,-2.7063,-2.6699,-2.5738,-2.4948,-2.4389,-2.4074,-2.3709,-2.3231,-2.1708,-2.078,-2.0286,-1.8324,-1.7288,-1.7059,-1.6653,0.0,0.0,-1.734,-1.8495,-2.0268,-2.0996,-2.2976,-2.5551,-2.5901,-2.7054,-2.8345,0.0,0.0,0.0,0.0,0.0,1.9181,2.2147,2.2374,2.4004,2.8973,3.0036,3.036,3.0509,2.8384,2.5047,2.0312,1.9199,0.0,0.0,0.0,0.0,0.0,0.0,0.0,0.0,0.0,0.0,0.0,0.0,0.0,0.0,0.0,0.0,0.0,0.0,0.0,0.0,0.0,0.0,0.0,0.0,0.0,0.0,0.0,0.0,0.0,0.0,0.0,0.0,0.0,0.0,0.0,0.0,0.0,0.0,0.0,1.6411,1.5503,1.6318,1.5958,1.5941,1.8308,1.9004,1.888,0.0,0.0,0.0,1.416,1.1306,0.7078,-0.0407,-0.654,-1.2128,0.0,0.0,0.0,0.0,0.0,0.0,0.0,0.0,0.0,0.0,0.0,0.0,0.0,0.0,0.0,0.0,-2.5707,-2.5201,-2.5762,-2.4855,-2.4307,-2.4142,-2.3794,-2.3595,-2.3595,-2.214,-2.1661,-2.1876,-1.985,-1.8966,-1.9021,0.0,0.0,0.0,-1.9316,-2.0047,-2.0886,-2.2102,-2.3583,-2.5042,-2.5197,-2.5988,-2.6873,0.0,0.0,0.0,0.0,0.0,0.0,2.1448,2.2647,2.4482,2.7809,2.8243,2.8659,2.9786,2.6393,2.4125,2.4315,2.2031,0.0,0.0,0.0,0.0,0.0,0.0,0.0,0.0,0.0,1.5371,1.5293,1.6152,0.0,0.0,0.0,0.0,0.0,0.0,0.0,0.0,0.0,0.0,0.0,0.0,0.0,0.0,0.0,0.0,0.0,0.0,0.0,0.0,0.0,0.0,0.0,0.0,1.9261,1.8793,0.0,1.8037,1.6861,1.8218,1.822,1.8067,1.8887,2.0877,2.2112,0.0,0.0,0.0,1.6008,1.3569,0.9525,0.1214,-0.2283,-0.6575,-1.4786,0.0,0.0,0.0,0.0,0.0,0.0,0.0,0.0,0.0,0.0,0.0,0.0,0.0,0.0,0.0,-2.3912,-2.331,-2.5166,-2.4657,-2.4158,-2.3595,-2.3595,-2.3595,-2.3595,-2.3595,-2.3275,-2.2694,-2.2649,-2.1974,0.0,0.0,0.0,0.0,-2.2476,-2.3303,-2.4179,-2.4391,-2.4744,-2.5039,-2.4578,-2.4423,-2.4386,0.0,0.0,0.0,0.0,0.0,0.0,0.0,2.1669,2.2651,2.5084,2.5965,2.6735,2.7684,2.5597,2.3975,2.355,2.1737,0.0,0.0,0.0,0.0,0.0,0.0,0.0,0.0,0.0,1.7608,1.8786,1.9422,1.9593,1.9314,0.0,0.0,0.0,0.0,0.0,0.0,0.0,0.0,0.0,0.0,0.0,0.0,0.0,0.0,0.0,0.0,0.0,0.0,0.0,0.0,0.0,0.0,0.0,0.0,2.0223,1.9734,1.8858,1.8936,1.9487,2.0209,2.0739,2.2125,2.289,2.1321,0.0,0.0,1.6995,1.4806,1.11,0.3081,-0.2064,-0.7701,-1.565,-1.7376,0.0,0.0,0.0,0.0,0.0,0.0,0.0,0.0,0.0,0.0,0.0,0.0,0.0,0.0,-1.9458,-1.9536,-2.318,-2.1819,-2.0954,-2.0788,-2.1774,-2.2246,-2.2246,-2.2741,-2.3098,-2.3319,-2.273,0.0,0.0,0.0,0.0,0.0,-2.2775,-2.3494,-2.4313,-2.4188,-2.4768,-2.5446,-2.3735,-2.349,-2.3749,0.0,0.0,0.0,0.0,0.0,0.0,0.0,2.1218,2.186,2.3467,2.3911,2.4727,2.6498,2.4294,2.2921,2.3536,2.1435,0.0,0.0,0.0,0.0,0.0,0.0,0.0,0.0,1.7501,1.8519,2.0813,2.1499,2.1977,2.2192,2.1282,1.9756,1.7707,0.0,0.0,0.0,0.0,0.0,0.0,0.0,0.0,1.7985,0.0,0.0,0.0,0.0,0.0,0.0,0.0,0.0,0.0,0.0,0.0,0.0,0.0,2.0766,2.0593,2.0425,2.1145,2.1956,2.2043,2.3098,0.0,0.0,0.0,0.0,0.0,1.5365,1.1907,0.5101,-0.0066,-0.5511,-1.2215,-1.395,0.0,0.0,0.0,0.0,0.0,0.0,0.0,0.0,0.0,0.0,0.0,0.0,0.0,0.0,-1.4134,-1.3792,-1.655,-1.694,-1.7445,-1.808,-1.9258,-2.0461,-2.16,-2.209,-2.2701,-2.35,-2.3176,0.0,0.0,0.0,0.0,0.0,-2.35,-2.4058,-2.465,-2.4444,-2.4674,-2.4869,-2.2835,-2.2254,-2.2172,0.0,0.0,0.0,0.0,0.0,0.0,0.0,2.1143,2.1863,2.2683,2.213,2.2784,2.5731,2.2548,2.1244,2.3806,0.0,0.0,0.0,0.0,0.0,0.0,0.0,0.0,0.0,1.7219,1.8543,2.1768,2.2815,2.3608,2.4187,2.4765,2.3082,1.9559,1.9452,1.8653,1.7374,0.0,0.0,0.0,0.0,1.7469,0.0,0.0,0.0,0.0,0.0,0.0,0.0,0.0,0.0,0.0,0.0,0.0,0.0,0.0,0.0,0.0,0.0,2.2851,2.3202,2.2714,2.3651,2.4113,0.0,0.0,0.0,0.0,0.0,0.0,0.7056,0.3194,-0.0873,-0.5695,0.0,0.0,0.0,0.0,0.0,0.0,0.0,0.0,0.0,0.0,0.0,0.0,0.0,0.0,0.0,-0.8076,-0.6357,-0.6298,-1.0137,-1.314,-1.5093,-1.6234,-1.8211,-2.1138,-2.1437,-2.2147,-2.3242,-2.3803,0.0,0.0,0.0,0.0,0.0,-2.4467,-2.4885,-2.5086,-2.4971,-2.446,-2.359,-2.1927,-2.0833,-1.9986,0.0,0.0,0.0,0.0,0.0,0.0,0.0,0.0,0.0,0.0,2.1107,2.1464,2.1656,2.0831,2.0309,0.0,0.0,0.0,0.0,0.0,0.0,0.0,0.0,0.0,0.0,1.9186,2.1111,2.432,2.6448,2.7902,2.864,2.7793,2.5551,2.215,2.0823,1.9214,1.7477,1.7491,0.0,0.0,1.854,1.9046,0.0,0.0,0.0,0.0,2.0293,2.0847,0.0,0.0,0.0,0.0,0.0,0.0,0.0,0.0,2.0795,2.1483,2.1672,0.0,2.3127,2.1803,2.2085,2.2269,0.0,0.0,0.0,0.0,0.0,0.0,0.0,0.0,0.0,0.0,0.0,0.0,0.0,0.0,0.0,0.0,0.0,0.0,0.0,0.0,0.0,0.0,0.0,0.0,0.0,-0.0732,0.0631,0.1263,-0.0888,-0.4531,-0.9506,-1.28,-1.5144,-1.6602,-1.9824,-2.1697,-2.234,-2.3176,0.0,0.0,0.0,0.0,-2.4495,-2.4916,-2.5082,-2.5046,-2.4411,-2.3939,-2.3389,-2.1256,-2.0363,-1.9951,0.0,0.0,0.0,0.0,0.0,0.0,0.0,0.0,0.0,0.0,0.0,0.0,0.0,0.0,0.0,0.0,0.0,0.0,0.0,0.0,0.0,0.0,0.0,0.0,1.862,1.935,2.1694,2.5738,2.7557,2.9447,3.136,3.0175,2.7725,2.423,2.1475,1.9639,1.864,1.8507,1.8945,1.9714,1.9301,0.0,0.0,0.0,0.0,0.0,2.0418,2.126,0.0,2.38,2.4472,2.472,0.0,0.0,0.0,0.0,2.0465,2.0759,2.0798,2.248,2.3979,2.2897,2.2533,2.2133,2.088,0.0,0.0,0.0,0.0,0.0,0.0,0.0,0.0,0.0,0.0,0.0,0.0,0.0,0.0,0.0,0.0,0.0,0.0,0.0,0.0,0.0,0.0,0.0,0.0,0.3985,0.4517,0.4531,0.2444,-0.1046,-0.5915,-0.9656,-1.2877,-1.5517,-1.8796,-2.1044,-2.2351,-2.3325,-2.3998,0.0,0.0,0.0,-2.4892,-2.4982,-2.4999,-2.4893,-2.421,-2.3652,-2.302,-2.0861,-1.984,-1.936,0.0,0.0,0.0,0.0,0.0,0.0,0.0,0.0,0.0,0.0,0.0,0.0,0.0,0.0,0.0,0.0,0.0,0.0,0.0,0.0,0.0,0.0,0.0,1.6278,1.8598,1.8948,2.1401,2.6172,2.7492,2.9616,3.2471,3.2084,2.9779,2.5808,2.2079,2.0279,1.9969,1.9564,1.9824,2.0447,1.9701,0.0,0.0,0.0,0.0,0.0,0.0,0.0,0.0,2.4575,2.5736,2.6387,2.5224,0.0,0.0,0.0,0.0,0.0,2.043,2.2726,2.481,2.3898,2.3226,2.2439,2.1207,0.0,0.0,0.0,0.0,0.0,0.0,0.0,0.0,0.0,0.0,0.0,0.0,0.0,0.0,0.0,0.0,0.0,0.0,0.0,0.0,0.0,0.0,0.0,0.0,0.6694,0.6229,0.514,0.2568,-0.0586,-0.4207,-0.7418,-1.1188,-1.5607,-1.7999,-2.0338,-2.2528,-2.3624,-2.4301,-2.4691,0.0,0.0,-2.5043,-2.4839,-2.4713,-2.4623,-2.4044,-2.3415,-2.2526,-2.056,-1.9474,-1.8792,0.0,0.0,0.0,0.0,0.0,0.0,0.0,0.0,0.0,0.0,0.0,0.0,0.0,0.0,0.0,0.0,0.0,0.0,0.0,0.0,0.0,0.0,0.0,0.0,1.929,1.9716,2.163,2.5133,2.785,2.9816,3.1067,3.3481,3.1821,2.669,2.4046,2.1802,2.0007,2.0143,2.0323,2.0488,2.0348,0.0,0.0,0.0,0.0,0.0,0.0,0.0,0.0,2.2382,2.3474,2.4436,2.2842,0.0,0.0,0.0,0.0,0.0,2.2332,2.379,2.4062,2.1078,2.1068,2.1242,1.9096,0.0,0.0,0.0,0.0,0.0,0.0,0.0,0.0,0.0,0.0,0.0,0.0,0.0,0.0,0.0,0.0,0.0,0.0,0.0,0.0,0.0,0.0,0.0,0.0,0.6988,0.5925,0.4341,0.1828,-0.1473,-0.5653,-0.7563,-1.0235,-1.3769,-1.7149,-1.9818,-2.1725,-2.303,-2.4164,-2.5063,0.0,-2.4394,-2.4823,-2.4574,-2.434,-2.4044,-2.3336,-2.2713,-2.2006,-2.0294,-1.958,-1.9353,0.0,0.0,0.0,0.0,0.0,0.0,0.0,0.0,0.0,0.0,0.0,0.0,0.0,0.0,0.0,0.0,0.0,0.0,0.0,0.0,0.0,0.0,0.0,0.0,0.0,2.1396,2.3677,2.7014,2.9954,3.2117,3.3492,3.2745,3.0289,2.6381,2.3427,2.1301,1.9978,2.0263,2.0438,2.0508,0.0,0.0,0.0,0.0,0.0,0.0,0.0,0.0,0.0,0.0,2.3667,2.4701,2.299,0.0,0.0,0.0,0.0,0.0,2.1054,2.2304,2.2771,2.0608,2.1937,2.3269,0.0,0.0,0.0,0.0,0.0,0.0,0.0,0.0,0.0,0.0,0.0,0.0,0.0,0.0,0.0,0.0,0.0,0.0,0.0,0.0,0.0,0.0,0.0,0.0,0.0,0.0,0.4592,0.167,-0.1082,-0.4559,-0.8891,-1.1114,-1.3322,-1.545,-1.8411,-2.0811,-2.2681,-2.3602,-2.4352,-2.4834,0.0,-2.4039,-2.408,-2.3855,-2.3692,-2.348,-2.2765,-2.2381,-2.2044,-2.0377,-1.958,-1.9171,0.0,0.0,0.0,0.0,0.0,0.0,0.0,0.0,0.0,0.0,0.0,0.0,0.0,0.0,0.0,0.0,0.0,0.0,0.0,0.0,0.0,0.0,0.0,0.0,0.0,2.3929,2.6211,2.9399,3.2096,3.436,3.6072,3.2169,2.8967,2.6359,2.3101,2.1001,1.9981,2.0277,2.0435,2.051,0.0,0.0,0.0,0.0,0.0,0.0,0.0,0.0,0.0,0.0,0.0,0.0,0.0,0.0,0.0,2.1147,2.0151,1.9878,2.054,2.1395,2.1957,2.1502,2.3091,0.0,0.0,0.0,0.0,0.0,0.0,0.0,0.0,0.0,0.0,0.0,0.0,0.0,0.0,0.0,0.0,0.0,0.0,0.0,0.0,0.0,0.0,0.0,0.0,0.0,0.5317,0.4209,0.1802,-0.2111,-0.4865,-0.8233,-1.2147,-1.4961,-1.679,-1.7771,-1.9953,-2.1874,-2.3572,-2.4055,-2.4243,-2.42,-2.372,-2.346,-2.3353,-2.3105,-2.3119,-2.3198,-2.2524,-2.2246,-2.2035,-2.0624,-1.9807,-1.9344,0.0,0.0,0.0,0.0,0.0,0.0,0.0,0.0,0.0,0.0,0.0,0.0,0.0,0.0,0.0,0.0,0.0,0.0,0.0,0.0,0.0,0.0,0.0,0.0,0.0,2.7692,2.8681,3.1122,3.3312,3.5252,3.6836,3.3122,3.0056,2.7557,2.4755,2.2223,2.0088,2.0318,2.0435,2.051,2.0565,0.0,0.0,0.0,0.0,0.0,0.0,0.0,0.0,0.0,0.0,0.0,0.0,0.0,2.2376,2.218,2.1198,2.0716,2.3339,2.3037,2.2316,2.3683,2.3178,0.0,2.1983,2.1564,0.0,0.0,0.0,0.0,0.0,0.0,0.0,0.0,0.0,0.0,0.0,0.0,0.0,0.0,0.0,0.0,0.0,0.0,0.0,0.0,0.0,0.0,0.1481,-0.0435,-0.3088,-0.689,-0.9327,-1.1836,-1.4549,-1.7411,-1.9016,-1.9364,-2.0847,-2.2185,-2.3415,-2.3514,-2.3401,-2.3075,-2.2168,-2.222,-2.2907,-2.2587,-2.2814,-2.3326,-2.2921,-2.2325,-2.1672,-2.0983,-2.0705,-2.0481,0.0,0.0,0.0,0.0,0.0,0.0,0.0,0.0,0.0,0.0,0.0,0.0,0.0,0.0,0.0,0.0,0.0,0.0,0.0,0.0,0.0,0.0,0.0,2.5668,2.7926,2.9741,3.1347,3.2737,3.4994,3.6331,3.6687,3.319,3.0228,2.7652,2.4482,2.2593,2.172,2.0846,2.1104,2.2034,2.1014,2.0605,0.0,0.0,0.0,0.0,0.0,0.0,0.0,0.0,2.1721,2.2429,2.1595,2.2164,2.2904,2.1815,2.0968,2.0636,2.185,2.2197,2.2297,2.2519,2.2455,0.0,0.0,2.2999,0.0,0.0,0.0,0.0,0.0,0.0,0.0,0.0,0.0,0.0,0.0,0.0,0.0,0.0,0.0,0.0,0.0,0.0,0.0,0.0,0.0,0.0,0.0,0.0942,-0.2903,-0.8144,-1.2196,-1.5531,-1.8062,-2.0557,-2.1817,-2.1933,-2.2464,-2.3096,-2.3772,-2.3633,-2.3365,-2.2987,-2.2677,-2.2615,-2.271,-2.2751,-2.2903,-2.3192,-2.3499,-2.283,-2.1758,-2.2265,-2.1783,-2.0746,0.0,0.0,0.0,0.0,0.0,0.0,0.0,0.0,0.0,0.0,0.0,0.0,0.0,0.0,0.0,0.0,0.0,0.0,0.0,0.0,0.0,0.0,0.0,2.5547,2.7022,3.0375,3.2402,3.2974,3.5223,3.6037,3.5399,3.2361,2.996,0.0,0.0,0.0,0.0,0.0,0.0,2.2533,2.1152,2.0605,0.0,0.0,0.0,0.0,0.0,0.0,0.0,0.0,2.1552,2.2196,2.1745,2.2335,2.3012,2.209,2.1678,2.1566,2.1641,2.1895,2.2068,0.0,0.0,0.0,2.2008,0.0,0.0,0.0,0.0,0.0,0.0,0.0,0.0,0.0,0.0,0.0,0.0,0.0,0.0,0.0,0.0,0.0,0.0,0.0,0.0,0.0,0.0,0.0,0.0,0.0226,-0.4621,-1.1873,-1.575,-1.8598,-2.0455,-2.2358,-2.3179,-2.2899,-2.3057,-2.3333,-2.3696,-2.3498,-2.303,-2.2365,-2.2418,-2.2394,-2.2311,-2.23,-2.2524,-2.2979,-2.3678,-2.3371,-2.2597,-2.3097,-2.2426,-2.1253,0.0,0.0,0.0,0.0,0.0,0.0,0.0,0.0,0.0,0.0,0.0,0.0,0.0,0.0,0.0,0.0,0.0,0.0,1.9087,1.9093,1.9845,2.1509,2.3316,2.4775,2.5833,2.9498,3.1484,3.1609,3.365,3.4086,3.2901,3.056,0.0,0.0,0.0,0.0,0.0,0.0,0.0,0.0,2.0918,2.0605,2.0605,0.0,0.0,0.0,0.0,0.0,0.0,0.0,2.1225,2.0931,2.3396,2.3311,2.2502,2.3332,2.3683,2.376,2.3547,2.2566,2.1669,0.0,0.0,0.0,0.0,0.0,0.0,0.0,0.0,0.0,0.0,0.0,0.0,0.0,0.0,0.0,0.0,0.0,0.0,0.0,0.0,0.0,0.0,0.0,0.0,0.0,0.0,0.0,0.0,-0.3597,-0.9139,-1.8945,-2.028,-2.0975,-2.1302,-2.2497,-2.2649,-2.1797,-2.2262,-2.2688,-2.3084,-2.302,-2.2251,-2.1007,-2.1019,-2.1288,-2.166,-2.1064,-2.1535,-2.274,-2.3377,-2.3906,-2.4266,-2.3128,-2.2608,-2.2221,0.0,0.0,0.0,0.0,0.0,0.0,0.0,0.0,0.0,0.0,0.0,0.0,0.0,0.0,0.0,0.0,0.0,0.0,1.9033,1.9064,1.9577,2.0642,2.2195,2.2853,2.2462,2.4504,2.7543,3.1516,3.1199,3.0513,2.9471,0.0,0.0,0.0,0.0,0.0,0.0,0.0,0.0,0.0,2.1726,2.1294,2.138,0.0,0.0,0.0,0.0,0.0,0.0,0.0,0.0,0.0,2.1449,2.3176,2.472,2.2448,2.31,2.4172,2.2305,2.2018,0.0,0.0,0.0,0.0,0.0,0.0,0.0,0.0,0.0,0.0,0.0,0.0,0.0,0.0,0.0,0.0,0.0,0.0,0.0,0.0,0.0,0.0,0.0,0.0,0.0,0.0,0.0,0.0,0.0,0.3376,-0.5597,-1.6625,-1.9598,-2.151,-2.2555,-2.2498,-2.223,-2.1739,-2.1866,-2.1762,-2.1444,-2.2387,-2.238,-2.1724,-2.2253,-2.2376,-2.2144,-2.1643,-2.1945,-2.274,-2.3318,-2.3679,-2.3837,-2.3891,-2.3347,-2.2486,0.0,0.0,0.0,0.0,0.0,0.0,0.0,0.0,1.9979,1.9981,1.9624,1.9506,0.0,0.0,0.0,1.9104,1.8677,1.8601,1.8984,1.8685,1.9032,2.0254,2.109,2.1525,2.1596,2.2905,2.5015,2.8012,2.7525,2.7039,0.0,0.0,0.0,0.0,0.0,0.0,0.0,0.0,0.0,0.0,2.1933,2.151,2.157,0.0,0.0,0.0,0.0,0.0,0.0,0.0,0.0,0.0,2.0946,2.2488,2.4126,2.2596,2.3497,2.4636,2.3061,2.2591,0.0,0.0,0.0,0.0,0.0,0.0,0.0,0.0,0.0,0.0,0.0,0.0,0.0,0.0,0.0,0.0,0.0,0.0,0.0,0.0,0.0,0.0,0.0,0.0,0.0,0.0,0.0,0.0,0.0,0.7729,-0.4219,-1.7024,-1.9341,-2.0947,-2.2147,-2.1457,-2.0951,-2.0727,-2.0814,-2.0567,-2.008,-2.1701,-2.2039,-2.1415,-2.1939,-2.2173,-2.2105,-2.2115,-2.2193,-2.2392,-2.3231,-2.355,-2.3593,-2.3948,-2.3477,-2.2517,0.0,0.0,0.0,0.0,0.0,0.0,0.0,1.9699,1.9154,1.908,1.8319,1.8091,0.0,0.0,0.0,1.8785,1.7987,1.7857,1.8693,1.8029,1.8338,2.0033,2.0136,2.0877,2.2427,2.3414,2.3443,2.2444,2.3291,2.3796,0.0,0.0,0.0,0.0,0.0,0.0,0.0,0.0,0.0,0.0,2.1464,2.1187,2.1208,2.1208,0.0,0.0,0.0,0.0,0.0,0.0,0.0,0.0,2.1294,2.1578,2.1839,2.3064,2.4159,2.4899,2.4455,0.0,0.0,0.0,0.0,0.0,0.0,0.0,0.0,0.0,0.0,0.0,0.0,0.0,0.0,0.0,0.0,0.0,0.0,0.0,0.0,0.0,0.0,0.0,0.0,0.0,0.0,0.0,0.0,0.0,0.0,0.8902,-0.4671,-1.8704,-1.9003,-1.9421,-2.0472,-1.9696,-1.922,-1.9154,-1.9478,-1.9362,-1.895,-2.1076,-2.156,-2.0698,-2.0782,-2.1134,-2.1663,-2.2207,-2.2114,-2.1758,-2.2891,-2.3318,-2.3332,-2.3451,-2.3098,-2.2426,0.0,0.0,0.0,0.0,0.0,0.0,1.9572,1.9288,1.8885,1.819,1.7876,1.7787,1.7979,1.7979,0.0,1.7099,1.6856,1.6783,1.6877,1.7284,1.7862,1.8621,2.0327,2.1525,2.2101,2.1425,2.086,2.0414,2.1032,2.1619,0.0,0.0,0.0,0.0,0.0,0.0,0.0,0.0,0.0,0.0,0.0,1.9619,1.974,1.974,1.936,0.0,0.0,0.0,0.0,0.0,0.0,0.0,2.0286,2.1643,2.2681,2.0476,2.1835,2.3384,2.0196,1.951,0.0,0.0,0.0,0.0,0.0,0.0,0.0,0.0,0.0,0.0,0.0,0.0,0.0,0.0,0.0,0.0,0.0,0.0,0.0,0.0,0.0,0.0,0.0,0.0,0.0,0.0,0.0,0.0,1.0242,0.2312,-0.6546,-1.5417,-1.5891,-1.6955,-1.8943,-1.8486,-1.8165,0.0,-1.9315,-1.93,-1.8252,-2.1111,-2.2562,-2.2758,-2.1415,-2.0873,-2.0979,-2.0584,-2.0633,-2.1028,-2.1307,-2.1663,-2.2175,-2.2648,-2.272,-2.2533,0.0,0.0,0.0,0.0,0.0,0.0,0.0,0.0,1.7831,1.7761,1.701,1.6811,1.76,1.735,0.0,0.0,1.6905,1.6555,1.6911,1.6872,1.7204,1.8059,1.9863,2.0513,1.9872,1.947,1.9032,1.8513,1.8808,0.0,0.0,0.0,0.0,0.0,0.0,0.0,0.0,0.0,0.0,0.0,0.0,0.0,0.0,1.9333,1.8885,1.8181,1.8235,0.0,0.0,0.0,0.0,0.0,0.0,0.0,2.1185,1.9877,2.0585,2.1347,1.9273,0.0,0.0,0.0,0.0,0.0,0.0,0.0,0.0,0.0,0.0,0.0,0.0,0.0,0.0,0.0,0.0,0.0,0.0,0.0,0.0,0.0,0.0,0.0,0.0,0.0,0.0,0.0,0.0,-0.9515,-0.3839,-0.7001,-1.1093,-1.5735,-1.5702,-1.652,-1.8326,-1.814,-1.8151,-1.8341,-1.9162,-1.9453,-1.9321,-2.0624,-2.1597,-2.2151,-2.0855,-2.0683,-2.121,-2.0534,-2.0497,-2.0871,-2.1448,-2.1874,-2.2235,-2.2807,-2.3041,-2.2995,0.0,0.0,0.0,0.0,0.0,0.0,0.0,0.0,0.0,1.7613,1.6503,1.6175,1.7549,1.6984,1.7061,0.0,0.0,0.0,1.7102,1.6422,1.6593,1.7917,1.8995,1.9004,1.7755,1.7889,1.7743,1.731,1.6905,0.0,0.0,0.0,0.0,0.0,0.0,0.0,0.0,0.0,0.0,0.0,0.0,0.0,0.0,0.0,0.0,0.0,1.7753,1.8165,1.8663,1.8537,0.0,0.0,0.0,0.0,1.9114,1.9685,1.9573,1.9171,1.8832,0.0,0.0,0.0,0.0,0.0,0.0,0.0,0.0,0.0,0.0,0.0,0.0,0.0,0.0,0.0,0.0,0.0,0.0,0.0,0.0,0.0,0.0,0.0,0.0,0.0,0.0,0.0,0.0,-1.9233,-1.586,-1.5158,-1.5504,-1.6909,-1.6236,-1.6566,-1.8049,-1.7884,-1.8056,-1.8609,-1.8695,-1.9409,-2.0597,-2.0055,-2.0194,-2.093,-2.0144,-2.0471,-2.1534,-2.0987,-2.0753,-2.0906,-2.1982,-2.2451,-2.2532,-2.3013,-2.3256,-2.3283,0.0,0.0,0.0,0.0,0.0,0.0,0.0,0.0,0.0,0.0,1.7559,1.7523,1.7671,1.6985,1.6595,1.6817,1.5914,1.5357,1.5346,0.0,0.0,1.776,1.7821,1.8075,1.861,1.7328,1.7135,1.8153,0.0,0.0,0.0,0.0,0.0,0.0,0.0,0.0,0.0,0.0,0.0,0.0,0.0,0.0,0.0,0.0,0.0,0.0,0.0,1.7776,1.8298,1.8372,1.8518,0.0,0.0,0.0,1.8533,1.7844,1.7743,1.744,0.0,0.0,0.0,0.0,0.0,0.0,0.0,0.0,0.0,0.0,0.0,0.0,0.0,0.0,0.0,0.0,0.0,0.0,0.0,0.0,0.0,0.0,0.0,0.0,0.0,0.0,0.0,0.0,-2.2224,-1.9969,-1.6877,-1.6158,-1.5754,-1.5556,-1.4831,-1.544,-1.7376,-1.6632,-1.651,-1.7115,-1.7546,-1.8537,-1.9952,-1.985,-2.0471,-2.152,-2.0333,-2.0245,-2.0934,-2.0745,-2.0711,-2.0762,-2.1428,-2.1631,-2.1695,-2.2267,-2.2471,-2.2547,0.0,0.0,0.0,0.0,0.0,0.0,0.0,0.0,0.0,0.0,0.0,1.8017,1.844,1.7732,1.7205,1.7189,1.6407,1.5638,1.4987,1.5292,1.5769,1.6366,1.6535,1.6588,1.6554,1.5765,1.5538,1.5957,0.0,0.0,0.0,2.3512,2.5438,0.0,0.0,0.0,0.0,0.0,0.0,0.0,0.0,0.0,0.0,0.0,0.0,0.0,0.0,0.0,1.7706,1.7423,1.7795,1.8353,1.8261,0.0,0.0,0.0,1.6886,0.0,1.6069,0.0,0.0,0.0,0.0,0.0,0.0,0.0,0.0,0.0,0.0,0.0,0.0,0.0,0.0,0.0,0.0,0.0,0.0,0.0,0.0,0.0,0.0,0.0,0.0,0.0,0.0,0.0,-2.2497,-2.0833,-1.95,-1.7816,-1.6991,-1.719,-1.6503,-1.6738,-1.8088,-1.7668,-1.7813,-1.8487,-1.833,-1.8553,-1.9189,-1.9189,-1.9712,-2.0633,-2.0385,-2.0485,-2.0745,-2.1053,-2.1129,-2.1179,-2.1732,-2.2216,-2.2605,-2.2677,-2.3056,-2.3373,0.0,0.0,0.0,0.0,0.0,0.0,0.0,0.0,0.0,0.0,0.0,1.8779,1.9347,0.0,0.0,0.0,1.6753,1.583,1.4982,1.5189,1.5264,1.509,1.5286,1.5107,1.4504,1.4324,1.4203,0.0,0.0,0.0,2.1872,2.298,2.512,0.0,2.5468,0.0,0.0,0.0,0.0,0.0,0.0,0.0,0.0,0.0,0.0,0.0,0.0,0.0,1.7875,1.7038,1.7411,1.8166,1.7971,1.7839,0.0,0.0,0.0,0.0,0.0,0.0,0.0,0.0,0.0,0.0,0.0,0.0,0.0,0.0,0.0,0.0,0.0,0.0,0.0,0.0,0.0,0.0,0.0,0.0,0.0,0.0,0.0,0.0,0.0,0.0,0.0,0.0,-2.2599,-2.1321,-2.1453,-1.938,-1.8352,-1.8697,-1.7981,-1.7915,-1.8608,-1.875,-1.8868,-1.8937,-1.8875,-1.8827,-1.8937,-1.8815,-1.9158,-1.9929,-2.0246,-2.0474,-2.0648,-2.1362,-2.1687,-2.1744,-2.2272,-2.2847,-2.3332,-2.3141,-2.3484,-2.3884,0.0,0.0,0.0,0.0,0.0,0.0,0.0,0.0,0.0,0.0,0.0,2.0328,2.0253,1.8833,1.7835,1.7716,1.6215,1.5197,1.5014,1.4947,1.4794,1.4456,1.4152,0.0,1.3667,1.3532,0.0,0.0,0.0,0.0,2.1726,2.2171,2.452,2.8362,2.7791,2.5714,2.2553,0.0,0.0,0.0,0.0,0.0,0.0,0.0,0.0,0.0,0.0,0.0,0.0,1.795,1.7769,1.8187,1.8187,1.8014,1.7592,0.0,0.0,0.0,0.0,0.0,0.0,0.0,0.0,0.0,0.0,0.0,0.0,0.0,0.0,0.0,0.0,0.0,0.0,0.0,0.0,0.0,0.0,0.0,0.0,0.0,0.0,0.0,0.0,0.0,0.0,0.0,-2.1871,-2.1067,-2.1639,-2.0403,-1.9356,-1.8738,-1.7966,-1.7855,-1.834,-1.8835,-1.8251,-1.6701,-1.8328,-1.9281,-1.9556,-1.9084,-1.9362,-2.0135,-1.9801,-1.9865,-2.0325,-2.1711,-2.228,-2.2291,-2.2879,-2.3088,-2.3088,-2.3125,-2.3138,-2.3138,0.0,0.0,0.0,0.0,0.0,0.0,0.0,0.0,0.0,0.0,0.0,0.0,0.0,1.8513,1.7791,1.7709,1.7157,1.6528,1.5872,1.5733,1.5357,1.4621,1.4153,1.3864,1.3792,0.0,0.0,0.0,0.0,1.5695,1.9363,2.0874,2.2705,2.4682,2.4699,2.4354,2.3556,2.0702,0.0,0.0,0.0,0.0,0.0,0.0,0.0,0.0,0.0,0.0,0.0,0.0,1.8603,1.8376,1.7163,0.0,0.0,0.0,0.0,0.0,0.0,0.0,0.0,0.0,0.0,0.0,0.0,0.0,0.0,0.0,0.0,0.0,0.0,0.0,0.0,0.0,0.0,0.0,0.0,0.0,0.0,0.0,0.0,0.0,0.0,0.0,0.0,0.0,0.0,-2.1489,-2.1685,-2.006,-1.8964,-1.8696,-1.7531,-1.7092,-1.7597,-1.7589,-1.7728,-1.8046,-1.8746,-1.8888,-1.8467,-1.8833,-1.9055,-1.921,-1.9606,-2.0143,-2.0831,-2.2241,-2.2795,-2.2816,-2.3012,-2.3078,-2.3078,-2.3078,-2.3078,-2.3078,0.0,0.0,0.0,2.0307,0.0,2.0122,1.9571,1.9983,0.0,0.0,0.0,0.0,0.0,0.0,0.0,1.7728,1.7702,1.7444,1.6804,1.6353,1.5824,1.5198,1.4415,1.3999,0.0,0.0,0.0,0.0,0.0,0.0,0.0,0.0,2.1036,2.2396,2.1316,0.0,0.0,0.0,0.0,1.9902,0.0,0.0,2.0868,0.0,0.0,0.0,0.0,0.0,0.0,0.0,0.0,0.0,0.0,0.0,0.0,0.0,0.0,0.0,0.0,0.0,0.0,0.0,0.0,0.0,0.0,0.0,0.0,0.0,0.0,0.0,0.0,0.0,0.0,0.0,0.0,0.0,0.0,0.0,0.0,0.0,0.0,0.0,0.0,0.0,0.0,0.0,0.0,0.0,-2.1382,-1.9699,-1.8549,-1.8235,-1.7168,-1.6736,-1.7011,-1.7397,-1.7761,-1.8176,-1.8811,-1.8806,-1.8092,-1.85,-1.891,-1.9281,-1.9603,-2.03,-2.1397,-2.2311,-2.2857,-2.3065,-2.2772,-2.2857,-2.3078,-2.3078,-2.3078,-2.3078,0.0,2.0312,2.0292,2.0311,2.0302,2.0318,2.0307,2.0319,0.0,0.0,0.0,0.0,0.0,0.0,0.0,1.7902,1.7837,1.7818,1.7741,1.6762,1.6151,1.6107,0.0,0.0,0.0,0.0,0.0,0.0,0.0,0.0,0.0,0.0,1.9654,0.0,1.8262,1.9043,2.3023,0.0,0.0,2.1128,0.0,2.1808,0.0,0.0,0.0,0.0,2.4407,2.4435,0.0,0.0,0.0,0.0,0.0,0.0,0.0,0.0,0.0,0.0,0.0,0.0,0.0,0.0,0.0,0.0,0.0,0.0,0.0,0.0,0.0,0.0,0.0,0.0,0.0,0.0,0.0,0.0,0.0,0.0,0.0,0.0,0.0,0.0,0.0,0.0,0.0,0.0,-2.0194,-2.0105,-2.0762,-1.9423,-1.8224,-1.7217,-1.6842,-1.6705,-1.6698,-1.8397,-1.8378,-1.676,-1.8476,-1.9078,-1.8566,-1.8193,-1.8937,-2.0479,-1.968,-2.0277,-2.1834,-2.1862,-2.237,-2.3017,-2.2261,-2.2431,-2.3078,-2.3078,-2.3078,-2.3078,2.0257,2.0312,2.033,2.0427,2.0439,2.0434,2.0438,2.0441,0.0,0.0,0.0,0.0,0.0,0.0,0.0,0.0,2.1023,2.0608,1.8761,1.826,1.747,1.6157,1.612,1.5802,0.0,0.0,0.0,0.0,0.0,0.0,0.0,0.0,0.0,0.0,1.8673,1.8665,1.8741,1.6941,0.0,0.0,0.0,2.1288,0.0,0.0,0.0,0.0,0.0,2.6129,0.0,0.0,2.3814,2.1631,0.0,0.0,0.0,0.0,0.0,0.0,1.4173,0.0,0.0,0.0,0.0,0.0,0.0,0.0,0.0,0.0,0.0,0.0,0.0,0.0,0.0,0.0,0.0,0.0,0.0,0.0,0.0,0.0,0.0,0.0,0.0,0.0,0.0,0.0,-2.0851,-2.0578,-2.0797,-1.8984,-1.7423,-1.6427,-1.5956,-1.6186,-1.7191,-1.7322,-1.7464,-1.7648,-1.8751,-1.89,-1.8167,-1.8667,-1.9213,-1.9614,-1.9416,-1.9913,-2.1016,-2.1643,-2.2059,-2.2236,-2.2604,-2.287,-2.3078,-2.3078,-2.3078,-2.3163,2.0299,2.0339,2.0485,2.0958,2.1327,2.1552,2.1581,2.1552,2.1399,0.0,0.0,0.0,0.0,0.0,0.0,0.0,2.2177,2.1636,2.0135,1.927,1.8333,1.7266,1.7093,1.675,0.0,0.0,0.0,0.0,0.0,0.0,0.0,0.0,0.0,0.0,0.0,0.0,0.0,0.0,0.0,0.0,2.0263,0.0,0.0,2.5371,2.5898,0.0,0.0,0.0,2.5866,2.671,2.4579,0.0,0.0,0.0,0.0,0.0,0.0,0.0,0.0,0.0,0.0,0.0,0.0,0.0,0.0,0.0,0.0,0.0,0.0,0.0,0.0,0.0,0.0,0.0,0.0,0.0,0.0,0.0,0.0,0.0,0.0,0.0,0.0,-1.9927,-1.994,-1.9978,-1.9648,-1.9339,-1.9004,-1.7813,-1.6736,-1.579,-1.5472,-1.5835,-1.7058,-1.678,-1.7039,-1.8008,-1.8476,-1.8476,-1.8018,-1.8554,-1.8937,-1.926,-1.8921,-1.924,-2.0101,-2.0989,-2.1591,-2.1964,-2.2408,-2.2985,-2.3472,-2.3472,-2.3615,-2.3878,0.0,2.0385,2.072,2.1753,2.2522,2.3091,2.3339,2.3244,2.2893,0.0,0.0,0.0,0.0,0.0,0.0,0.0,2.241,2.1721,2.1517,1.9911,1.892,1.8797,1.7965,1.743,1.7222,0.0,0.0,0.0,0.0,0.0,0.0,0.0,0.0,0.0,0.0,0.0,0.0,0.0,0.0,1.77,2.0262,2.1751,0.0,0.0,2.5849,0.0,2.833,2.7845,2.6097,2.7904,2.5567,0.0,0.0,0.0,0.0,0.0,1.4753,0.0,0.0,0.0,0.0,0.0,0.0,0.0,0.0,0.0,0.0,0.0,0.0,0.0,0.0,0.0,0.0,0.0,0.0,0.0,0.0,0.0,0.0,0.0,0.0,0.0,0.0,-1.8167,-1.8286,-1.7633,-1.7578,-1.7302,-1.6539,-1.656,-1.6202,-1.5323,-1.5263,-1.5641,-1.6573,-1.6421,-1.6856,-1.8008,-1.791,-1.792,-1.8008,-1.8008,-1.8388,-1.9114,-1.8368,-1.8476,-1.939,-2.0154,-2.0958,-2.1765,-2.2043,-2.2926,-2.4017,-2.4044,-2.439,-2.4823,2.0375,2.0355,2.0847,2.2473,2.2892,2.3475,2.4904,2.4459,2.4194,0.0,0.0,0.0,0.0,0.0,0.0,0.0,0.0,0.0,2.1586,2.057,1.9654,1.8835,1.9213,1.8766,1.7309,1.7101,0.0,0.0,0.0,0.0,0.0,0.0,0.0,0.0,0.0,0.0,0.0,0.0,0.0,1.79,1.7221,0.0,0.0,2.5354,2.6425,2.7382,2.8866,2.8725,2.7725,0.0,2.6445,2.5302,0.0,0.0,0.0,0.0,0.0,0.0,0.0,0.0,0.0,0.0,0.0,0.0,0.0,0.0,0.0,0.0,0.0,0.0,0.0,0.0,0.0,0.0,0.0,0.0,0.0,0.0,0.0,0.0,0.0,0.0,0.0,-1.7379,-1.7743,-1.7633,-1.7578,-1.7302,-1.6539,-1.6885,-1.6499,-1.5342,-1.4866,-1.5251,-1.6581,-1.5043,-1.5547,-1.8008,-1.7213,-1.729,-1.8008,-1.8008,-1.8105,-1.8203,-1.8095,-1.8476,-1.9312,-1.9489,-2.0085,-2.1068,-2.2857,-2.3767,-2.4042,-2.451,-2.4681,-2.4886,2.0388,2.0362,2.1032,2.3221,2.3954,2.4842,2.6633,2.6505,0.0,0.0,0.0,0.0,0.0,0.0,0.0,0.0,0.0,0.0,0.0,2.0982,2.0073,1.9577,1.9835,1.9591,1.8666,1.7764,1.7108,0.0,0.0,0.0,0.0,0.0,0.0,0.0,0.0,0.0,0.0,0.0,1.3945,1.5969,1.8371,0.0,2.6058,2.6571,2.7429,2.847,2.9008,2.8984,2.8506,2.7394,2.648,0.0,0.0,2.2604,2.2026,0.0,1.9255,2.0995,0.0,0.0,0.0,1.7672,0.0,0.0,0.0,0.0,0.0,0.0,0.0,0.0,0.0,0.0,0.0,0.0,0.0,0.0,0.0,0.0,0.0,0.0,0.0,0.0,0.0,-1.5408,-1.5877,-1.5918,-1.5918,-1.5798,-1.5624,-1.6266,-1.5881,-1.4257,-1.4869,-1.5144,-1.5136,-1.4698,-1.5429,-1.7284,-1.6817,-1.7107,-1.8008,-1.8008,-1.8008,-1.8008,-1.8008,-1.8281,-1.869,-1.9327,-1.9845,-2.049,-2.2531,-2.3954,-2.4779,-2.455,-2.497,-2.562,2.039,2.0381,2.1133,2.3514,2.4624,2.5793,2.759,2.7811,0.0,0.0,0.0,0.0,0.0,0.0,0.0,0.0,0.0,0.0,0.0,0.0,2.1034,2.1032,2.0249,1.9965,2.0289,1.823,1.6991,1.6666,0.0,0.0,0.0,0.0,0.0,0.0,0.0,0.0,0.0,0.0,0.0,1.5931,0.0,2.4275,2.6237,2.6863,2.7606,2.8375,2.8759,2.8929,2.8828,2.7801,0.0,2.4908,2.4666,2.4153,0.0,0.0,0.0,0.0,0.0,0.0,0.0,0.0,0.0,1.5488,0.0,0.0,0.0,0.0,0.0,0.0,0.0,0.0,0.0,0.0,0.0,0.0,0.0,0.0,0.0,0.0,0.0,0.0,0.0,-1.321,-1.3781,-1.4186,-1.4128,-1.4246,-1.4707,-1.554,-1.5172,-1.3157,-1.4665,-1.4912,-1.371,-1.4347,-1.5288,-1.6573,-1.6228,-1.676,-1.8008,-1.7823,-1.7833,-1.8008,-1.8008,-1.8115,-1.8464,-1.9275,-1.9987,-2.0567,-2.2098,-2.3676,-2.4953,-2.4288,-2.5046,-2.6214,2.0405,2.0354,2.0864,2.2654,2.3589,2.4652,2.6346,2.6397,0.0,0.0,0.0,0.0,0.0,0.0,0.0,0.0,0.0,0.0,2.5166,0.0,0.0,2.367,2.0737,1.9812,2.1294,1.8216,1.5865,1.4367,0.0,0.0,0.0,0.0,0.0,0.0,1.5896,0.0,0.0,0.0,1.9719,0.0,2.298,2.1913,0.0,2.3512,2.5103,2.6026,2.7838,2.87,2.874,0.0,2.6654,2.6391,0.0,2.4907,0.0,0.0,0.0,0.0,0.0,0.0,0.0,0.0,1.4671,0.0,0.0,0.0,0.0,0.0,0.0,0.0,0.0,0.0,0.0,0.0,0.0,0.0,0.0,0.0,0.0,0.0,0.0,0.0,0.0,0.0,-1.261,-1.4073,-1.3791,-1.3914,-1.4653,-1.5461,-1.506,-1.3168,-1.3631,-1.386,-1.3699,-1.3014,-1.3998,-1.6573,-1.4854,-1.5394,-1.7998,-1.7126,-1.7203,-1.8008,-1.8008,-1.8652,-1.9667,-1.9028,-2.0194,-2.24,-2.2599,-2.281,-2.3086,-2.342,-2.459,-2.5859,2.0351,2.0346,2.0804,2.2204,2.274,2.3416,2.475,2.5716,0.0,0.0,0.0,0.0,0.0,0.0,0.0,0.0,0.0,2.7604,0.0,0.0,0.0,0.0,2.0521,1.9861,2.0055,1.7709,1.5906,1.469,1.3251,0.0,0.0,0.0,0.0,0.0,1.6469,0.0,1.9412,0.0,0.0,0.0,0.0,0.0,0.0,2.5366,2.7687,2.7816,2.868,2.9079,2.9104,0.0,2.7059,0.0,0.0,0.0,0.0,0.0,0.0,0.0,0.0,0.0,0.0,0.0,0.0,0.0,0.0,0.0,1.0168,0.0,0.0,0.0,0.0,0.0,0.0,0.0,0.0,0.0,0.0,0.0,0.0,0.0,0.0,0.0,0.0,0.0,0.0,0.0,0.0,-1.2311,-1.3492,-1.4407,-1.4147,-1.2662,-1.3855,-1.4047,-1.2885,-1.3004,-1.3741,-1.4949,-1.4096,-1.4886,-1.7188,-1.6757,-1.7116,-1.8008,-1.8281,-1.8652,-1.9196,-1.9571,-2.0416,-2.1531,-2.2072,-2.2635,-2.3169,-2.3073,-2.4181,-2.576,2.0332,0.0,2.0656,2.1489,2.1681,2.2033,2.2954,2.3852,0.0,0.0,0.0,0.0,2.0263,2.1845,0.0,0.0,0.0,2.8032,0.0,0.0,2.4636,0.0,0.0,0.0,0.0,1.8075,1.5971,1.4863,1.2842,0.0,0.0,0.0,0.0,0.0,0.0,1.9412,2.245,0.0,0.0,2.0687,2.1362,2.1861,2.2695,2.7469,2.9476,2.971,2.9487,2.9434,2.9418,2.8957,2.7345,0.0,2.8239,0.0,0.0,0.0,0.0,0.0,1.6742,0.0,0.0,0.0,0.0,0.0,0.0,0.0,0.0,0.0,0.0,0.0,0.0,0.0,0.0,0.0,0.0,0.0,0.0,0.0,0.0,0.0,0.0,0.0,0.0,0.0,0.0,0.0,0.0,0.0,-1.2964,-1.3778,-1.3632,-1.2345,-1.366,-1.3741,-1.2305,-1.2977,-1.3483,-1.3726,-1.3469,-1.4498,-1.6555,-1.6306,-1.6934,-1.8193,-1.8466,-1.8745,-1.901,-2.0144,-2.0634,-2.0841,-2.1589,-2.2362,-2.3057,-2.2977,-2.4133,-2.5813,2.0414,2.0394,2.0352,2.0195,2.0211,2.0463,2.0994,0.0,0.0,0.0,0.0,0.0,0.0,0.0,0.0,0.0,0.0,2.9874,3.0398,0.0,2.8844,0.0,0.0,0.0,0.0,0.0,1.5689,1.4046,0.0,0.0,0.0,0.0,0.0,0.0,0.0,2.0581,1.989,2.387,2.7188,2.9656,2.8135,2.9526,3.212,0.0,2.8507,3.0453,2.9692,0.0,0.0,2.7878,2.7474,0.0,0.0,0.0,0.0,0.0,0.0,0.0,0.0,0.0,0.0,0.2791,0.0,0.0,0.0,0.0,0.3363,0.0,0.0,0.0,0.0,0.0,0.0,0.0,0.0,0.0,0.0,0.0,0.0,0.0,0.0,0.0,0.0,0.0,0.0,0.0,0.0,0.0,-1.3709,-1.4238,-1.3793,-1.2365,-1.2385,-1.2385,-1.2305,-1.2305,-1.2802,-1.366,-1.2781,-1.3815,-1.6555,-1.5687,-1.6492,-1.8564,-1.8574,-1.9056,-1.9869,-2.042,-2.0799,-2.1245,-2.1696,-2.1926,-2.2064,-2.3127,-2.4442,-2.5926,0.0,0.0,2.0918,1.9839,1.9555,1.9362,0.0,1.8643,0.0,0.0,0.0,0.0,0.0,0.0,1.6973,0.0,0.0,2.6885,2.7455,2.7456,0.0,0.0,0.0,2.2312,0.0,0.0,0.0,0.0,0.0,0.0,0.0,0.0,0.0,0.0,0.0,2.1119,0.0,0.0,0.0,0.0,0.0,2.9975,3.2317,0.0,0.0,3.1044,3.076,3.0341,0.0,2.9366,2.8503,2.7699,2.813,2.6864,2.5041,2.4005,2.1383,0.0,0.0,0.0,-0.3184,-0.4435,0.0,0.0,0.0,0.0,0.0,0.0,0.0,0.0,0.0,0.0,0.0,0.0,0.0,0.0,0.0,0.0,0.0,0.0,0.0,0.0,0.0,0.0,0.0,0.0,0.0,0.0,0.0,-1.2617,-1.2912,-1.3219,-1.2633,-1.2305,-1.2305,-1.2305,-1.2466,-1.2802,-1.2714,-1.3483,-1.5022,-1.4837,-1.5984,-1.7998,-1.8253,-1.9127,-2.044,-2.1171,-2.1693,-2.2108,-2.2562,-2.2688,-2.2834,-2.3639,-2.4751,-2.6095,2.2187,0.0,0.0,2.0143,1.9743,0.0,0.0,0.0,0.0,0.0,1.3735,0.0,1.0045,0.0,1.2778,0.0,1.9369,2.2797,2.4546,2.5868,0.0,2.8695,2.5996,0.0,0.0,0.0,0.0,0.0,0.0,1.4628,0.0,0.0,0.0,0.0,0.0,0.0,0.0,0.0,2.8353,0.0,0.0,3.1726,0.0,0.0,3.2878,3.1295,0.0,3.1005,3.0566,3.0307,2.9532,2.877,2.9472,2.7806,2.536,2.4146,2.1126,1.6427,0.843,0.0992,0.0,-0.959,-0.9544,0.0,-0.6307,0.0,0.0,0.0,0.0,0.0,0.0,0.0,0.0,0.0,0.0,0.0,0.0,0.0,0.0,0.0,0.0,0.0,0.0,0.0,0.0,0.0,0.0,0.0,0.0,0.0,-1.2566,-1.3219,-1.2633,-1.2305,-1.2305,-1.2305,-1.2385,-1.2472,-1.2721,-1.3379,-1.434,-1.4509,-1.5799,-1.7944,-1.8366,-1.9425,-2.0908,-2.176,-2.2261,-2.2562,-2.2921,-2.3378,-2.3787,-2.466,-2.5943,-2.7478,0.0,0.0,0.0,0.0,2.0734,0.0,0.0,0.0,1.7629,0.0,1.3476,1.1122,0.9047,0.8812,0.9669,1.2067,1.4845,0.0,2.1939,2.4144,0.0,0.0,2.8427,2.8624,3.114,0.0,0.0,0.0,0.0,0.0,0.0,0.0,0.0,0.0,1.7536,0.0,2.3334,2.6578,3.0395,3.4289,3.4613,3.4845,3.5004,3.5102,3.3568,3.139,3.1439,3.1556,3.1559,3.069,3.0409,3.0356,2.9793,2.8752,2.6995,2.3156,2.0611,1.7265,0.9211,0.4001,-0.1656,-1.2307,-1.2731,0.0,0.0,0.0,-0.7497,0.0,0.0,0.0,0.0,0.0,0.0,0.0,0.0,0.0,0.0,0.0,0.0,0.0,0.0,0.0,0.0,0.0,0.0,0.0,0.0,0.0,0.0,0.0,-1.2793,-1.2365,-1.2305,-1.2305,-1.2305,-1.2305,-1.2472,-1.2802,-1.2783,-1.343,-1.4565,-1.4656,-1.594,-1.8196,-1.8798,-1.9877,-2.1233,-2.2129,-2.2465,-2.2572,-2.2931,-2.3807,-2.494,-2.6109,-2.7968,-2.9792,2.3199,2.3553,2.3739,0.0,2.1564,2.0526,0.0,0.0,0.0,0.0,1.3842,1.1505,0.9373,0.8529,0.8285,0.8981,1.2067,0.0,0.0,0.0,0.0,2.9229,2.7558,2.7549,2.9769,2.6021,0.0,2.2195,0.0,0.0,1.5521,0.0,0.0,0.0,0.0,0.0,2.3494,2.6247,3.0283,3.4895,3.5192,3.4562,0.0,0.0,3.4189,3.2577,3.3278,3.2781,3.1749,3.1559,3.0759,2.9658,2.8664,2.7093,2.5175,2.2955,2.0254,1.6631,1.0531,0.2259,-0.5762,-1.0585,-1.2105,-1.2039,0.0,0.0,0.0,0.0,0.0,0.0,0.0,0.0,0.0,0.0,0.0,0.0,0.0,0.0,0.0,0.0,0.0,0.0,0.0,0.0,0.0,0.0,0.0,0.0,0.0,0.0,0.0,-1.3271,-1.264,-1.2305,-1.2305,-1.2305,-1.2472,-1.2815,-1.3022,-1.3328,-1.3893,-1.5247,-1.6132,-1.6775,-1.8913,-2.0235,-2.0948,-2.2044,-2.2688,-2.2931,-2.3038,-2.3821,-2.5021,-2.6964,-2.8598,-2.9792,2.4212,0.0,0.0,2.519,0.0,0.0,2.2185,0.0,0.0,1.6178,1.3632,0.0,0.9768,0.8506,0.8008,0.8389,1.0273,0.0,0.0,0.0,0.0,2.6224,2.758,2.8908,3.0286,2.8333,0.0,2.4632,0.0,0.0,1.6272,0.0,0.0,0.0,0.0,1.9182,0.0,2.6954,3.0695,3.3555,3.4941,0.0,0.0,3.5128,3.4905,3.4148,3.4705,3.3769,3.2223,3.1883,3.0775,2.9356,2.8145,2.6266,2.3943,2.1193,1.8827,1.6135,1.2114,0.4915,-0.2768,-0.8106,-1.0755,-1.1778,-1.0793,-1.1608,-1.2491,0.0,0.0,0.0,0.0,0.0,0.0,0.0,0.0,0.0,0.0,0.0,0.0,0.0,0.0,0.0,0.0,0.0,0.0,0.0,0.0,0.0,0.0,0.0,0.0,-1.3029,-1.2466,-1.2211,-1.2305,-1.2305,-1.2553,-1.2991,-1.3238,-1.3516,-1.3893,-1.4958,-1.5723,-1.6271,-1.8667,-2.0101,-2.0772,-2.2224,-2.2911,-2.3164,-2.421,-2.4954,-2.5799,-2.802,-2.8911,-2.913,0.0,0.0,0.0,0.0,0.0,0.0,0.0,2.0182,0.0,1.6138,0.0,1.1201,1.0114,0.8906,0.8466,0.9221,0.0,1.0615,1.3138,1.7554,2.0852,2.2647,2.7682,3.0713,3.1315,3.1255,0.0,0.0,0.0,0.0,0.0,0.0,0.0,0.0,0.0,0.0,0.0,2.8225,3.1438,0.0,3.4505,3.5493,3.5493,3.5526,3.5565,3.5617,3.5688,3.4492,3.2772,3.2024,3.0646,2.9049,2.7865,2.5707,2.2814,1.8841,1.675,1.5295,1.3514,0.8935,0.2748,-0.5274,-0.885,-1.0378,-1.0418,-1.1166,-1.2056,-1.2789,-1.132,-0.8524,0.0,0.0,0.0,0.0,0.0,0.0,0.0,0.0,0.0,0.0,0.0,0.0,0.0,0.0,0.0,0.0,0.0,0.0,0.0,0.0,0.0,-1.2285,-1.2057,0.0,-1.2243,0.0,-1.2634,-1.3147,-1.3426,-1.382,-1.4088,-1.4572,-1.5219,-1.6116,-1.8427,-1.9803,-2.0658,-2.2349,-2.3135,-2.3281,-2.5434,-2.6274,-2.6523,-2.8759,-2.8987,-2.8244,0.0,0.0,0.0,0.0,0.0,2.3653,2.2696,1.9885,1.7356,1.5882,1.4271,1.2618,1.0869,1.0433,1.004,0.9372,1.0045,0.0,0.0,0.0,0.0,2.18,2.571,2.85,2.9905,2.9783,2.8141,0.0,0.0,0.0,0.0,0.0,0.0,0.0,0.0,0.0,2.5655,2.9102,0.0,3.4807,3.5301,3.5493,3.5526,3.5565,3.5603,3.5612,3.5685,3.4454,3.2809,3.2713,3.0566,2.7812,2.7082,2.4173,2.0456,1.79,1.4964,1.2584,1.2901,0.7811,0.1414,-0.2611,-0.6392,-0.9344,-1.0253,-1.169,-1.2781,-1.2921,-1.2158,-1.0492,-0.7406,0.0,0.0,0.0,0.0,0.0,0.0,0.0,0.0,0.0,0.0,0.0,0.0,0.0,0.0,0.0,0.0,0.0,0.0,0.0,0.0,0.0,0.0,0.0,0.0,0.0,-1.2792,-1.2845,-1.34,-1.3804,-1.4179,-1.5727,-1.595,-1.5411,-1.9288,-2.0474,-1.9887,-2.2127,-2.3135,-2.3261,-2.4574,-2.5069,-2.5372,-2.7577,-2.824,-2.8244,0.0,0.0,0.0,0.0,0.0,0.0,0.0,1.9808,0.0,1.5938,1.3923,1.2141,1.0545,1.0301,0.9948,0.9382,0.9291,1.0088,1.1952,1.4246,1.6578,1.882,2.3051,0.0,2.8323,2.9886,2.8884,2.5174,0.0,0.0,0.0,0.0,0.0,0.0,0.0,1.9957,0.0,0.0,0.0,3.3632,3.496,3.5493,3.5526,3.5584,3.5599,3.5593,3.552,3.4345,3.2796,3.2462,3.0183,2.7234,2.5653,2.2334,1.841,1.5522,1.2663,1.0211,0.9273,0.5481,0.1012,-0.1957,-0.5785,-0.8853,-0.9128,-1.053,-1.1839,-1.2279,-1.1764,-1.0221,-0.7147,-0.2509,0.0,0.0,0.0,0.0,0.0,0.0,0.0,0.0,0.0,0.0,0.0,0.0,0.0,0.0,0.0,0.0,0.0,0.0,0.0,0.0,0.0,0.0,0.0,0.0,0.0,-1.2301,-1.2716,-1.3385,-1.4276,-1.4771,-1.5017,-1.5406,-1.8909,-2.0021,-1.9669,-2.2108,-2.3135,-2.3164,-2.4338,-2.5189,-2.5898,-2.7463,-2.8484,-2.9028,0.0,2.939,0.0,0.0,2.49,0.0,1.8837,1.8945,1.842,1.5695,1.3399,1.1505,1.0248,0.9679,0.9369,0.9316,0.838,0.8505,1.0256,1.1708,1.3297,1.5041,1.9594,2.3312,2.5851,2.9429,2.9554,0.0,0.0,0.0,0.0,0.0,0.0,0.0,0.0,0.0,0.0,0.0,3.175,3.2593,3.4672,3.5455,3.5416,3.5584,3.5613,3.5566,3.5376,3.4272,3.2764,3.1728,2.9572,2.6843,2.4327,2.0826,1.6955,1.3522,1.087,0.8573,0.6047,0.3422,0.0539,-0.2967,-0.6364,-0.8717,-0.8377,-0.9491,-1.0771,-1.1425,-1.1066,-0.9798,-0.6907,-0.3717,0.0,0.0,0.0,0.0,0.0,0.0,0.0,0.0,0.0,0.0,0.0,0.0,0.0,0.0,0.0,0.0,0.0,0.0,0.0,0.0,0.0,-0.9145,-0.9541,0.0,-1.1175,-1.1466,-1.1788,-1.2558,-1.3679,-1.3324,-1.3835,-1.5175,-1.8195,-1.9795,-2.043,-2.2339,-2.3135,-2.3164,-2.4092,-2.5295,-2.6563,-2.7472,-2.8623,-2.9792,0.0,0.0,0.0,0.0,0.0,0.0,0.0,1.5972,1.5404,1.4435,1.314,1.1871,1.089,0.9418,0.8704,0.9236,0.8348,0.8152,0.9145,0.9322,0.9807,1.083,1.5046,1.8681,2.1598,2.6443,2.821,0.0,0.0,0.0,0.0,0.0,0.0,0.0,0.0,0.0,0.0,3.0028,3.1951,3.4826,3.5301,3.5339,3.5185,3.5565,3.5652,3.5563,3.5379,3.4262,3.2629,3.0716,2.8694,2.6472,2.3805,2.025,1.6454,1.3412,1.0705,0.8286,0.5981,0.2815,-0.1076,-0.6211,-0.8154,-0.886,-0.914,-0.9914,-1.0624,-1.0701,-1.0841,-1.0626,-0.9479,-0.7033,-0.4683,0.0,0.0,0.0,0.0,0.0,0.0,0.0,0.0,0.0,0.0,0.0,0.0,0.0,0.0,0.0,0.0,0.0,0.0,0.0,0.0,-0.9662,-0.9652,-1.0104,-1.0133,-0.9921,-1.0459,-1.0865,-1.115,-1.2607,-1.3318,-1.3786,-1.774,-2.0709,-2.2795,-2.3028,-2.3135,-2.3144,-2.3251,-2.4574,-2.6531,-2.6622,-2.7992,-2.9792,0.0,0.0,0.0,0.0,0.0,0.0,0.0,1.2812,1.1008,1.281,1.169,1.0093,0.8427,0.774,0.6931,0.5681,0.52,0.4873,0.4612,0.5103,0.5576,0.5872,0.8976,1.2193,1.5222,2.0654,2.3444,0.0,0.0,0.0,0.0,0.0,0.0,0.0,0.0,2.6809,3.0041,3.1989,3.3612,3.488,3.5153,3.521,3.5147,3.5565,3.5632,3.5504,3.5183,3.4244,3.2728,3.0082,2.7902,2.5719,2.2376,1.8373,1.446,1.1984,0.9081,0.6055,0.3019,0.0605,-0.2087,-0.6406,-0.8668,-0.986,-1.0015,-1.0694,-1.1347,-1.1347,-1.0771,-1.0299,-1.0171,-0.8595,-0.7099,-0.6355,0.0,0.0,0.0,0.0,0.0,0.0,0.0,0.0,0.0,0.0,0.0,0.0,0.0,0.0,0.0,0.0,0.0,-0.7997,0.0,-0.782,-0.7631,-0.8726,-0.9229,-0.9187,-0.9519,-1.0592,-1.227,-1.2314,-1.4019,-1.7162,-1.9551,-2.1527,-2.3135,-2.3135,-2.3135,-2.3135,-2.3135,-2.4466,-2.6531,-2.6497,-2.7878,-2.9792,2.6518,0.0,2.5511,0.0,1.835,1.5686,1.5462,1.0695,0.7945,1.046,0.8488,0.6296,0.4774,0.5075,0.4773,0.3242,0.2507,0.187,0.1166,0.1238,0.1228,0.1139,0.3459,0.0,0.8674,1.3702,1.6896,1.8206,1.9636,0.0,0.0,1.9444,2.1279,0.0,2.6915,2.9137,3.1058,3.3515,3.4561,3.4584,3.4933,3.5058,3.5018,3.5526,3.5632,3.5484,3.5145,3.4226,3.2748,2.9807,2.738,2.4963,2.1237,1.7065,1.3254,1.146,0.7792,0.3606,0.0134,-0.2021,-0.41,-0.7302,-0.9303,-1.0584,-1.0836,-1.152,-1.2081,-1.1974,-1.105,-1.0412,-1.0767,-0.9854,-0.9054,-0.8822,0.0,0.0,0.0,0.0,0.0,0.0,0.0,0.0,0.0,0.0,0.0,0.0,0.0,0.0,0.0,0.0,0.0,0.0,0.0,0.0,0.0,-0.7712,-0.8257,-0.8332,-0.8516,-0.9822,-1.216,-1.2653,-1.5258,-1.9596,-2.0811,-2.1949,-2.3135,-2.3135,-2.3135,-2.3135,-2.3135,-2.4317,-2.6044,-2.6382,-2.7717,-2.9372,1.9707,2.0828,2.0309,1.5136,1.4196,1.4112,1.4153,1.0173,0.7139,0.7136,0.3037,0.0089,0.0086,0.1348,0.2403,0.3079,0.1185,0.0,0.0,-0.1871,-0.3044,0.0,0.0,0.0821,0.2385,0.5694,0.8739,1.1401,0.0,0.0,1.5895,1.8099,2.1657,2.6309,2.7214,2.9962,3.3954,3.4139,3.4218,3.4273,3.486,3.4945,3.4787,3.5435,3.5652,3.5562,3.5358,3.4279,3.2527,2.9951,2.7258,2.4357,2.067,1.6787,1.3407,1.2367,0.7229,0.1197,-0.1749,-0.4788,-0.7593,-0.9996,-1.0555,-1.076,-1.1567,-1.2397,-1.2814,-1.232,-1.1785,-1.1458,-1.1803,-1.1304,-1.0654,-1.0171,0.0,0.0,0.0,0.0,0.0,0.0,1.3854,1.3887,1.6448,0.0,0.0,0.0,0.0,0.0,0.0,0.0,0.0,-0.7219,-0.7191,0.0,-0.7553,-0.726,-0.7139,-0.7139,-0.7323,-0.815,-0.9672,-1.3755,-1.705,-1.9552,-2.0773,-2.2017,-2.3135,-2.3135,-2.3135,-2.3135,-2.3135,-2.3847,-2.4947,-2.612,-2.7216,-2.8256,1.7655,1.6828,1.6051,1.4378,1.4088,1.4088,1.4088,1.0091,0.7139,0.7139,0.58,0.4265,0.2637,0.138,0.0762,0.0,0.0407,-0.0321,0.0,-0.2364,-0.3435,-0.4139,-0.4278,-0.3691,-0.2488,0.1137,0.3846,0.5506,0.0,0.0,0.0,1.3715,1.8498,2.4279,2.7006,3.018,3.3477,3.3781,3.3944,3.3981,3.4567,3.4773,3.4768,3.5378,3.5613,3.5562,3.5319,3.4241,3.2502,2.9957,2.7564,2.4894,2.0799,1.6482,1.2392,0.9857,0.5046,-0.0,-0.2811,-0.5836,-0.8489,-0.9446,-1.0555,-1.1622,-1.2403,-1.2956,-1.316,-1.2625,-1.2116,-1.1803,-1.2131,-1.197,-1.1797,-1.1636,-1.0151,0.0,0.0,0.0,0.0,0.0,0.0,1.6215,0.0,1.4039,0.0,0.0,0.0,0.0,0.0,0.0,0.0,0.0,-0.6887,0.0,-0.688,-0.7013,-0.7139,-0.7143,-0.8244,-1.0113,-1.2666,-1.6511,-1.8711,-1.9604,-2.1676,-2.2706,-2.3135,-2.3135,-2.3135,-2.3135,-2.3135,-2.3847,-2.4974,-2.6064,-2.7209,-2.8244,1.6617,1.5184,1.4262,1.4115,1.4208,1.4255,1.4108,1.0611,0.7749,0.7139,0.6602,0.5706,0.4186,0.2461,0.0,0.1363,0.0583,-0.0246,-0.0892,-0.1834,-0.2912,-0.4062,-0.4766,-0.4996,-0.4673,-0.2648,0.0,-0.1115,0.08,0.308,0.581,0.9729,1.4654,2.028,2.4382,2.8142,3.1564,3.272,3.3368,3.3633,3.4402,3.4698,3.4768,3.5359,3.5591,3.558,3.5446,3.4275,3.2505,3.0348,2.7923,2.5134,2.1068,1.7145,1.3042,0.8156,0.3211,-0.1339,-0.4348,-0.6789,-0.8656,-0.9144,-1.0555,-1.2064,-1.2966,-1.3031,-1.2955,-1.2836,-1.2353,-1.197,-1.2224,-1.2305,-1.2305,-1.2305,-1.0599,-0.7697,-0.3151,0.0,0.0,0.0,0.0,0.0,0.0,1.387,1.1597,0.0,0.0,0.0,0.0,0.0,0.0,-0.639,-0.6867,0.0,-0.6763,-0.6956,-0.7139,-0.7143,-0.9251,-1.1794,-1.4722,-1.7978,-1.9729,-2.0305,-2.2227,-2.3135,-2.3135,-2.3135,-2.3135,-2.3135,-2.3135,-2.3505,-2.4338,-2.5921,-2.6952,-2.7729,1.642,1.5388,1.4556,0.0,1.4409,0.0,1.3965,1.1305,0.8794,0.7312,0.5888,0.4996,0.4996,0.4194,0.3721,0.3826,0.0,0.0,0.0,-0.0485,-0.1599,-0.274,-0.2895,-0.3431,-0.4339,-0.5505,-0.6659,-0.7938,-0.5297,-0.2041,0.1764,0.5612,0.9819,1.4379,1.958,2.4243,2.8461,3.1046,3.2557,3.3316,3.4305,3.4706,3.4787,3.5359,3.5603,3.5618,3.5672,3.4407,3.2483,3.1062,2.8436,2.5135,2.1476,1.8424,1.4796,0.7464,0.1928,-0.2526,-0.6047,-0.7423,-0.8133,-0.9081,-1.0555,-1.2072,-1.311,-1.2747,-1.2375,-1.2956,-1.2472,-1.197,-1.2137,-1.2224,-1.2298,-1.2218,-1.0605,-0.8107,-0.4686,-0.015,0.5632,0.0,0.0,0.0,0.0,1.1839,1.0628,0.0,0.0,0.0,0.0,0.0,-0.4688,-0.7017,-0.7139,-0.7139,-0.7139,-0.7139,-0.7238,-0.7436,-1.0353,-1.3181,-1.5961,-1.8495,-2.0252,-2.1382,-2.2589,-2.3135,-2.3135,-2.3135,-2.3135,-2.3135,-2.3135,-2.3135,-2.3368,-2.5643,-2.6467,-2.6853,0.0,0.0,1.4643,1.4549,1.4362,1.3579,1.1752,0.9309,0.7489,0.7139,0.6782,0.6514,0.6514,0.5622,0.5346,0.6204,0.4171,0.2827,0.2813,0.1838,0.1063,0.064,-0.0879,-0.1901,-0.2329,-0.4124,-0.6659,-0.9969,-1.0092,-0.9612,-0.8529,-0.2993,0.1878,0.6368,1.4061,2.0346,2.5392,2.896,3.1639,3.357,3.4382,3.4818,3.5037,3.5378,3.5565,3.5598,3.5614,3.4368,3.2559,3.1643,2.9175,2.5748,2.1521,1.7879,1.4192,0.9151,0.3215,-0.2392,-0.5087,-0.6358,-0.7386,-0.892,-1.0555,-1.1903,-1.2406,-1.2505,-1.2692,-1.3053,-1.2633,-1.197,-1.1304,-1.1803,-1.205,-1.1304,-1.0093,-0.8424,-0.6029,-0.1206,0.3601,0.0,1.0982,1.2652,1.1914,1.1123,1.0075,0.0,0.0,0.0,0.0,-0.1541,-0.4708,-0.7054,-0.7061,-0.7139,-0.7139,-0.7139,-0.8228,-1.0481,-1.3006,-1.5264,-1.7309,-1.9782,-2.0989,-2.1382,-2.2589,-2.3135,-2.3135,-2.3135,-2.3135,-2.3135,-2.3135,-2.3135,-2.3347,-2.5639,-2.6493,-2.6853,1.6632,1.5617,1.493,1.471,1.4222,1.3099,1.1107,0.9233,0.7867,0.7272,0.7197,0.7139,0.7139,0.6517,0.6428,0.7051,0.5478,0.4461,0.4418,0.3842,0.3271,0.2627,0.1557,0.081,0.0633,-0.1424,-0.446,-0.8614,-1.0564,-1.1323,-1.0787,-0.6499,-0.2289,0.2051,0.978,1.6278,2.1671,2.6257,2.9755,3.2316,3.3788,3.4601,3.4955,3.5379,3.556,3.556,3.5628,3.446,3.2701,3.1519,2.906,2.5714,2.1134,1.7097,1.3348,0.967,0.3682,-0.2326,-0.4746,-0.6047,-0.7104,-0.8867,-1.0408,-1.1495,-1.1784,-1.2088,-1.2392,-1.2714,-1.2472,-1.2137,-1.1556,-1.1964,-1.1996,-1.0938,-0.9922,-0.9018,-0.8183,-0.3665,0.0305,0.2378,0.6565,0.9352,0.9476,0.987,0.9681,0.8746,0.8859,0.0,0.1246,-0.1911,-0.4685,-0.6992,-0.7068,-0.7397,-0.791,-0.842,-0.993,-1.2285,-1.4198,-1.6323,-1.8588,-2.0438,-2.1623,-2.2129,-2.2862,-2.3135,-2.3135,-2.3135,-2.3388,-2.3867,-2.3867,-2.421,-2.484,-2.6611,-2.724,-2.749,1.516,1.4987,1.4943,1.4308,1.3622,1.2554,1.1027,0.9653,0.8477,0.7516,0.7098,0.6897,0.7054,0.7139,0.7139,0.7139,0.6248,0.5673,0.5656,0.5651,0.5165,0.413,0.3958,0.3748,0.3581,0.1375,-0.1828,-0.5966,-0.8684,-0.9825,-0.9456,-0.6989,-0.4135,-0.0739,0.615,1.1915,1.6945,2.2884,2.7075,2.9987,3.2843,3.4342,3.4886,3.5398,3.5567,3.5513,3.5527,3.4426,3.2718,3.107,2.8564,2.5342,2.0596,1.6508,1.2797,0.9446,0.3936,-0.1595,-0.4138,-0.5796,-0.7105,-0.8582,-0.9912,-1.0928,-1.1173,-1.159,-1.197,-1.2224,-1.2305,-1.2224,-1.2131,-1.2218,-1.1896,-1.0683,-0.9793,-0.9468,-0.9985,-0.6634,-0.3657,-0.2345,0.1128,0.4142,0.6047,0.7666,0.874,0.9117,0.7248,0.4287,0.0178,-0.2585,-0.5008,-0.7009,-0.7241,-0.791,-0.91,-1.0292,-1.1674,-1.3217,-1.4817,-1.7011,-1.9579,-2.0926,-2.2117,-2.3135,-2.3135,-2.3135,-2.3135,-2.3135,-2.3797,-2.4784,-2.4812,-2.5476,-2.6623,-2.7723,-2.8106,-2.8244,1.3137,1.3341,1.3726,1.2213,1.1843,1.1333,0.9833,0.8463,0.7571,0.7394,0.6344,0.6009,0.6976,0.7139,0.7139,0.7139,0.6962,0.6861,0.6841,0.6838,0.6689,0.6383,0.5595,0.5024,0.4829,0.1793,-0.1429,-0.4857,-0.6249,-0.8183,-1.0513,-0.6655,-0.4958,-0.491,0.2162,0.6889,0.9952,1.8131,2.3419,2.672,3.1902,3.4588,3.5466,3.5504,3.5548,3.5508,3.4905,3.3677,3.2148,3.0917,2.8305,2.4794,2.0387,1.6985,1.3699,0.8765,0.5103,0.1935,-0.1462,-0.4577,-0.6908,-0.7181,-0.8696,-1.0194,-1.0486,-1.1265,-1.197,-1.2224,-1.2305,-1.205,-1.1224,-1.1723,-1.1526,-0.9336,-0.9148,-0.9183,-0.8896,-0.9023,-0.8277,-0.5768,-0.3842,-0.1647,0.1237,0.3275,0.5336,0.7358,0.3472,0.08,0.0,-0.4192,-0.6723,-0.7088,-0.8097,-0.9187,-1.0282,-1.1434,-1.2412,-1.3211,-1.6499,-1.8539,-1.9579,-2.1826,-2.2921,-2.3135,-2.3135,-2.3135,-2.3135,-2.3135,-2.379,-2.4767,-2.4777,-2.5487,-2.663,-2.7735,-2.8106,-2.8244,1.2231,1.2813,1.3121,1.1726,1.0423,0.9364,0.8445,0.6712,0.5441,0.544,0.4822,0.4842,0.6083,0.616,0.6428,0.7051,0.7139,0.7139,0.7139,0.7139,0.7109,0.7044,0.6599,0.601,0.5283,0.2493,0.0082,-0.201,-0.4967,-0.7137,-0.8484,-0.7715,-0.8036,-0.8975,-0.1871,0.1944,0.3665,1.3309,2.0077,2.4858,3.145,3.4613,3.5381,3.5398,3.5364,3.5191,3.4169,3.2816,3.1175,2.909,2.6354,2.3142,1.9324,1.615,1.3053,0.9331,0.5116,0.0807,-0.2792,-0.4942,-0.6268,-0.6395,-0.7852,-0.9353,-0.9479,-1.0013,-1.0663,-1.1347,-1.152,-1.155,-1.1556,-1.197,-1.1595,-0.9357,-0.9146,-0.9189,-0.9036,-0.9426,-0.9504,-0.8995,-0.8216,-0.643,-0.2923,-0.1123,0.115,0.437,0.169,-0.1156,-0.3655,-0.5905,-0.7081,-0.7068,-0.8877,-1.0326,-1.1519,-1.3237,-1.448,-1.5164,-1.8037,-1.9835,-2.0486,-2.2315,-2.3135,-2.3135,-2.3135,-2.3135,-2.3135,-2.3135,-2.3804,-2.4828,-2.5462,-2.6391,-2.749,-2.8611,-2.9015,-2.9118,1.1068,1.1745,1.2073,1.0847,0.8975,0.7442,0.7149,0.5001,0.3512,0.381,0.3652,0.4042,0.5282,0.5625,0.616,0.7051,0.7139,0.7139,0.7139,0.7139,0.7139,0.7139,0.7404,0.7061,0.6221,0.3812,0.1927,0.0585,-0.3481,-0.6118,-0.7379,-0.8755,-1.0512,-1.25,-0.7135,-0.4718,-0.3942,0.5541,1.2713,1.852,2.7137,3.2343,3.4964,3.4998,3.4788,3.4381,3.3321,3.166,2.9623,2.7001,2.4236,2.1305,1.7897,1.5142,1.2578,0.9964,0.5425,0.0471,-0.3166,-0.449,-0.508,-0.5815,-0.7104,-0.8313,-0.8537,-0.8927,-0.9483,-1.0304,-1.0611,-1.1015,-1.1835,-1.1922,-1.1335,-0.9458,-0.9032,-0.9045,-0.9216,-0.9316,-1.0019,-1.1856,-1.169,-1.0314,-0.7366,-0.5373,-0.2816,0.0709,-0.0178,-0.2668,-0.69,-0.7344,-0.7768,-0.8269,-0.9831,-1.1381,-1.3087,-1.4859,-1.6193,-1.7201,-1.9255,-2.0621,-2.1382,-2.258,-2.3135,-2.3135,-2.3135,-2.3135,-2.3135,-2.3135,-2.3787,-2.4951,-2.6049,-2.7184,-2.8276,-2.9422,-2.9792,-2.9792,0.8722,0.9312,0.9797,0.8513,0.712,0.6121,0.6116,0.381,0.2577,0.3626,0.3696,0.4105,0.5292,0.6337,0.7051,0.7051,0.7139,0.7139,0.7139,0.7139,0.7139,0.7139,0.8189,0.8628,0.8437,0.6172,0.3904,0.1668,-0.0754,-0.458,-0.9565,-0.8861,-1.083,-1.4865,-1.4811,-1.4835,-1.4366,-0.8064,-0.273,0.2611,1.4896,2.5649,3.4251,3.4139,3.3544,3.2709,3.226,3.0102,2.7176,2.5282,2.2728,1.9762,1.6266,1.4626,1.3377,1.02,0.7242,0.4183,0.0601,-0.139,-0.2963,-0.5384,-0.625,-0.6762,-0.7698,-0.8618,-0.9301,-0.9377,-1.0115,-1.0852,-1.0932,-1.0938,-1.0408,-0.8885,-0.8269,-0.8198,-0.9019,-0.9435,-1.0918,-1.4171,-1.3819,-1.3183,-1.2876,-0.9092,-0.5664,-0.3354,-0.3274,-0.4444,-0.6992,-0.812,-0.9753,-1.1809,-1.1037,-1.214,-1.5448,-1.5613,-1.653,-1.8329,-1.9604,-2.0621,-2.1382,-2.258,-2.3135,-2.3135,-2.3135,-2.3135,-2.3135,-2.3135,-2.3724,-2.4904,-2.6086,-2.714,-2.8219,-2.9353,-2.9792,-2.9792,0.8035,0.8432,0.8326,0.7033,0.5227,0.3822,0.3519,0.1913,0.0895,0.1339,0.1427,0.2152,0.4036,0.4641,0.5531,0.6962,0.7139,0.7139,0.7139,0.7841,0.8189,0.8189,0.9318,0.963,0.8871,0.727,0.5239,0.2959,-0.0175,-0.4206,-0.9143,-1.1876,-1.591,-2.0941,-1.9803,-1.9402,-1.9286,-1.6204,-0.8114,0.3197,1.0578,2.034,3.0625,3.0787,3.0557,3.0179,3.0212,2.8833,2.6639,2.4162,2.1692,1.9221,1.67,1.4744,1.2943,1.0288,0.814,0.6149,0.4114,0.1277,-0.1308,-0.2289,-0.4419,-0.6416,-0.6806,-0.7188,-0.7791,-0.9074,-0.914,-0.9291,-1.0594,-1.0323,-0.9484,-0.8273,-0.8565,-0.9126,-0.9432,-1.0804,-1.2667,-1.4821,-1.5344,-1.5305,-1.4835,-1.272,-1.0714,-0.909,-0.874,-0.8877,-0.924,-0.9666,-1.0697,-1.2237,-1.1895,-1.299,-1.5696,-1.6355,-1.7606,-1.9519,-2.0736,-2.1693,-2.2403,-2.2862,-2.3135,-2.3135,-2.3135,-2.3135,-2.3135,-2.3135,-2.38,-2.4872,-2.6058,-2.7128,-2.8255,-2.9365,-2.9792,-2.9792,0.6628,0.7132,0.6933,0.5625,0.372,0.2415,0.2013,0.0907,-0.02,-0.0579,0.0096,0.1033,0.2259,0.3133,0.4372,0.6425,0.6605,0.6694,0.7051,0.8189,0.9235,0.9923,1.0697,1.0611,0.9492,0.8237,0.6646,0.4716,0.1164,-0.3153,-0.8181,-1.3228,-1.912,-2.5517,-2.5441,-2.5576,-2.5817,-2.442,-1.6613,-0.4559,0.1762,1.1184,2.1743,2.3717,2.5805,2.7612,2.6912,2.5887,2.4544,2.2278,2.0237,1.8369,1.643,1.4141,1.1912,1.0159,0.8518,0.7066,0.6335,0.3916,0.1252,0.0,-0.2303,-0.4467,-0.5168,-0.5802,-0.6659,-0.8097,-0.8089,-0.8241,-0.9614,-0.9276,-0.8746,-0.8363,-0.8793,-0.9488,-1.0206,-1.1744,-1.3527,-1.5644,-1.6477,-1.6869,-1.6652,-1.5703,-1.4539,-1.3323,-1.2753,-1.2357,-1.2196,-1.1519,-1.1787,-1.3334,-1.2662,-1.3419,-1.5696,-1.6764,-1.8379,-2.0541,-2.1467,-2.2256,-2.2949,-2.3076,-2.3135,-2.3135,-2.3135,-2.3135,-2.3135,-2.3135,-2.3551,-2.4382,-2.5891,-2.6964,-2.7752,-2.8999,-2.9514,-2.9499,0.4218,0.5122,0.5525,0.4216,0.2914,0.2013,0.2013,0.0806,-0.0501,-0.1863,0.0192,0.1226,-0.0092,0.2075,0.4105,0.527,0.5359,0.5891,0.7051,0.8189,0.9923,1.2151,1.2322,1.1724,1.0611,0.9443,0.8218,0.7088,0.3575,-0.1169,-0.6882,-1.2319,-1.9334,-2.7682,-3.212,-3.4473,-3.4998,-3.3489,-3.0081,-2.4719,-1.346,-0.2705,0.7085,1.2519,1.9134,2.5076,2.2324,2.0914,2.0277,1.9388,1.8296,1.7027,1.4855,1.2585,1.0578,0.9723,0.8319,0.7082,0.7082,0.6445,0.4849,0.0979,0.0,-0.0548,-0.2655,-0.4771,-0.6278,-0.6278,-0.7107,-0.7783,-0.7783,-0.7783,-0.8089,-0.915,-0.8709,-0.8993,-1.1381,-1.1968,-1.3365,-1.6887,-1.7342,-1.7747,-1.8877,-1.7903,-1.6798,-1.5748,-1.4552,-1.4386,-1.5576,-1.3484,-1.3348,-1.5613,-1.3503,-1.3425,-1.5696,-1.6764,-1.8591,-2.116,-2.168,-2.2109,-2.2529,-2.2949,-2.3135,-2.3135,-2.3135,-2.3135,-2.3135,-2.3135,-2.3144,-2.3299,-2.5557,-2.6483,-2.6744,-2.8325,-2.8911,-2.8904,0.3915,0.5122,0.5325,0.3016,0.3015,0.2814,0.0907,0.0303,-0.0399,-0.1735,-0.1241,-0.0563,-0.009,0.0625,0.187,0.3926,0.4105,0.4989,0.6926,0.7453,0.8674,1.1037,1.1123,1.0611,0.9405,0.9048,0.8333,0.7088,0.4418,0.0888,-0.3326,-1.1601,-1.9043,-2.559,-3.1273,-3.4004,-3.4185,-3.2004,-2.8792,-2.4429,-1.538,-0.8412,-0.2825,0.2958,0.8641,1.345,1.3631,1.6262,1.9333,1.7344,1.6466,1.5771,1.2937,1.2077,1.1867,1.0178,0.7453,0.4991,0.4991,0.4123,0.2998,0.2118,0.0923,-0.0549,-0.2656,-0.3593,-0.4686,-0.6865,-0.7026,-0.6945,-0.7706,-0.7249,-0.7099,-0.8084,-0.8787,-0.9864,-1.1467,-1.2544,-1.4213,-1.6968,-1.7342,-1.806,-1.9923,-1.9088,-1.8346,-1.8017,-1.6952,-1.6456,-1.6806,-1.6137,-1.6062,-1.6764,-1.5433,-1.535,-1.6846,-1.7172,-1.825,-2.0051,-2.1332,-2.2109,-2.2529,-2.2949,-2.3135,-2.3135,-2.3135,-2.3135,-2.3135,-2.3135,-2.3551,-2.4372,-2.5041,-2.6284,-2.7624,-2.7747,-2.8268,-2.89,0.2212,0.3518,0.3718,0.1611,0.1408,0.1105,-0.0504,-0.1209,-0.1892,-0.2608,-0.2198,-0.1597,-0.0907,-0.0359,0.0804,0.268,0.3303,0.463,0.6913,0.6659,0.7457,0.9836,0.9488,0.9314,0.9579,0.9579,0.9639,0.9847,0.7483,0.4324,0.0177,-0.9926,-1.7852,-2.3784,-3.1667,-3.4497,-3.3299,-3.211,-2.9281,-2.5123,-1.9593,-1.5749,-1.2662,-0.7233,-0.2829,0.0784,0.3668,0.7808,1.1957,1.1978,1.2788,1.3537,1.1821,1.1359,1.0762,0.7415,0.4545,0.2471,0.247,0.1471,0.0465,0.0765,-0.0232,-0.1801,-0.3919,-0.4384,-0.4921,-0.6791,-0.6721,-0.6644,-0.7629,-0.7326,-0.7326,-0.8761,-0.971,-1.0695,-1.1957,-1.2972,-1.4505,-1.6846,-1.7243,-1.8141,-2.0401,-2.0001,-1.9599,-1.9599,-1.9027,-1.863,-1.863,-1.823,-1.798,-1.798,-1.6927,-1.6601,-1.7253,-1.7747,-1.8423,-1.9399,-2.091,-2.1758,-2.2021,-2.2617,-2.2891,-2.29,-2.3066,-2.3135,-2.3135,-2.3135,-2.3551,-2.4211,-2.4617,-2.587,-2.744,-2.7132,-2.7675,-2.8571,-0.0403,0.0705,0.1208,0.0,-0.1108,-0.1912,-0.2013,-0.3011,-0.3882,-0.4008,-0.2879,-0.2072,-0.2031,-0.0907,0.0359,0.1522,0.2681,0.4275,0.6649,0.5789,0.6328,0.8627,0.7753,0.8356,1.0687,1.06,1.1701,1.3981,1.1791,0.8479,0.3734,-0.7549,-1.6081,-2.2221,-3.2494,-3.5488,-3.2833,-3.3139,-3.0843,-2.685,-2.5028,-2.338,-2.147,-1.7108,-1.4353,-1.2076,-0.7052,-0.3083,0.0285,0.4424,0.7708,1.0209,1.0724,0.9857,0.7668,0.2751,0.0304,-0.0776,-0.0774,-0.1705,-0.2718,-0.2486,-0.3037,-0.4064,-0.5993,-0.6457,-0.6511,-0.6585,-0.6574,-0.6872,-0.7783,-0.7931,-0.8533,-1.0484,-1.1071,-1.1704,-1.2739,-1.3398,-1.4553,-1.6764,-1.7191,-1.8141,-2.0401,-2.0566,-2.0566,-2.0566,-2.0566,-2.0566,-2.0566,-1.9678,-1.9195,-1.9265,-1.8132,-1.7649,-1.7713,-1.8621,-1.9107,-1.9045,-2.0528,-2.123,-2.126,-2.208,-2.248,-2.2539,-2.292,-2.3105,-2.3135,-2.3135,-2.3135,-2.3222,-2.4211,-2.5378,-2.6524,-2.6461,-2.7163,-2.8053,-0.3115,-0.2005,-0.1203,-0.1509,-0.0904,-0.0803,-0.181,-0.2187,-0.264,-0.3736,-0.3474,-0.2854,-0.1987,-0.1616,-0.0896,0.0269,0.0628,0.179,0.4186,0.4103,0.4994,0.7401,0.8105,0.9557,1.1827,1.0973,1.1662,1.3981,1.3247,1.1032,0.727,-0.5818,-1.4755,-2.0245,-3.0109,-3.5033,-3.5797,-3.228,-3.0448,-2.9679,-2.6943,-2.5123,-2.3909,-2.2269,-2.1607,-2.1029,-1.5778,-1.1784,-0.7871,-0.1207,0.2781,0.5124,0.5557,0.4828,0.3287,0.0995,-0.2934,-0.6538,-0.6535,-0.7138,-0.7351,-0.5813,-0.606,-0.7011,-0.7671,-0.7833,-0.8047,-0.8551,-0.8618,-0.8694,-0.8922,-0.8998,-0.9367,-1.0634,-1.149,-1.2425,-1.3751,-1.4205,-1.5311,-1.7691,-1.759,-1.8141,-2.0401,-2.0566,-2.0566,-2.0566,-2.0566,-2.0566,-2.0566,-2.0401,-2.0615,-2.1344,-2.0294,-2.0091,-2.0887,-2.0343,-1.969,-1.9045,-2.0528,-2.123,-2.125,-2.1787,-2.2197,-2.2519,-2.2607,-2.2832,-2.3135,-2.3135,-2.3135,-2.3135,-2.3387,-2.4723,-2.6405,-2.5949,-2.6783,-2.8079,-0.4214,-0.3409,-0.2907,-0.2914,-0.2909,-0.2907,-0.2914,-0.339,-0.3632,-0.3053,-0.292,-0.2314,-0.1079,-0.0897,-0.0718,-0.009,0.0539,0.1612,0.3481,0.4105,0.5528,0.7837,0.854,1.0245,1.3018,1.3438,1.475,1.7041,1.6237,1.4497,1.1731,-0.1032,-1.192,-2.1138,-2.9393,-3.31,-3.2942,-3.0904,-3.0191,-3.0265,-2.8351,-2.7248,-2.6687,-2.5822,-2.5715,-2.5457,-2.1313,-1.6606,-1.155,-0.6533,-0.252,0.0616,0.1769,0.1682,0.0457,-0.2935,-0.5992,-0.8363,-0.8722,-0.9008,-0.9064,-0.7982,-0.8147,-0.8475,-0.8358,-0.82,-0.8259,-0.915,-0.9296,-0.9448,-0.9895,-1.004,-1.034,-1.1316,-1.2331,-1.3243,-1.4186,-1.4889,-1.6146,-1.8154,-1.8232,-1.8789,-2.0401,-2.0566,-2.0566,-2.0566,-2.0566,-2.0566,-2.0566,-2.0566,-2.1001,-2.1952,-2.1466,-2.1662,-2.2678,-2.2104,-2.138,-2.043,-2.0781,-2.0918,-2.0928,-2.1377,-2.1807,-2.2217,-2.2432,-2.3077,-2.3877,-2.3877,-2.4221,-2.4723,-2.4723,-2.5797,-2.7221,-2.6622,-2.6935,-2.7795,-0.5802,-0.5307,-0.5207,-0.481,-0.5415,-0.552,-0.4216,-0.4708,-0.4447,-0.2005,-0.1897,-0.1401,0.018,0.009,0.0,0.0,0.0897,0.2057,0.3481,0.4727,0.6236,0.8185,0.8707,1.0149,1.2734,1.4707,1.7403,2.1059,1.9925,1.8439,1.6287,0.4308,-0.8588,-2.196,-2.8741,-3.0791,-2.9185,-2.9487,-2.9871,-3.0119,-2.9341,-2.9002,-2.8906,-2.8023,-2.7604,-2.7178,-2.4755,-1.9962,-1.4224,-1.1676,-0.8041,-0.4144,-0.1766,-0.1388,-0.2633,-0.7011,-0.8512,-0.888,-0.9377,-0.9674,-0.975,-0.9593,-0.9518,-0.9377,-0.888,-0.8484,-0.8609,-0.9814,-1.004,-1.034,-1.1156,-1.1446,-1.1742,-1.2439,-1.3448,-1.4359,-1.4774,-1.5581,-1.6724,-1.8437,-1.8926,-1.9524,-2.0479,-2.0566,-2.0566,-2.0566,-2.0566,-2.0566,-2.0566,-2.0566,-2.1001,-2.1952,-2.2178,-2.2776,-2.3745,-2.3745,-2.3368,-2.2478,-2.1527,-2.1011,-2.0876,-2.1174,-2.166,-2.2351,-2.2782,-2.3698,-2.4925,-2.523,-2.5931,-2.6767,-2.6907,-2.7624,-2.853,-2.824,-2.8027,-2.799,-1.0854,-1.0854,-1.0156,-0.7872,-0.6679,-0.5591,-0.4212,-0.3075,-0.1949,-0.057,-0.1216,-0.0919,0.1346,0.0628,0.0,0.0,0.018,0.1165,0.3481,0.4712,0.551,0.5888,0.7796,0.8529,0.7846,0.9195,1.4333,2.3567,2.3652,2.2373,1.9671,0.7255,-0.5583,-1.8599,-2.5934,-2.9765,-3.0583,-2.8778,-2.9246,-3.1018,-2.9602,-2.8996,-2.887,-2.8038,-2.7297,-2.6577,-2.6208,-2.3845,-2.0357,-1.6731,-1.3509,-1.0382,-0.6594,-0.7053,-0.8799,-0.8435,-0.9322,-1.0496,-1.0565,-1.1242,-1.17,-1.0789,-1.0565,-1.0565,-1.049,-1.0415,-1.0932,-1.2705,-1.3077,-1.315,-1.3295,-1.4011,-1.4371,-1.3593,-1.5013,-1.6351,-1.6757,-1.6181,-1.6573,-1.8941,-1.9512,-1.9994,-2.0527,-2.0566,-2.0566,-2.0566,-2.0566,-2.0566,-2.0566,-2.0566,-2.1001,-2.1952,-2.285,-2.3818,-2.4791,-2.4791,-2.4707,-2.4564,-2.3599,-2.2627,-2.1811,-2.1883,-2.2613,-2.3941,-2.4414,-2.4977,-2.5602,-2.6898,-2.7531,-2.777,-2.8594,-2.9618,-3.0634,-3.1087,-3.0842,-3.031,-1.2042,-1.1945,-1.1356,-0.9477,-0.798,-0.6391,-0.4312,-0.2193,-0.0393,0.0763,0.0566,0.0742,0.1707,0.0718,0.0,0.0,0.0628,0.2056,0.4358,0.4448,0.5242,0.7183,0.6991,0.7215,0.7924,1.017,1.4904,2.2171,2.6119,2.4083,1.6149,0.1804,-1.0055,-1.9473,-2.446,-2.7503,-2.8915,-2.8983,-2.9604,-3.0608,-3.0909,-3.0197,-2.8939,-2.8556,-2.792,-2.7082,-2.6289,-2.4621,-2.2344,-1.8839,-1.5896,-1.3192,-0.9878,-0.9216,-0.9716,-0.9695,-1.0201,-1.0938,-1.1465,-1.1996,-1.2224,-1.1768,-1.162,-1.162,-1.162,-1.162,-1.1916,-1.2732,-1.2952,-1.2952,-1.2952,-1.3738,-1.4243,-1.3745,-1.4871,-1.5996,-1.6581,-1.6213,-1.6732,-1.8907,-1.9294,-1.9714,-2.0547,-2.0566,-2.0566,-2.0566,-2.0566,-2.0566,-2.0566,-2.0566,-2.1001,-2.1952,-2.2403,-2.3147,-2.412,-2.4707,-2.4707,-2.4192,-2.4264,-2.3818,-2.285,-2.285,-2.359,-2.4923,-2.5518,-2.6911,-2.872,-2.9774,-3.0864,-3.1842,-3.225,-3.25,-3.2485,-3.1875,-3.1295,-3.0798]}]]